[[{"header":{"parameterUnit":"m.s-1","parameterCategory":1,"la1":30.6,"la2":28.766,"lo1":-90.7593,"lo2":-88.6598,"dy":0.0162,"dx":0.0183,"nx":116,"ny":114,"refTime":"2024-07-10T06:00:00:Z","depth":0,"parameterNumber":2,"parameterNumberName":"U-component_of_WINDS"},"data":[0.0,0.0,0.0,0.0,0.0,0.0,0.0,0.0,0.0,0.0,0.0,0.0,0.0,0.0,0.0,0.0,0.0,0.0,0.0,0.0,0.0,0.0,0.0,0.0,0.0,0.0,0.0,0.0,0.0,0.0,0.0,0.0,0.0,0.0,0.0,0.0,0.0,0.0,0.0,0.0,0.0,0.0,0.0,0.0,0.0,0.0,0.0,0.0,0.0,0.0,0.0,0.0,0.0,0.0,0.0,0.0,0.0,0.0,0.0,0.0,0.0,0.0,0.0,0.0,0.0,0.0,0.0,0.0,0.0,0.0,0.0,0.0,0.0,0.0,0.0,0.0,0.0,0.0,0.0,0.0,0.0,0.0,0.0,0.0,0.0,0.0,0.0,0.0,0.0,0.0,0.0,0.0,0.0,0.0,0.0,0.0,0.0,0.0,0.0,0.0,0.0,0.0,0.0,0.0,0.0,0.0,0.0,0.0,0.0,0.0,0.0,0.0,0.0,0.0,0.0,0.0,0.0,0.0,0.0,0.0,0.0,0.0,0.0,0.0,0.0,0.0,0.0,0.0,0.0,0.0,0.0,0.0,0.0,0.0,0.0,0.0,0.0,0.0,0.0,0.0,0.0,0.0,0.0,0.0,0.0,0.0,0.0,0.0,0.0,0.0,0.0,0.0,0.0,0.0,0.0,0.0,0.0,0.0,0.0,0.0,0.0,0.0,0.0,0.0,0.0,0.0,0.0,0.0,0.0,0.0,0.0,0.0,0.0,0.0,0.0,0.0,0.0,0.0,0.0,0.0,0.0,0.0,0.0,0.0,0.0,0.0,0.0,0.0,0.0,0.0,0.0,0.0,0.0,0.0,0.0,0.0,0.0,0.0,0.0,0.0,0.0,0.0,0.0,0.0,0.0,0.0,0.0,0.0,0.0,0.0,0.0,0.0,0.0,0.0,0.0,0.0,0.0,0.0,0.0,0.0,0.0,0.0,0.0,0.0,0.0,0.0,0.0,0.0,0.0,0.0,0.0,0.0,0.0,0.0,0.0,0.0,0.0,0.0,0.0,0.0,0.0,0.0,0.0,0.0,0.0,0.0,0.0,0.0,0.0,0.0,0.0,0.0,0.0,0.0,0.0,0.0,0.0,0.0,0.0,0.0,0.0,0.0,0.0,0.0,0.0,0.0,0.0,0.0,0.0,0.0,0.0,0.0,0.0,0.0,0.0,0.0,0.0,0.0,0.0,0.0,0.0,0.0,0.0,0.0,0.0,0.0,0.0,0.0,0.0,0.0,0.0,0.0,0.0,0.0,0.0,0.0,0.0,0.0,0.0,0.0,0.0,0.0,0.0,0.0,0.0,0.0,0.0,0.0,0.0,0.0,0.0,0.0,0.0,0.0,0.0,0.0,0.0,0.0,0.0,0.0,0.0,0.0,0.0,0.0,0.0,0.0,0.0,0.0,0.0,0.0,0.0,0.0,0.0,0.0,0.0,0.0,0.0,0.0,0.0,0.0,0.0,0.0,0.0,0.0,0.0,0.0,0.0,0.0,0.0,0.0,0.0,0.0,0.0,0.0,0.0,0.0,0.0,0.0,0.0,0.0,0.0,0.0,0.0,0.0,0.0,0.0,0.0,0.0,0.0,0.0,0.0,0.0,0.0,0.0,0.0,0.0,0.0,0.0,0.0,0.0,0.0,0.0,0.0,0.0,0.0,0.0,0.0,0.0,0.0,0.0,0.0,0.0,0.0,0.0,0.0,0.0,0.0,0.0,0.0,0.0,0.0,0.0,0.0,0.0,0.0,0.0,0.0,0.0,0.0,0.0,0.0,0.0,0.0,0.0,0.0,0.0,0.0,0.0,0.0,0.0,0.0,0.0,0.0,0.0,0.0,0.0,0.0,0.0,0.0,0.0,0.0,0.0,0.0,0.0,0.0,0.0,0.0,0.0,0.0,0.0,0.0,0.0,0.0,0.0,0.0,0.0,0.0,0.0,0.0,0.0,0.0,0.0,0.0,0.0,0.0,0.0,0.0,0.0,0.0,0.0,0.0,0.0,0.0,0.0,0.0,0.0,0.0,0.0,0.0,0.0,0.0,0.0,0.0,0.0,0.0,0.0,0.0,0.0,0.0,0.0,0.0,0.0,0.0,0.0,0.0,0.0,0.0,0.0,0.0,0.0,0.0,0.0,0.0,0.0,0.0,0.0,0.0,0.0,0.0,0.0,0.0,0.0,0.0,0.0,0.0,0.0,0.0,0.0,0.0,0.0,0.0,0.0,0.0,0.0,0.0,0.0,0.0,0.0,0.0,0.0,0.0,0.0,0.0,0.0,0.0,0.0,0.0,0.0,0.0,0.0,0.0,0.0,0.0,0.0,0.0,0.0,0.0,0.0,0.0,0.0,0.0,0.0,0.0,0.0,0.0,0.0,0.0,0.0,0.0,0.0,0.0,0.0,0.0,0.0,0.0,0.0,0.0,0.0,0.0,0.0,0.0,0.0,0.0,0.0,0.0,0.0,0.0,0.0,0.0,0.0,0.0,0.0,0.0,0.0,0.0,0.0,0.0,0.0,0.0,0.0,0.0,0.0,0.0,0.0,0.0,0.0,0.0,0.0,0.0,0.0,0.0,0.0,0.0,0.0,0.0,0.0,0.0,0.0,0.0,0.0,0.0,0.0,0.0,0.0,0.0,0.0,0.0,0.0,0.0,0.0,0.0,0.0,0.0,0.0,0.0,0.0,0.0,0.0,0.0,0.0,0.0,0.0,0.0,0.0,0.0,0.0,0.0,0.0,0.0,0.0,0.0,0.0,0.0,0.0,0.0,0.0,0.0,0.0,0.0,0.0,0.0,0.0,0.0,0.0,0.0,0.0,0.0,0.0,0.0,0.0,0.0,0.0,0.0,0.0,0.0,0.0,0.0,0.0,0.0,0.0,0.0,0.0,0.0,0.0,0.0,0.0,0.0,0.0,0.0,0.0,0.0,0.0,0.0,0.0,0.0,0.0,0.0,0.0,0.0,0.0,0.0,0.0,0.0,0.0,0.0,0.0,0.0,0.0,0.0,0.0,0.0,0.0,0.0,0.0,0.0,0.0,0.0,0.0,0.0,0.0,0.0,0.0,0.0,0.0,0.0,0.0,0.0,0.0,0.0,0.0,0.0,0.0,0.0,0.0,0.0,0.0,0.0,0.0,0.0,0.0,0.0,0.0,0.0,0.0,0.0,0.0,0.0,0.0,0.0,0.0,0.0,0.0,0.0,0.0,0.0,0.0,0.0,0.0,0.0,0.0,0.0,0.0,0.0,0.0,0.0,0.0,0.0,0.0,0.0,0.0,0.0,0.0,0.0,0.0,0.0,0.0,0.0,0.0,0.0,0.0,0.0,0.0,0.0,0.0,0.0,0.0,0.0,0.0,0.0,0.0,0.0,0.0,0.0,0.0,0.0,0.0,0.0,0.0,0.0,0.0,0.0,0.0,0.0,0.0,0.0,0.0,0.0,0.0,0.0,0.0,0.0,0.0,0.0,0.0,0.0,0.0,0.0,0.0,0.0,0.0,0.0,0.0,0.0,0.0,0.0,0.0,0.0,0.0,0.0,0.0,0.0,0.0,0.0,0.0,0.0,0.0,0.0,0.0,0.0,0.0,0.0,0.0,0.0,0.0,0.0,0.0,0.0,0.0,0.0,0.0,0.0,0.0,0.0,0.0,0.0,0.0,0.0,0.0,0.0,0.0,0.0,0.0,0.0,0.0,0.0,0.0,0.0,0.0,0.0,0.0,0.0,0.0,0.0,0.0,0.0,0.0,0.0,0.0,0.0,0.0,0.0,0.0,0.0,0.0,0.0,0.0,0.0,0.0,0.0,0.0,0.0,0.0,0.0,0.0,0.0,0.0,0.0,0.0,0.0,0.0,0.0,0.0,0.0,0.0,0.0,0.0,0.0,0.0,0.0,0.0,0.0,0.0,0.0,0.0,0.0,0.0,0.0,0.0,0.0,0.0,0.0,0.0,0.0,0.0,0.0,0.0,0.0,0.0,0.0,0.0,0.0,0.0,0.0,0.0,0.0,0.0,0.0,0.0,0.0,0.0,0.0,0.0,0.0,0.0,0.0,0.0,0.0,0.0,0.0,0.0,0.0,0.0,0.0,0.0,0.0,0.0,0.0,0.0,0.0,0.0,0.0,0.0,0.0,0.0,0.0,0.0,0.0,0.0,0.0,0.0,0.0,0.0,0.0,0.0,0.0,0.0,0.0,0.0,0.0,0.0,0.0,0.0,0.0,0.0,0.0,0.0,0.0,0.0,0.0,0.0,0.0,0.0,0.0,0.0,0.0,0.0,0.0,0.0,0.0,0.0,0.0,0.0,0.0,0.0,0.0,0.0,0.0,0.0,0.0,0.0,0.0,0.0,0.0,0.0,0.0,0.0,0.0,0.0,0.0,0.0,0.0,0.0,0.0,0.0,0.0,0.0,0.0,0.0,0.0,0.0,0.0,0.0,0.0,0.0,0.0,0.0,0.0,0.0,0.0,0.0,0.0,0.0,0.0,0.0,0.0,0.0,0.0,0.0,0.0,0.0,0.0,0.0,0.0,0.0,0.0,0.0,0.0,0.0,0.0,0.0,0.0,0.0,0.0,0.0,0.0,0.0,0.0,0.0,0.0,0.0,0.0,0.0,0.0,0.0,0.0,0.0,0.0,0.0,0.0,0.0,0.0,0.0,0.0,0.0,0.0,0.0,0.0,0.0,0.0,0.0,0.0,0.0,0.0,0.0,0.0,0.0,0.0,0.0,0.0,0.0,0.0,0.0,0.0,0.0,0.0,0.0,0.0,0.0,0.0,0.0,0.0,0.0,0.0,0.0,0.0,0.0,0.0,0.0,0.0,0.0,0.0,0.0,0.0,0.0,0.0,0.0,0.0,0.0,0.0,0.0,0.0,0.0,0.0,0.0,0.0,0.0,0.0,0.0,0.0,0.0,0.0,0.0,0.0,0.0,0.0,0.0,0.0,0.0,0.0,0.0,0.0,0.0,0.0,0.0,0.0,0.0,0.0,0.0,0.0,0.0,0.0,0.0,0.0,0.0,0.0,0.0,0.0,0.0,0.0,0.0,0.0,0.0,0.0,0.0,0.0,0.0,0.0,0.0,0.0,0.0,0.0,0.0,0.0,0.0,0.0,0.0,0.0,0.0,0.0,0.0,0.0,0.0,0.0,0.0,0.0,0.0,0.0,0.0,0.0,0.0,0.0,0.0,0.0,0.0,0.0,0.0,0.0,0.0,0.0,0.0,0.0,0.0,0.0,0.0,0.0,0.0,0.0,0.0,0.0,0.0,0.0,0.0,0.0,0.0,0.0,0.0,0.0,0.0,0.0,0.0,0.0,0.0,0.0,0.0,0.0,0.0,0.0,0.0,0.0,0.0,0.0,0.0,0.0,0.0,0.0,0.0,0.0,0.0,0.0,0.0,0.0,0.0,0.0,0.0,0.0,0.0,0.0,0.0,0.0,0.0,0.0,0.0,0.0,0.0,0.0,0.0,0.0,0.0,0.0,0.0,0.0,0.0,0.0,0.0,0.0,0.0,0.0,0.0,0.0,0.0,0.0,0.0,0.0,0.0,0.0,0.0,0.0,0.0,0.0,0.0,0.0,0.0,0.0,0.0,0.0,0.0,0.0,0.0,0.0,0.0,0.0,0.0,0.0,0.0,0.0,0.0,0.0,0.0,0.0,0.0,0.0,0.0,0.0,0.0,0.0,0.0,0.0,0.0,0.0,0.0,0.0,0.0,0.0,0.0,0.0,0.0,0.0,0.0,0.0,0.0,0.0,0.0,0.0,0.0,0.0,0.0,0.0,0.0,0.0,0.0,0.0,0.0,0.0,0.0,0.0,0.0,0.0,0.0,0.0,0.0,0.0,0.0,0.0,0.0,0.0,0.0,0.0,0.0,0.0,0.0,0.0,0.0,0.0,0.0,0.0,0.0,0.0,0.0,0.0,0.0,0.0,0.0,0.0,0.0,0.0,0.0,0.0,0.0,0.0,0.0,0.0,0.0,0.0,0.0,0.0,0.0,0.0,0.0,0.0,0.0,0.0,0.0,0.0,0.0,0.0,0.0,0.0,0.0,0.0,0.0,-0.5512,0.0,0.0,0.0,0.0,0.0,0.0,0.0,0.0,0.0,0.0,0.0,0.0,0.0,0.0,0.0,0.0,0.0,0.0,0.0,0.0,0.0,0.0,0.0,0.0,-0.363,-0.3466,-0.3245,-0.2992,-0.2695,-0.2411,0.0,0.0,0.0,0.0,0.0,-0.3271,-0.3271,-0.3431,-0.3783,-0.3805,-0.3865,-0.3961,-0.3711,-0.309,-0.218,0.0,0.0,0.0,0.0,0.0,0.0,0.0,0.0,0.0,0.0,0.0,0.0,0.0,0.0,0.0,0.0,0.0,0.0,0.0,0.0,0.0,0.0,0.0,0.0,0.0,0.0,0.0,0.0,0.0,0.0,0.0,0.0,0.0,0.0,0.0,0.0,0.0,0.0,0.0,0.0,0.0,0.0,0.0,0.0,0.0,0.0,0.0,0.0,0.0,0.0,0.0,0.0,0.0,0.0,0.0,0.0,0.0,0.0,0.0,0.0,0.0,0.0,0.0,0.0,0.0,0.0,0.0,0.0,0.0,0.0,0.0,-0.6295,0.0,0.0,0.0,0.0,0.0,0.0,0.0,0.0,0.0,0.0,0.0,0.0,0.0,0.0,0.0,0.0,0.0,0.0,0.0,0.0,0.0,-0.3716,-0.386,-0.3857,-0.3791,-0.365,-0.3517,-0.3311,-0.2937,-0.303,0.0,0.0,0.0,-0.4019,-0.4061,-0.4156,-0.4269,-0.4385,-0.4719,-0.4979,-0.5124,-0.4658,-0.3991,-0.3165,-0.2608,0.0,0.0,0.0,0.0,0.0,0.0,0.0,0.0,0.0,0.0,0.0,0.0,0.0,0.0,0.0,0.0,0.0,0.0,0.0,0.0,0.0,0.0,0.0,0.0,0.0,0.0,0.0,0.0,0.0,0.0,0.0,0.0,0.0,0.0,0.0,0.0,0.0,0.0,0.0,0.0,0.0,0.0,0.0,0.0,0.0,0.0,0.0,0.0,0.0,0.0,0.0,0.0,0.0,0.0,0.0,0.0,0.0,0.0,0.0,0.0,0.0,0.0,0.0,-0.7664,-0.8804,-0.8804,-0.8804,-0.9061,-0.9459,-0.848,-0.8012,-0.8059,0.0,0.0,0.0,0.0,0.0,0.0,0.0,0.0,0.0,0.0,0.0,0.0,0.0,0.0,0.0,0.0,0.0,0.0,0.0,0.0,-0.3847,-0.3811,-0.3913,-0.3921,-0.3794,-0.3707,-0.3577,-0.3421,-0.3421,0.0,0.0,-0.3962,-0.4103,-0.4348,-0.4254,-0.4512,-0.5147,-0.5993,-0.6432,-0.6438,-0.6261,-0.6203,-0.6242,-0.4568,-0.4585,-0.5755,0.0,0.0,0.0,0.0,0.0,0.0,0.0,0.0,0.0,0.0,0.0,0.0,0.0,0.0,0.0,0.0,0.0,0.0,0.0,0.0,0.0,0.0,0.0,0.0,0.0,0.0,0.0,0.0,0.0,0.0,0.0,0.0,0.0,0.0,0.0,0.0,0.0,0.0,0.0,0.0,0.0,-0.2957,-0.212,0.0,0.0,0.0,0.0,0.0,0.0,0.0,0.0,0.0,0.0,0.0,0.0,0.0,-0.3756,-0.4275,-0.6743,-0.8076,-0.8262,-0.8646,-0.8804,-0.8804,-0.8804,-1.0079,-1.2353,-1.2186,0.0,-1.212,-1.2192,0.0,0.0,0.0,0.0,0.0,0.0,0.0,0.0,0.0,0.0,0.0,0.0,0.0,0.0,0.0,0.0,0.0,0.0,0.0,0.0,0.0,-0.4587,-0.4722,-0.4953,-0.4958,-0.4847,-0.4641,-0.4912,-0.4939,-0.4627,-0.4896,-0.5133,-0.5243,-0.5286,-0.5642,-0.6311,-0.6728,-0.707,-0.7317,-0.7265,-0.7541,-0.8045,-0.7253,-0.6957,-0.7031,-0.6518,0.0,0.0,0.0,0.0,0.0,0.0,0.0,0.0,0.0,0.0,0.0,0.0,0.0,0.0,0.0,0.0,0.0,0.0,0.0,0.0,0.0,0.0,0.0,0.0,0.0,0.0,0.0,0.0,0.0,0.0,0.0,0.0,0.0,0.0,0.0,0.0,0.0,0.0,0.0,-0.3609,-0.4578,-0.4707,-0.415,-0.3511,0.0,0.0,0.0,0.0,0.0,0.0,0.0,0.0,0.0,-0.6096,-0.6382,-0.6654,-0.6902,-0.815,-0.8804,-0.8818,-0.9479,-0.9793,-0.9793,-0.9793,-1.1485,-1.4307,-1.4307,-1.4307,-1.4228,-1.3271,-1.1992,-1.0478,0.0,0.0,0.0,0.0,-0.6446,-0.8023,0.0,0.0,0.0,0.0,0.0,0.0,0.0,0.0,0.0,0.0,0.0,0.0,-0.5048,-0.5208,-0.5473,-0.5971,-0.599,-0.5998,0.0,0.0,-0.6018,-0.5637,-0.5807,-0.5911,-0.5911,-0.6234,-0.67,-0.7266,-0.7572,-0.7904,-0.827,-0.8656,-0.9143,-0.9743,-1.0185,-0.9737,-0.8623,-0.8508,-0.8073,0.0,0.0,0.0,0.0,0.0,0.0,0.0,0.0,0.0,0.0,0.0,0.0,0.0,0.0,0.0,0.0,0.0,0.0,0.0,0.0,0.0,0.0,0.0,0.0,0.0,0.0,0.0,0.0,0.0,0.0,0.0,0.0,0.0,0.0,0.0,0.0,0.0,0.0,-0.4536,-0.5711,-0.6887,-0.5992,-0.4937,0.0,0.0,0.0,0.0,0.0,0.0,-0.4886,-0.5354,-0.6578,-0.8752,-0.8804,-0.8951,-0.9252,-0.9259,-0.9259,-0.9265,-1.014,-1.1052,-1.1841,-1.1841,-1.3114,-1.541,-1.541,-1.541,-1.5283,-1.3584,-1.2881,-1.2695,-1.0752,-0.9609,-0.8793,-0.6899,-0.7295,-0.8804,0.0,0.0,0.0,0.0,0.0,0.0,0.0,0.0,0.0,0.0,0.0,-0.4431,-0.5033,0.0,-0.5916,-0.6255,-0.6223,-0.6532,0.0,0.0,-0.6249,-0.6956,-0.628,-0.5911,-0.5911,-0.6664,-0.7256,-0.7666,-0.8892,-0.9469,-0.9554,-1.0946,-1.1606,-1.1718,-1.3207,-1.2954,-1.1425,-1.0239,-0.9903,-1.0048,0.0,0.0,0.0,0.0,0.0,0.0,0.0,0.0,0.0,0.0,0.0,0.0,0.0,0.0,0.0,0.0,0.0,0.0,0.0,0.0,0.0,0.0,0.0,0.0,0.0,0.0,0.0,0.0,0.0,0.0,0.0,0.0,0.0,0.0,0.0,0.0,0.0,0.0,0.0,-0.6887,-0.5992,0.0,0.0,0.0,0.0,-0.3574,-0.4089,-0.5614,-0.839,-0.8554,-0.8646,-0.8804,-0.8804,-0.9345,-1.0524,-1.0537,-1.0537,-1.0537,-1.0598,-1.2205,-1.5167,-1.5167,-1.5225,-1.541,-1.541,-1.541,-1.5283,-1.3584,-1.2881,-1.2871,-1.2734,-1.2666,-1.232,-0.9627,-0.8704,-0.8804,0.0,0.0,0.0,-0.3991,-0.3899,-0.378,-0.363,-0.3863,-0.4215,-0.4678,-0.5027,-0.5533,0.0,-0.6547,-0.6974,-0.7772,-0.7819,-0.7947,-0.8252,0.0,-0.7505,-0.7612,-0.6753,-0.6522,-0.7057,-0.7338,-0.8115,-0.9375,-1.022,-1.094,-1.1469,-1.2403,-1.3002,-1.3299,-1.3844,-1.3973,-1.3665,-1.2497,-1.1886,-1.1511,-0.9745,-0.8502,0.0,0.0,0.0,0.0,0.0,0.0,0.0,0.0,0.0,0.0,0.0,0.0,0.0,0.0,0.0,0.0,0.0,0.0,0.0,0.0,0.0,0.0,0.0,0.0,0.0,0.0,0.0,0.0,0.0,0.0,0.0,0.0,0.0,0.0,0.0,0.0,0.0,-0.8123,-0.7121,0.0,0.0,-0.6172,-0.575,-0.6847,-0.7141,-0.7717,-0.8752,-0.8804,-0.9152,-0.9913,-0.9933,-1.0134,-1.0618,-1.0624,-1.0624,-1.0624,-1.2687,-1.4314,-1.541,-1.541,-1.541,-1.541,-1.541,-1.541,-1.5361,-1.4766,-1.4512,-1.4512,-1.4512,-1.4512,-1.4392,-1.3412,-1.3076,-1.3076,-0.4367,-0.4221,0.0,-0.3955,-0.3862,-0.3725,-0.3525,-0.3886,-0.4363,-0.4922,-0.5494,-0.615,-0.701,-0.7327,-0.7813,-0.8622,-0.8658,-0.8682,-0.8826,0.0,-0.8221,-0.8044,-0.737,-0.7314,-0.7966,-0.842,-0.9399,-1.084,-1.1566,-1.2247,-1.2826,-1.3576,-1.4099,-1.4425,-1.4768,-1.511,-1.5367,-1.445,-1.3634,-1.2831,-1.1349,-1.0123,-0.9057,0.0,0.0,0.0,0.0,0.0,0.0,0.0,0.0,0.0,0.0,0.0,0.0,0.0,0.0,0.0,0.0,0.0,0.0,0.0,0.0,0.0,0.0,0.0,0.0,0.0,0.0,0.0,0.0,0.0,0.0,0.0,0.0,0.0,0.0,0.0,-0.8731,-0.853,-0.7989,-0.7776,-0.8163,-0.7154,-0.7121,-0.8691,-0.8804,-0.8978,-0.9379,-0.9399,-0.976,-1.0598,-1.0624,-1.1108,-1.2205,-1.2205,-1.2205,-1.2266,-1.4382,-1.541,-1.541,-1.541,-1.5732,-1.6289,-1.6289,-1.6289,-1.6289,-1.6289,-1.6289,-1.623,-1.5644,-1.541,-1.541,-1.541,-1.541,-1.541,-0.4482,-0.4281,-0.4067,-0.4015,-0.3884,-0.3725,-0.3517,-0.3737,-0.417,-0.4896,-0.552,-0.6234,-0.7051,-0.7784,-0.8338,-0.8706,-0.8597,-0.8694,-0.9102,-0.8587,-0.8286,-0.8302,-0.8167,-0.8233,-0.8602,-0.9928,-1.1078,-1.1977,-1.2952,-1.3481,-1.3504,-1.4529,-1.5031,-1.5097,-1.6058,-1.6522,-1.6484,-1.5957,-1.5142,-1.406,-1.2906,-1.1902,-1.0747,0.0,0.0,0.0,0.0,0.0,0.0,0.0,0.0,0.0,0.0,0.0,0.0,0.0,0.0,0.0,0.0,0.0,0.0,0.0,0.0,0.0,0.0,0.0,0.0,0.0,0.0,0.0,0.0,0.0,0.0,0.0,0.0,0.0,-0.8644,-0.8804,-0.8597,-0.7975,-0.8457,-0.8363,-0.7241,-0.8183,-0.8864,-0.8864,-0.8864,-0.9359,-1.0564,-1.0681,-1.0744,-1.0744,-1.0744,-1.2282,-1.543,-1.5488,-1.5488,-1.5488,-1.5488,-1.5488,-1.5488,-1.5488,-1.6416,-1.8008,-1.8008,-1.8008,-1.8008,-1.8008,-1.8008,-1.7842,-1.6152,-1.5488,-1.5488,-1.543,-1.541,-1.541,-0.446,-0.4208,-0.3956,-0.3933,-0.3773,-0.3555,-0.3259,-0.3888,-0.4518,-0.4805,-0.5592,-0.6594,-0.7822,-0.8149,-0.8618,-0.9504,-0.9181,-0.9144,-0.9654,-0.8402,-0.7875,-0.8429,-0.9186,-1.0025,-1.0934,-1.1359,-1.2193,-1.3501,-1.4234,-1.4719,-1.4987,-1.5715,-1.6113,-1.6113,-1.6361,-1.6522,-1.6509,-1.6358,-1.612,-1.5706,-1.4249,-1.3207,-1.2409,0.0,0.0,0.0,0.0,0.0,0.0,0.0,0.0,0.0,0.0,0.0,0.0,0.0,0.0,0.0,0.0,0.0,0.0,0.0,0.0,0.0,0.0,0.0,0.0,0.0,0.0,0.0,0.0,0.0,0.0,0.0,0.0,-1.0723,-0.9013,-0.8804,-0.8751,-0.8584,-0.8711,-0.9011,-0.9532,-0.9886,-1.0141,-1.0141,-1.0141,-1.0221,-1.0604,-1.281,-1.4076,-1.4076,-1.4076,-1.5133,-1.7285,-1.7295,-1.7295,-1.7295,-1.7295,-1.7295,-1.7295,-1.7295,-1.7559,-1.8008,-1.8008,-1.8008,-1.8008,-1.8008,-1.8008,-1.7959,-1.748,-1.7295,-1.7139,-1.5879,-1.541,-1.541,-0.4391,-0.4133,-0.3898,-0.3855,-0.3696,-0.3457,-0.3145,-0.395,-0.4656,-0.479,-0.5913,-0.7056,-0.8001,-0.8366,-0.8796,-0.9422,-0.9465,-0.9325,-0.9024,-0.8442,-0.8455,-0.9179,0.0,-1.1491,-1.2211,-1.2864,-1.3713,-1.4754,-1.5362,-1.5758,-1.5996,-1.6337,-1.6522,-1.6522,-1.6522,-1.6522,-1.6522,-1.6522,-1.6522,-1.6434,-1.5467,-1.4902,-1.44,-1.2868,-1.1864,-1.127,-1.127,-1.0456,-0.9366,-0.9366,0.0,0.0,0.0,0.0,0.0,0.0,0.0,0.0,0.0,0.0,0.0,0.0,0.0,0.0,0.0,0.0,0.0,0.0,0.0,0.0,0.0,0.0,0.0,0.0,-1.124,-1.3265,-1.128,-1.0629,-0.9925,-0.893,-0.9025,-0.9539,-1.053,-1.0624,-1.0624,-1.0624,-1.1841,-1.2626,-1.2626,-1.5093,-1.6504,-1.6504,-1.6504,-1.6992,-1.7998,-1.8008,-1.8008,-1.8008,-1.8008,-1.8008,-1.8008,-1.8008,-1.8008,0.0,-1.8008,-1.8008,-1.8008,-1.8008,-1.8008,0.0,0.0,0.0,0.0,0.0,-1.6504,-1.6504,-0.4308,-0.4093,-0.3869,-0.3811,-0.3634,-0.3425,-0.3145,-0.395,-0.4656,-0.4804,0.0,-0.7446,-0.7804,-0.8422,-0.8839,-0.8887,-0.946,-0.9308,0.0,-0.8838,0.0,-1.0317,-1.1766,-1.2698,-1.2949,-1.4368,-1.5335,-1.5781,-1.6283,-1.6522,-1.6522,-1.6522,-1.6522,-1.6522,-1.6522,-1.6522,-1.6522,-1.6522,-1.6522,-1.6522,-1.6522,-1.6522,-1.6308,-1.4312,-1.3574,-1.3574,-1.3574,-1.3411,-1.3198,-1.3198,0.0,0.0,0.0,0.0,0.0,0.0,0.0,0.0,0.0,0.0,0.0,0.0,0.0,0.0,0.0,0.0,0.0,0.0,0.0,0.0,0.0,0.0,0.0,0.0,-1.2645,-1.5039,-1.4321,-1.3364,-1.1811,-0.9472,-0.9862,-1.0562,-1.1121,-1.1108,-1.1108,-1.1108,-1.4004,-1.5703,-1.5703,0.0,0.0,0.0,0.0,-1.8008,-1.8008,-1.8008,-1.8008,-1.8008,-1.8008,-1.8008,-1.8008,-1.8008,-1.8008,-1.8008,-1.8008,-1.8008,-1.8008,-1.8008,-1.8008,-1.8008,-1.8008,-1.8008,-1.8008,-1.8008,-1.8008,-1.8008,-0.4316,-0.4093,-0.3869,-0.3811,-0.3675,-0.3468,-0.3154,-0.395,-0.4698,-0.4998,-0.6038,-0.707,-0.7951,-0.8168,-0.8428,-0.8866,-0.9124,-0.9254,0.0,0.0,-1.0959,-1.1298,-1.2448,-1.3504,-1.445,-1.5172,-1.5824,-1.6358,-1.6471,-1.6522,-1.6522,-1.6522,-1.6522,-1.6522,-1.6522,-1.6522,-1.6522,-1.6522,-1.6522,-1.6522,-1.6522,-1.6522,-1.6471,-1.6003,-1.584,-1.584,-1.584,-1.4701,-1.3198,-1.3198,-1.3198,-1.3048,-1.2196,0.0,0.0,0.0,0.0,0.0,0.0,0.0,0.0,0.0,0.0,0.0,0.0,0.0,0.0,0.0,0.0,0.0,0.0,0.0,0.0,-1.2159,-1.3347,-1.4561,-1.5088,-1.4656,-1.3617,-1.1707,-1.3151,-1.4326,-1.4483,-1.4501,-1.4501,-1.4501,-1.6383,-1.751,-1.751,-1.7822,0.0,-1.8008,-1.8008,-1.8008,-1.8008,-1.8008,-1.8008,-1.8008,0.0,0.0,-1.8008,-1.8008,-1.8008,-1.8008,-1.8008,-1.8008,-1.8008,-1.8008,-1.8008,-1.8008,-1.8008,-1.8008,-1.8008,-1.8008,-1.8008,-1.8008,-0.431,-0.4111,-0.3918,-0.3862,-0.3689,-0.3482,-0.3281,-0.4282,-0.5122,-0.5278,-0.6492,-0.7541,-0.8043,-0.8181,-0.8314,-0.8474,-0.8678,0.0,0.0,-1.0907,-1.1638,-1.2625,-1.3793,-1.4823,-1.557,-1.6165,-1.6625,-1.6909,-1.6637,-1.6522,-1.6522,-1.6522,-1.6522,-1.6522,-1.6522,-1.6522,-1.6522,-1.6522,-1.6522,-1.6522,-1.6522,-1.6522,-1.6522,-1.6522,-1.6522,-1.6522,-1.6522,-1.5454,-1.3961,-1.3386,-1.3198,-1.3198,-1.3198,-1.2434,-1.1249,0.0,0.0,0.0,0.0,0.0,0.0,0.0,0.0,0.0,0.0,0.0,0.0,0.0,0.0,-1.0566,0.0,0.0,-1.3154,-1.4004,-1.4502,-1.4922,-1.5352,-1.5234,-1.4336,-1.2329,-1.4079,-1.541,-1.541,-1.6201,-1.6709,-1.6709,-1.7519,-1.8008,-1.8008,-1.8008,-1.8008,-1.8008,-1.8008,-1.8008,-1.8008,-1.8008,-1.8008,-1.8008,-1.8008,-1.8008,-1.8008,-1.8008,-1.8008,-1.8008,-1.8008,-1.8008,-1.8008,-1.8008,-1.8008,-1.8008,-1.8008,-1.8008,-1.8008,-1.8008,-1.8008,-1.8008,-0.4351,-0.4195,-0.4022,-0.3912,-0.372,-0.3544,-0.3452,-0.4629,-0.5542,-0.5587,-0.7061,-0.8102,-0.8158,-0.8293,-0.8369,0.0,0.0,0.0,0.0,-1.155,-1.2265,-1.3774,-1.5128,-1.5914,-1.6154,-1.6903,-1.7229,-1.7146,-1.671,-1.6522,-1.6522,-1.6522,-1.6522,-1.6522,-1.6522,-1.6522,-1.6522,-1.6595,-1.668,-1.668,-1.668,-1.6595,-1.6522,-1.6522,-1.6522,-1.6522,-1.6522,-1.5944,-1.499,-1.3636,-1.3198,-1.3198,-1.3198,-1.3198,-1.2822,-1.0881,-1.0232,0.0,0.0,0.0,0.0,0.0,0.0,0.0,0.0,0.0,-1.2881,-1.2881,-1.2881,-1.2988,-1.3311,-1.3369,-1.3818,-1.5186,-1.541,-1.541,-1.541,-1.541,-1.4744,-1.2937,-1.4287,-1.541,-1.541,-1.6992,-1.8008,-1.8008,-1.8008,-1.8008,-1.8008,-1.8008,-1.8008,-1.8008,-1.8008,-1.8008,-1.8008,-1.8008,-1.8008,-1.8008,-1.8008,-1.8008,-1.8008,-1.8008,-1.8193,-1.8506,-1.8506,-1.8506,-1.8506,-1.8506,-1.8506,-1.8477,-1.8135,-1.8008,-1.8008,-1.8008,-1.8008,-1.8008,-0.449,-0.4369,-0.4192,-0.3933,-0.3884,-0.3788,-0.3612,-0.4775,-0.5731,-0.5918,-0.7203,-0.8171,-0.8348,-0.8387,-0.8562,0.0,0.0,0.0,0.0,-1.2659,-1.3417,-1.4381,-1.5586,-1.601,-1.5583,-1.6718,-1.7076,-1.6595,-1.6522,-1.6522,-1.6522,-1.6522,-1.6522,-1.6522,-1.6522,-1.6522,-1.6522,-1.6993,-1.7188,-1.7188,-1.7188,-1.6909,-1.6522,-1.6522,-1.6522,-1.6522,-1.6522,-1.6434,-1.6019,-1.3899,-1.3198,-1.3198,-1.3198,-1.3198,-1.3023,-1.2121,0.0,-1.091,-1.1111,-1.1447,-1.1878,-1.2307,-1.2047,-1.2047,0.0,0.0,-1.2881,-1.2881,-1.2881,-1.334,-1.4853,-1.5127,-1.5195,-1.5381,-1.541,-1.541,-1.541,-1.541,-1.5323,-1.5042,-1.5235,-1.541,-1.541,-1.6992,-1.8008,-1.8008,-1.8008,-1.8008,-1.8008,-1.8008,-1.8008,-1.8008,-1.8008,-1.8008,-1.8008,-1.8008,-1.8008,-1.8008,-1.8008,-1.8008,-1.8008,-1.8008,-1.8838,-2.0283,-2.0283,-2.0283,-2.0283,-2.0283,-2.0283,-2.0127,-1.8603,-1.8008,-1.8008,-1.8008,-1.8008,-1.8008,-0.4506,-0.4454,-0.4361,-0.4166,-0.3996,-0.3905,-0.3939,-0.504,-0.5981,-0.6307,-0.7577,-0.8497,-0.8672,-0.8513,-0.8527,-0.8829,-0.9494,-1.0364,-1.1487,-1.2584,-1.3651,-1.4645,-1.6013,-1.6613,-1.6332,-1.7254,-1.7504,-1.6951,-1.6637,-1.668,-1.6951,-1.6951,-1.7105,-1.7422,-1.7422,-1.7422,-1.7463,-1.7666,-1.7787,-1.7787,-1.7787,-1.7626,-1.7353,-1.6752,-1.6522,-1.6522,-1.6522,-1.5652,0.0,0.0,-1.2672,-1.3198,-1.3198,-1.2897,-1.2504,-1.2203,-1.2203,0.0,-1.3265,-1.2805,0.0,0.0,-1.3122,-1.293,-1.332,-1.3896,-1.4355,-1.4355,-1.4355,-1.457,-1.5283,-1.541,-1.541,0.0,-1.541,-1.5762,-1.6777,-1.6924,-1.6553,-1.5537,-1.541,-1.541,-1.541,-1.6992,-1.8008,-1.8008,-1.8008,-1.8008,-1.8008,-1.8477,-1.875,-1.875,-1.875,-1.8994,-1.9492,-1.9492,-1.9492,-1.9492,-1.9492,-1.9492,-1.9492,-1.9492,-1.9883,-2.0566,-2.0566,-2.0566,-2.0566,-2.0566,-2.0566,-2.0498,-1.9775,-1.9492,-1.9492,-1.9492,-2.0153,-2.0816,-0.4527,-0.4515,-0.4476,-0.4373,-0.4153,-0.4024,-0.4159,-0.5275,-0.622,-0.6508,-0.7833,-0.8794,-0.888,-0.8648,-0.8542,-0.8693,-0.9297,-1.0094,-1.1047,-1.2177,-1.341,-1.4752,-1.6067,0.0,-1.6904,-1.7655,-1.7848,-1.7504,-1.7105,-1.7146,-1.7504,-1.7504,-1.7747,-1.8106,-1.8106,-1.8106,-1.8106,-1.8263,-1.8341,-1.8341,-1.8341,-1.819,-1.7949,-1.7205,-1.6728,-1.6337,-1.58,-1.455,0.0,0.0,-1.1613,-1.2722,-1.2559,-1.2266,-1.2015,-1.2316,-1.2982,-1.3728,-1.4187,0.0,0.0,-1.3543,-1.3841,-1.3857,-1.3437,-1.4238,-1.5127,-1.5361,-1.541,-1.541,-1.541,-1.541,0.0,-1.541,-1.5811,-1.6572,-1.7832,-1.8008,-1.768,-1.6728,-1.662,-1.662,-1.662,-1.7473,-1.8008,-1.8008,-1.8008,-1.8115,-1.835,-1.8955,-1.9394,-1.9629,-1.9639,-1.9941,-2.0557,-2.0566,-2.0566,-2.0566,-2.0566,-2.0566,-2.0566,-2.0566,-2.0566,-2.0644,-2.1745,-2.1603,-2.0712,-2.1745,-2.2264,-2.2264,-2.2264,-2.2264,-2.2264,-2.2264,-2.2425,-2.2536,-0.4596,-0.4553,-0.4499,-0.4494,-0.432,-0.4179,-0.4116,-0.54,-0.6394,-0.6403,-0.7869,-0.8891,-0.8891,-0.8771,-0.8693,-0.8705,-0.8959,-0.9696,-1.1001,-1.1565,-1.2732,-1.4707,-1.5456,-1.6155,-1.6875,-1.7569,-1.7978,-1.8066,-1.8066,-1.8066,-1.8066,-1.8066,-1.8066,-1.8106,-1.8106,-1.8106,-1.8145,-1.865,-1.8893,-1.8893,-1.8893,-1.8481,-1.7934,-1.7988,-1.726,-1.5892,-1.398,0.0,0.0,0.0,-0.9843,-1.1538,-1.0957,-1.1173,0.0,-1.2847,-1.3923,0.0,0.0,0.0,-1.3973,-1.3611,-1.4067,-1.4586,-1.4566,-1.4336,-1.435,-1.5244,-1.541,-1.541,-1.541,-1.541,-1.541,-1.541,-1.6826,-1.7949,-1.8008,-1.8008,-1.8415,-1.9511,-1.9695,-1.9695,0.0,-1.8682,-1.8008,-1.8008,-1.8008,-1.8369,-1.9209,-1.9277,-1.9668,-2.0498,-2.0527,-2.0537,-2.0566,-2.0566,-2.0566,-2.0566,-2.0566,-2.0566,-2.0566,-2.0566,-2.0566,-2.0789,-2.4684,-2.4169,-2.0934,-2.4755,-2.6302,-2.6302,-2.6302,-2.6302,-2.6302,-2.6302,-2.4377,-2.168,-0.4601,-0.4553,-0.4499,-0.4499,-0.4373,-0.4255,-0.424,-0.5383,-0.6332,-0.6508,-0.7926,0.0,0.0,0.0,0.0,0.0,-0.9122,-0.9483,-0.9938,-1.1247,-1.2251,-1.2777,-1.4734,-1.5743,-1.5659,-1.6689,-1.7071,-1.6756,-1.6756,-1.7186,-1.7964,-1.7964,-1.8378,-1.9169,-1.9169,-1.9169,-1.9169,-1.9369,-1.9442,-1.9413,-1.8933,-1.8638,-1.8381,-1.7987,-1.7553,-1.6731,0.0,0.0,0.0,0.0,-1.0182,0.0,-1.1274,0.0,0.0,-1.3345,0.0,0.0,0.0,0.0,-1.433,-1.4934,-1.4894,-1.4785,-1.5059,-1.5049,-1.5068,-1.5352,-1.541,-1.541,-1.541,-1.541,-1.541,-1.541,-1.8796,-2.0568,-1.8327,-1.9933,-2.1009,-1.9905,-1.9067,0.0,0.0,0.0,0.0,-1.8008,-1.8369,-1.8662,-1.8848,-1.9394,-1.9834,-2.0127,-2.041,-2.0566,-2.0566,-2.0566,-2.0566,-2.0566,-2.0566,-2.0566,-2.0566,-2.0566,-2.0566,-2.0634,-2.2038,-2.3294,-2.4612,-2.5943,-2.6533,-2.6533,-2.6533,-2.6533,-2.6533,-2.6533,-2.5795,-2.4692,-0.4567,-0.4537,-0.4499,-0.4499,-0.4385,0.0,0.0,0.0,0.0,0.0,0.0,0.0,0.0,0.0,0.0,0.0,0.0,-0.9211,-0.9396,-1.0362,-1.1137,-1.1593,-1.3075,-1.4065,-1.44,-1.5079,-1.5506,-1.5642,-1.5642,-1.6151,-1.7165,-1.735,-1.7905,-1.8657,-1.9046,-1.9226,-1.9226,-1.9226,-1.9226,-1.9151,-1.8328,-1.7864,-1.7655,-1.7682,-1.7399,0.0,0.0,0.0,0.0,0.0,0.0,0.0,0.0,0.0,0.0,0.0,0.0,-1.5006,0.0,-1.6018,-1.5571,-1.6299,-1.6307,-1.6071,-1.5965,-1.5749,-1.5499,-1.5429,-1.4932,-1.4765,-1.5638,-1.5786,-1.6063,-1.6838,-2.0416,-2.2298,-2.0128,-2.0632,-2.073,-1.9345,-1.8729,0.0,0.0,0.0,0.0,-1.8027,-1.8555,-1.8887,-1.8867,-1.9531,-1.999,-2.0137,-2.042,-2.0566,-2.0566,-2.0566,-2.0566,-2.0566,-2.0566,-2.0566,-2.0566,-2.0566,-2.0566,-2.0644,-2.2113,-2.4169,-2.6533,-2.6533,-2.6533,-2.6533,-2.6533,-2.6533,-2.6533,-2.6533,-2.6533,-2.6308,-0.4511,-0.4504,-0.4505,0.0,0.0,0.0,0.0,0.0,0.0,0.0,0.0,0.0,0.0,0.0,0.0,0.0,0.0,0.0,-0.9302,0.0,0.0,-1.108,-1.0713,-1.1307,-1.3121,-1.2873,-1.3361,-1.4633,-1.4633,-1.5004,-1.5664,-1.6264,-1.6577,-1.6652,-1.7792,-1.8317,-1.8377,-1.8362,-1.8317,-1.8197,-1.716,-1.6383,-1.5918,-1.6997,0.0,0.0,0.0,0.0,0.0,0.0,0.0,0.0,0.0,0.0,0.0,0.0,0.0,-1.6527,-1.7086,-1.7402,-1.7583,-1.7684,-1.8073,-1.8127,-1.7113,-1.6341,-1.5771,-1.5464,-1.4155,-1.3724,0.0,0.0,-1.7237,-1.9447,-2.1562,-2.2882,-2.2932,-2.0172,-1.8076,0.0,0.0,0.0,0.0,0.0,0.0,-1.8115,0.0,-1.9023,-1.9307,-1.9727,-2.0137,-2.0557,-2.0566,-2.0566,-2.0566,-2.0566,-2.0566,-2.0566,-2.0566,-2.0566,-2.0566,-2.0566,-2.0566,-2.0789,-2.4755,-2.6533,-2.6533,-2.6533,-2.6533,-2.6533,-2.6533,-2.6533,-2.6533,-2.6533,-2.6533,-2.6445,0.0,0.0,0.0,0.0,0.0,0.0,0.0,0.0,0.0,0.0,0.0,0.0,0.0,0.0,0.0,0.0,0.0,0.0,0.0,0.0,0.0,0.0,0.0,0.0,-1.1213,-1.1622,0.0,0.0,0.0,-1.2897,-1.358,-1.4229,-1.4905,0.0,-1.6373,-1.7136,-1.7864,-1.7837,-1.7289,-1.6533,0.0,-1.6787,-1.5619,0.0,0.0,0.0,0.0,0.0,0.0,0.0,0.0,0.0,0.0,0.0,-1.5079,0.0,0.0,-1.7254,-1.8695,-1.8679,-1.8382,-1.8943,-1.8767,-1.8182,-1.709,-1.67,-1.647,-1.5977,-1.5257,-1.5141,-1.6313,0.0,0.0,-1.9447,-1.9877,0.0,-2.1123,-1.9954,0.0,0.0,0.0,-1.9619,-1.9619,-1.9355,0.0,0.0,-1.9102,-1.9346,-1.9736,-2.0166,-2.0449,-2.0634,-2.0566,-2.0566,-2.0566,-2.0566,-2.0566,-2.0566,-2.0566,-2.0566,-2.0566,-2.0566,-2.0566,-2.0789,-2.4755,-2.6533,-2.6533,-2.6533,-2.6533,-2.6533,-2.6533,-2.6533,-2.6533,-2.6533,-2.6533,-2.6508,0.0,0.0,0.0,0.0,0.0,0.0,0.0,0.0,0.0,0.0,0.0,0.0,0.0,0.0,0.0,0.0,0.0,0.0,0.0,0.0,0.0,0.0,0.0,0.0,0.0,-0.9503,0.0,0.0,0.0,0.0,0.0,-1.1915,-1.2494,-1.3041,-1.401,-1.5145,-1.6264,0.0,0.0,0.0,0.0,0.0,0.0,0.0,0.0,0.0,0.0,0.0,0.0,0.0,0.0,-1.4412,-1.4965,-1.568,-1.6497,-1.7363,0.0,-1.8545,-1.9833,-2.0025,-1.9889,-2.0079,-1.9877,-1.9294,-1.8331,-1.7792,-1.7485,-1.7655,-1.635,0.0,-1.3803,0.0,0.0,0.0,0.0,0.0,-1.975,-1.9813,-1.9656,0.0,-1.9531,0.0,-1.9814,-1.9658,-1.9648,0.0,-1.9668,-1.9668,-1.9902,-2.0332,-2.0566,-2.0566,-2.0566,-2.0566,-2.0566,-2.0566,-2.0566,-2.0566,-2.0566,-2.0566,-2.0566,-2.0566,-2.1527,-2.3283,0.0,-2.6533,-2.6533,-2.6533,-2.6533,-2.6533,-2.6533,-2.6533,-2.6533,-2.6533,-2.6533,-2.6533,0.0,0.0,0.0,0.0,0.0,0.0,0.0,0.0,0.0,0.0,0.0,0.0,0.0,0.0,0.0,0.0,0.0,0.0,0.0,0.0,0.0,0.0,0.0,0.0,0.0,0.0,0.0,0.0,0.0,0.0,0.0,0.0,0.0,0.0,0.0,0.0,0.0,0.0,0.0,0.0,0.0,0.0,0.0,0.0,0.0,0.0,0.0,0.0,0.0,0.0,-1.4425,-1.6007,-1.6484,-1.74,-1.8405,-1.8833,-1.9397,-1.9936,-2.0539,-2.1091,-2.1443,-2.1224,-2.1074,-2.0749,-1.9987,-1.8744,-1.8025,-1.8854,0.0,-1.3547,-1.085,0.0,-1.5169,-1.6446,0.0,-2.0253,-1.8848,-1.9592,-2.0014,-1.9069,-1.957,-2.0,-2.0,-2.0,-2.0156,-2.0537,-2.0215,-2.0,-2.0,-2.0361,-2.0566,-2.0566,-2.0566,-2.0566,-2.0566,-2.0566,-2.0566,-2.0566,-2.0566,-2.0566,-2.0566,-2.0566,-2.2776,-2.6533,0.0,0.0,-2.6533,-2.6533,-2.6533,-2.6533,-2.6533,-2.6533,-2.6533,-2.6533,-2.6533,-2.6533,0.0,0.0,0.0,0.0,0.0,0.0,0.0,0.0,0.0,0.0,-0.9439,-0.9593,0.0,0.0,0.0,0.0,0.0,0.0,0.0,0.0,0.0,0.0,0.0,0.0,0.0,0.0,0.0,0.0,0.0,0.0,0.0,0.0,0.0,0.0,0.0,0.0,0.0,0.0,0.0,0.0,0.0,0.0,0.0,0.0,0.0,0.0,0.0,0.0,0.0,0.0,-1.4952,-1.7099,-1.72,-1.799,-1.8907,-1.8945,-1.9397,-1.9962,-2.0648,-2.1192,-2.1694,-2.2477,-2.2071,-2.1117,-2.0049,-1.7551,0.0,0.0,0.0,-1.1801,-1.2513,-1.3411,0.0,-1.7043,0.0,0.0,0.0,0.0,-1.9011,0.0,0.0,0.0,0.0,0.0,0.0,0.0,0.0,-2.0449,-2.0449,-2.0527,-2.0566,-2.0566,-2.0566,-2.0566,-2.0566,-2.0566,-2.0566,-2.0566,-2.0566,-2.0566,-2.0566,-2.0566,-2.2776,-2.6533,-2.6533,0.0,-2.6533,-2.6533,-2.6533,-2.6533,-2.6533,-2.6533,-2.6533,-2.6533,-2.6533,-2.6533,0.0,0.0,0.0,0.0,0.0,0.0,0.0,-0.7957,-0.8824,-0.8981,-0.9293,-0.9439,-0.9321,-0.9228,0.0,0.0,0.0,0.0,0.0,0.0,0.0,0.0,0.0,0.0,0.0,0.0,0.0,0.0,0.0,0.0,0.0,0.0,0.0,0.0,0.0,0.0,0.0,0.0,0.0,0.0,0.0,0.0,0.0,0.0,0.0,0.0,0.0,0.0,0.0,0.0,-1.4698,-1.7969,-1.7632,-1.8395,-1.9368,-1.9079,-1.9635,-2.0476,-2.0781,-2.1575,-2.2472,-2.294,-2.2736,-2.1292,-1.73,0.0,0.0,0.0,0.0,-1.1055,-1.1433,0.0,0.0,0.0,0.0,0.0,0.0,0.0,0.0,0.0,0.0,0.0,0.0,0.0,0.0,0.0,0.0,-2.0566,-2.0566,-2.0566,-2.0566,-2.0566,-2.0566,-2.0566,-2.0566,-2.0566,-2.0566,-2.0566,-2.0566,-2.0566,-2.0634,-2.2702,-2.4696,-2.6533,-2.6533,0.0,-2.6533,-2.6533,-2.6533,-2.6533,-2.6533,-2.6533,-2.6533,-2.6533,-2.6533,-2.6533,0.0,0.0,0.0,0.0,0.0,0.0,0.0,-0.7724,-0.8486,-0.8857,-0.9129,-0.9284,-0.9218,-0.9139,-0.9019,0.0,0.0,0.0,0.0,0.0,0.0,0.0,0.0,0.0,0.0,0.0,0.0,0.0,0.0,0.0,0.0,0.0,0.0,0.0,0.0,0.0,0.0,0.0,0.0,0.0,0.0,0.0,0.0,0.0,0.0,0.0,0.0,0.0,0.0,0.0,-1.3785,-1.7086,-1.6767,-1.8034,-1.9566,-1.9127,-1.978,-2.0677,-2.0633,-2.1663,-2.2786,-2.2786,-2.2422,-2.0536,-1.4851,-1.1914,0.0,0.0,0.0,-1.0718,-1.0262,0.0,0.0,0.0,0.0,0.0,0.0,0.0,0.0,0.0,0.0,0.0,0.0,0.0,0.0,0.0,0.0,0.0,-2.0566,-2.0566,-2.0566,-2.0566,-2.0566,-2.0566,-2.0566,-2.0566,-2.0566,-2.0566,-2.0566,-2.1011,-2.1973,-2.5052,-2.6533,-2.6533,-2.6533,0.0,0.0,-2.6533,-2.6533,-2.6533,-2.6533,-2.6533,-2.6533,-2.6533,-2.6533,-2.6533,0.0,0.0,0.0,0.0,0.0,0.0,0.0,-0.8206,-0.9119,-0.8918,-0.9129,-0.9199,-0.8968,-0.9043,-0.9019,0.0,0.0,0.0,0.0,0.0,0.0,0.0,0.0,0.0,0.0,0.0,0.0,0.0,0.0,0.0,0.0,0.0,0.0,0.0,0.0,0.0,0.0,0.0,0.0,0.0,0.0,0.0,0.0,0.0,0.0,0.0,0.0,0.0,0.0,0.0,0.0,-1.2594,-1.35,-1.6227,-1.9048,-1.9009,0.0,0.0,-1.9886,-2.0752,-2.1644,-2.1644,-2.0137,-1.7965,-1.5329,0.0,0.0,0.0,-1.0965,-1.0571,-1.1004,-1.1266,0.0,0.0,0.0,0.0,0.0,0.0,0.0,0.0,0.0,0.0,0.0,0.0,0.0,0.0,0.0,0.0,-2.0566,-2.0566,-2.0566,-2.0566,-2.0566,-2.0566,-2.0566,-2.0566,-2.0566,-2.0566,-2.0566,-2.2478,-2.5943,-2.6314,-2.6533,-2.6533,-2.6533,0.0,0.0,-2.6533,-2.6533,-2.6533,-2.6533,-2.6533,-2.6533,-2.6533,-2.6533,-2.6533,0.0,0.0,0.0,0.0,0.0,0.0,-0.7027,-0.8259,-0.9139,-0.9043,-0.9054,-0.9036,-0.9033,-0.9001,-0.8863,0.0,0.0,0.0,0.0,0.0,0.0,0.0,0.0,0.0,0.0,0.0,0.0,0.0,0.0,0.0,0.0,0.0,0.0,0.0,0.0,0.0,0.0,0.0,0.0,0.0,0.0,0.0,0.0,0.0,0.0,0.0,0.0,0.0,0.0,0.0,0.0,0.0,-1.3915,-1.5513,0.0,0.0,-1.8187,-1.9231,-1.9661,-2.0125,-2.0476,-2.0476,-1.9334,-1.7677,-1.5668,0.0,-1.2014,-1.1686,-1.0816,-1.0161,-1.0379,-1.0672,-1.1445,0.0,-1.3173,-1.3599,0.0,0.0,0.0,0.0,0.0,0.0,0.0,0.0,0.0,0.0,0.0,0.0,-2.0566,-2.0566,-2.0867,-2.1441,-2.168,-2.1385,-2.0644,-2.1745,-2.2925,-2.4169,-2.4169,-2.4981,-2.6533,-2.6533,-2.6533,-2.6533,-2.6533,0.0,0.0,-2.6533,-2.6533,-2.6533,-2.6533,-2.6533,-2.6533,-2.6533,-2.6533,-2.6533,0.0,0.0,0.0,0.0,0.0,-0.6863,-0.7079,-0.8115,-0.8924,-0.9081,-0.9047,-0.9033,-0.9043,-0.894,-0.8761,-0.8517,0.0,0.0,0.0,0.0,0.0,0.0,0.0,0.0,0.0,0.0,0.0,0.0,0.0,0.0,0.0,0.0,0.0,0.0,0.0,0.0,0.0,0.0,0.0,0.0,0.0,0.0,0.0,0.0,0.0,0.0,0.0,0.0,0.0,0.0,0.0,0.0,0.0,0.0,0.0,0.0,-1.7008,-1.8122,-1.89,-1.9208,-1.9334,-1.9334,-1.8643,-1.7488,0.0,0.0,-1.2215,-1.1487,-1.0571,-0.9905,-0.9905,-1.0357,-1.1069,0.0,-1.2522,-1.3071,-1.4317,0.0,0.0,0.0,0.0,0.0,0.0,0.0,0.0,0.0,0.0,0.0,0.0,-2.1308,-2.1593,-2.1952,-2.2702,-2.2638,-2.1745,-2.3147,-2.4696,-2.6533,-2.6094,-2.6094,-2.6533,-2.6533,-2.6533,-2.6533,0.0,0.0,0.0,-2.6533,-2.6533,-2.6533,-2.6533,-2.6533,-2.6533,-2.6533,-2.6533,-2.6533,0.0,0.0,0.0,0.0,0.0,0.0,-0.7001,-0.7792,-0.8503,-0.9032,-0.9208,-0.9189,-0.8936,-0.8846,-0.8762,-0.8705,0.0,0.0,0.0,0.0,0.0,0.0,0.0,0.0,0.0,0.0,0.0,-0.7899,-0.7635,0.0,0.0,0.0,0.0,0.0,0.0,0.0,0.0,0.0,0.0,0.0,0.0,0.0,0.0,0.0,0.0,0.0,0.0,0.0,0.0,0.0,0.0,0.0,0.0,0.0,0.0,0.0,-1.6157,-1.6383,-1.7219,-1.7802,-1.8229,-1.8229,-1.7802,-1.6948,0.0,-1.4011,-1.2722,-1.1044,-1.0295,-0.9905,-0.9905,-1.0357,-1.1069,-1.2228,-1.2835,-1.3495,-1.4362,0.0,0.0,0.0,0.0,0.0,0.0,0.0,0.0,0.0,0.0,0.0,0.0,-2.2925,-2.2999,-2.2027,-2.3576,-2.4469,-2.4469,-2.4469,-2.5205,-2.6452,-2.5134,-2.5205,-2.6533,-2.6533,-2.6533,0.0,0.0,0.0,0.0,-2.6533,-2.6533,-2.6533,-2.6533,-2.6533,-2.6533,-2.6533,-2.6533,-2.6533,0.0,0.0,0.0,0.0,0.0,0.0,0.0,-0.692,-0.7637,-0.8266,-0.8314,-0.8435,-0.8852,-0.8874,-0.8835,-0.8717,0.0,0.0,0.0,0.0,0.0,0.0,0.0,0.0,0.0,0.0,-0.7899,-0.7899,-0.7827,0.0,0.0,0.0,0.0,0.0,0.0,0.0,0.0,0.0,0.0,0.0,0.0,0.0,0.0,0.0,0.0,0.0,0.0,0.0,0.0,0.0,0.0,0.0,0.0,0.0,0.0,-1.2498,-1.4163,0.0,-1.5654,-1.607,-1.6396,-1.6019,-1.5834,-1.5369,-1.4048,-1.3195,-1.2271,-1.0969,-1.0255,-0.9905,-0.9905,-0.986,-1.0489,-1.2601,-1.246,0.0,0.0,0.0,0.0,0.0,0.0,0.0,0.0,0.0,0.0,0.0,0.0,0.0,0.0,-2.3963,-2.4409,-2.4047,-2.4564,-2.5146,-2.5873,-2.5861,-2.6082,-2.6452,-2.6082,-2.6094,-2.6533,-2.6533,0.0,0.0,0.0,0.0,0.0,-2.6533,-2.6533,-2.6533,-2.6533,-2.6533,-2.6533,-2.6533,-2.6533,-2.6533,0.0,0.0,0.0,0.0,0.0,0.0,0.0,-0.6287,-0.6836,-0.75,-0.751,-0.772,-0.84,-0.8485,-0.8571,-0.8766,0.0,0.0,0.0,0.0,0.0,0.0,0.0,0.0,0.0,-0.8012,-0.7899,-0.7899,-0.7899,-0.7899,-0.7929,-0.8919,0.0,0.0,0.0,0.0,0.0,0.0,0.0,0.0,0.0,0.0,-0.888,0.0,0.0,0.0,0.0,0.0,0.0,0.0,0.0,0.0,0.0,0.0,0.0,0.0,-1.175,-1.3245,0.0,-1.4576,-1.4828,-1.4374,-1.436,-1.4141,-1.2889,-1.2341,-1.1776,-1.0618,-1.0144,-0.9905,-0.9905,-0.9909,-1.0439,-1.2029,0.0,0.0,0.0,0.0,0.0,0.0,0.0,0.0,0.0,0.0,0.0,0.0,0.0,0.0,0.0,-2.4992,-2.5581,-2.5581,-2.5581,-2.5873,-2.6452,-2.6533,-2.6533,-2.6533,-2.6533,-2.6533,-2.6533,-2.6533,0.0,0.0,0.0,0.0,0.0,-2.6533,-2.6533,-2.6533,-2.6533,-2.6533,-2.6533,-2.6533,-2.6533,-2.6533,0.0,0.0,0.0,0.0,0.0,0.0,0.0,-0.5803,-0.6048,-0.6715,-0.6797,-0.7044,-0.7665,-0.7764,-0.8078,-0.8756,0.0,0.0,0.0,0.0,0.0,0.0,0.0,0.0,0.0,-0.8068,-0.7899,-0.7899,-0.799,-0.8049,-0.8093,-1.0614,-1.0503,-0.8169,0.0,0.0,0.0,0.0,0.0,0.0,0.0,-0.888,0.0,0.0,0.0,0.0,0.0,0.0,0.0,0.0,0.0,0.0,0.0,0.0,0.0,0.0,0.0,0.0,0.0,-1.3144,-1.3336,-1.3028,-1.3242,-1.3136,-1.1792,-1.15,0.0,-1.0131,-0.988,-0.9866,-0.9954,-1.0353,-1.0739,-1.0993,0.0,0.0,0.0,0.0,0.0,0.0,0.0,0.0,0.0,0.0,0.0,0.0,0.0,0.0,0.0,-2.6025,-2.6533,-2.6533,-2.6533,-2.6533,-2.6533,-2.6533,-2.6533,-2.6533,-2.6533,-2.6533,-2.6533,-2.6533,0.0,0.0,0.0,0.0,0.0,-2.6533,-2.6533,-2.6533,-2.6533,-2.6533,-2.6533,-2.6533,-2.6533,-2.6533,0.0,0.0,0.0,0.0,0.0,0.0,0.0,0.0,0.0,0.0,-0.5911,-0.6178,-0.6876,-0.7459,-0.7865,0.0,0.0,0.0,0.0,0.0,0.0,0.0,0.0,0.0,0.0,-0.8068,-0.7899,-0.7899,-0.8921,-0.9442,-0.9465,-1.1067,-1.1476,-1.0787,-0.8799,-0.8189,0.0,0.0,0.0,0.0,-0.8731,-0.87,0.0,0.0,0.0,0.0,-0.8068,-0.7997,0.0,0.0,0.0,0.0,0.0,0.0,0.0,0.0,-0.8373,-0.8692,-0.9767,0.0,-1.0754,-1.0712,-1.1026,-1.121,0.0,-1.0621,-1.0734,0.0,0.0,-0.9728,-1.0374,-0.9886,-1.0201,0.0,0.0,0.0,0.0,0.0,0.0,0.0,0.0,0.0,0.0,0.0,0.0,0.0,0.0,0.0,0.0,-2.6383,-2.6533,-2.6533,-2.6533,-2.6533,-2.6533,-2.6533,-2.6533,-2.6533,-2.6533,-2.6533,-2.6533,-2.6533,0.0,0.0,0.0,0.0,-2.6533,-2.6533,-2.6533,-2.6533,-2.6533,-2.6533,-2.6533,-2.6533,-2.6533,-2.6533,0.0,0.0,0.0,0.0,0.0,0.0,0.0,0.0,0.0,0.0,0.0,0.0,0.0,0.0,0.0,0.0,0.0,0.0,0.0,0.0,0.0,0.0,0.0,-0.8309,-0.8133,-0.7984,-0.7797,-0.7576,-0.9126,-0.9905,-0.9944,-1.2478,-1.364,-1.3475,-0.9623,-0.8267,0.0,0.0,0.0,0.0,-0.8672,0.0,0.0,0.0,0.0,0.0,-0.8205,-0.8106,0.0,-0.7941,-0.7899,-0.7885,0.0,0.0,0.0,0.0,-0.755,-0.7582,-0.8314,-0.948,-1.0546,-1.0664,-1.0997,-1.1181,-1.0762,0.0,0.0,0.0,0.0,0.0,-1.0272,0.0,0.0,0.0,0.0,0.0,0.0,0.0,0.0,0.0,0.0,0.0,0.0,0.0,0.0,0.0,0.0,0.0,0.0,-2.6533,-2.6533,-2.6533,-2.6533,-2.6533,-2.6533,-2.6533,-2.6533,-2.6533,-2.6533,-2.6533,-2.6533,-2.6533,-2.6533,0.0,0.0,0.0,-2.6533,-2.6533,-2.6533,-2.6533,-2.6533,-2.6533,-2.6533,-2.6533,-2.6533,-2.6533,0.0,0.0,0.0,0.0,0.0,0.0,0.0,0.0,0.0,0.0,0.0,0.0,0.0,0.0,0.0,0.0,0.0,0.0,0.0,0.0,0.0,0.0,0.0,-0.8227,-0.7868,-0.7812,-0.7621,-0.7303,-0.9037,-0.9905,-0.9995,-1.3536,-1.4989,-1.439,-1.0018,-0.8371,0.0,0.0,0.0,0.0,0.0,0.0,0.0,0.0,0.0,0.0,0.0,0.0,0.0,-0.7941,-0.7899,-0.787,-0.7694,0.0,0.0,0.0,0.0,0.0,-0.7861,-0.9658,-1.1274,-1.1336,-1.1695,-1.1967,-1.166,0.0,0.0,0.0,0.0,0.0,0.0,0.0,0.0,0.0,0.0,0.0,0.0,0.0,0.0,0.0,0.0,0.0,0.0,0.0,0.0,0.0,0.0,0.0,0.0,-2.6533,-2.6533,-2.6533,-2.6533,-2.6533,-2.6533,-2.6533,-2.6533,-2.6533,-2.6533,-2.6533,-2.6533,-2.6533,-2.6533,0.0,0.0,0.0,-2.6533,-2.6533,-2.6533,-2.6533,-2.6533,-2.6533,-2.6533,-2.6533,-2.6094,-2.5721,0.0,0.0,0.0,0.0,0.0,0.0,0.0,0.0,0.0,0.0,0.0,0.0,0.0,0.0,0.0,0.0,0.0,0.0,0.0,0.0,0.0,0.0,-0.8335,-0.8322,-0.8144,-0.7592,-0.7471,-0.7797,-0.9206,-0.9905,-0.9931,-1.1627,-1.1221,-0.9101,-0.886,-0.8812,-0.8936,0.0,0.0,0.0,0.0,0.0,0.0,0.0,0.0,0.0,0.0,0.0,0.0,-0.7941,-0.7899,-0.7899,-0.787,0.0,0.0,0.0,0.0,0.0,-0.9139,-1.0552,-1.1324,-1.0397,-1.1253,-1.2216,0.0,0.0,0.0,0.0,0.0,0.0,0.0,0.0,0.0,0.0,0.0,0.0,0.0,0.0,0.0,0.0,0.0,0.0,0.0,0.0,0.0,0.0,0.0,0.0,0.0,0.0,-2.6533,-2.6533,-2.6533,-2.6533,-2.6533,-2.6533,-2.6533,-2.6533,-2.6533,-2.6533,-2.6533,-2.6533,-2.6533,0.0,0.0,-2.6533,-2.6533,-2.6533,-2.6533,-2.6533,-2.6533,-2.6533,-2.6533,-2.6533,-2.4385,-2.1962,0.0,0.0,0.0,0.0,0.0,0.0,0.0,0.0,0.0,0.0,0.0,0.0,0.0,0.0,0.0,0.0,0.0,0.0,0.0,0.0,0.0,-0.8102,-0.8227,-0.8147,-0.784,-0.7665,-0.7454,-0.7203,-0.7817,-0.9827,-1.3079,-1.2194,-1.1161,-0.9953,-0.8859,-0.8559,-0.8913,-0.9159,0.0,-0.8358,0.0,0.0,0.0,0.0,0.0,0.0,0.0,0.0,0.0,0.0,-0.7899,-0.7899,-0.7899,0.0,0.0,0.0,0.0,0.0,-0.7928,-0.9378,-1.0621,-1.0395,-1.2065,-1.3672,0.0,0.0,0.0,0.0,0.0,0.0,0.0,0.0,0.0,0.0,0.0,0.0,0.0,0.0,0.0,0.0,0.0,0.0,0.0,0.0,0.0,0.0,0.0,0.0,0.0,0.0,-2.6533,-2.6533,-2.6533,-2.6533,-2.6533,-2.6533,-2.6533,-2.6533,-2.6533,-2.6533,-2.6533,-2.6533,-2.6533,-2.6533,0.0,-2.6533,-2.6533,-2.6533,-2.6533,-2.6533,-2.6533,-2.6533,-2.6533,-2.6533,-2.5346,-2.4024,0.0,0.0,0.0,0.0,0.0,0.0,0.0,0.0,0.0,0.0,0.0,0.0,0.0,0.0,0.0,0.0,0.0,0.0,0.0,0.0,-0.807,-0.8102,-0.8118,-0.7968,-0.7605,-0.7783,-0.7878,-0.7806,-0.7806,-1.0236,-1.4824,-1.2747,-1.1476,-1.0802,-0.8799,-0.8189,-0.8667,-0.8667,-0.8371,-0.7928,0.0,0.0,0.0,0.0,0.0,0.0,0.0,0.0,0.0,0.0,0.0,0.0,0.0,0.0,0.0,-0.7223,-0.7029,-0.6936,-0.7136,-0.8524,-1.0119,-1.1044,0.0,-1.4588,0.0,0.0,0.0,0.0,0.0,0.0,0.0,0.0,0.0,0.0,0.0,0.0,0.0,0.0,0.0,0.0,0.0,0.0,0.0,0.0,0.0,0.0,0.0,0.0,0.0,0.0,-2.6076,-2.6076,-2.6076,-2.6076,-2.6076,-2.6076,-2.6269,-2.6533,-2.6533,-2.6533,-2.6533,-2.6533,-2.6533,-2.6533,-2.6533,-2.6533,-2.6533,-2.6533,-2.6533,-2.6533,-2.6533,-2.6533,-2.6533,-2.6533,-2.6533,-2.6533,0.0,0.0,0.0,0.0,0.0,0.0,0.0,0.0,0.0,0.0,0.0,0.0,0.0,0.0,0.0,0.0,0.0,0.0,0.0,0.0,-0.7344,-0.8073,-0.7983,-0.7914,-0.787,-0.7885,-0.9065,-1.1421,-1.1421,-1.1636,-1.2074,-1.1895,-1.0503,-0.8169,-0.7989,-0.7928,-0.797,-0.797,-0.7942,-0.7899,-0.7928,0.0,0.0,0.0,0.0,0.0,0.0,0.0,0.0,0.0,0.0,0.0,0.0,0.0,-0.7514,-0.7058,-0.6911,-0.7197,-0.8553,-0.9391,-1.0408,-1.2497,0.0,0.0,0.0,0.0,0.0,0.0,0.0,0.0,0.0,0.0,0.0,0.0,0.0,0.0,0.0,0.0,0.0,0.0,0.0,0.0,0.0,0.0,0.0,0.0,0.0,0.0,0.0,0.0,0.0,-2.4946,-2.4946,-2.4946,-2.4946,-2.4946,-2.5448,-2.6533,-2.6533,-2.6533,-2.6533,-2.6533,-2.6533,-2.6533,-2.6533,-2.6533,-2.6533,-2.6533,-2.6533,-2.6533,-2.6533,-2.6533,-2.6533,-2.6533,-2.6533,-2.6533,0.0,0.0,0.0,0.0,0.0,0.0,0.0,0.0,0.0,0.0,0.0,0.0,0.0,0.0,0.0,0.0,0.0,0.0,0.0,0.0,-0.7431,-0.8071,-0.7969,-0.7899,-0.7899,-0.8715,-1.003,-1.1805,-1.1805,-1.0967,-0.9383,-0.9383,-0.8859,-0.787,-0.7329,-0.7392,-0.787,-0.7329,-0.7237,-0.7471,-0.7605,-0.7869,0.0,0.0,0.0,0.0,0.0,0.0,0.0,0.0,-0.7827,-0.7694,0.0,0.0,0.0,0.0,-0.6908,-0.7001,-0.7427,-0.87,-1.027,-1.1826,0.0,0.0,0.0,0.0,0.0,0.0,0.0,0.0,0.0,0.0,0.0,0.0,0.0,0.0,0.0,0.0,0.0,0.0,0.0,0.0,0.0,0.0,0.0,0.0,0.0,0.0,0.0,0.0,0.0,-2.482,-2.482,-2.482,-2.482,-2.482,-2.5034,-2.5435,-2.5435,-2.5435,-2.5448,-2.5774,-2.5925,-2.5937,-2.637,-2.6533,-2.6533,-2.6533,-2.6533,-2.6533,-2.6533,-2.6533,-2.6533,-2.6533,-2.6533,-2.6533,0.0,0.0,0.0,0.0,0.0,0.0,0.0,0.0,0.0,0.0,0.0,0.0,0.0,0.0,0.0,0.0,0.0,0.0,-0.5555,-0.666,-0.744,-0.7768,-0.786,-0.7899,-0.7899,-0.8789,-1.0104,-1.1805,-1.0967,-0.965,-0.7899,-0.7899,-0.7753,-0.7469,-0.6874,-0.6927,-0.7453,-0.6858,-0.6761,-0.7031,-0.7286,-0.7621,0.0,0.0,0.0,0.0,0.0,0.0,0.0,0.0,-0.7812,-0.7679,0.0,0.0,0.0,0.0,-0.7066,-0.7327,-0.7162,-0.8602,-1.0433,0.0,0.0,0.0,0.0,0.0,0.0,0.0,0.0,0.0,0.0,0.0,0.0,0.0,0.0,0.0,0.0,0.0,0.0,0.0,0.0,0.0,0.0,0.0,0.0,0.0,0.0,0.0,0.0,0.0,0.0,0.0,-2.4293,-2.4293,-2.4293,-2.4293,-2.4293,-2.4293,-2.4293,-2.4481,-2.4833,-2.5197,-2.536,-2.5385,-2.6138,-2.6533,-2.6533,-2.6533,-2.6533,-2.6533,-2.6533,-2.6533,-2.6533,-2.6533,-2.6533,-2.6533,0.0,0.0,0.0,0.0,0.0,0.0,0.0,0.0,0.0,0.0,0.0,0.0,0.0,0.0,0.0,0.0,0.0,0.0,-0.429,-0.6162,-0.7225,-0.7108,-0.7618,-0.7899,-0.7899,-0.7899,-0.9173,-1.176,-0.9173,-0.7899,-0.7899,-0.7885,-0.7422,-0.6599,-0.6599,-0.6599,-0.6599,-0.6599,-0.6599,-0.6633,-0.7048,-0.7363,-0.7605,0.0,0.0,0.0,0.0,0.0,0.0,0.0,-0.7899,-0.7812,0.0,0.0,0.0,0.0,-0.742,-0.8311,-0.8311,-0.9491,0.0,0.0,0.0,0.0,0.0,0.0,0.0,0.0,0.0,0.0,0.0,0.0,0.0,0.0,0.0,0.0,0.0,0.0,0.0,0.0,0.0,0.0,0.0,0.0,0.0,0.0,0.0,0.0,0.0,0.0,0.0,0.0,-2.3078,-2.3078,-2.3078,-2.3078,-2.3078,-2.3078,-2.3078,-2.3666,-2.4808,-2.4808,-2.4808,-2.487,-2.5963,-2.6508,-2.6508,-2.6521,-2.6533,-2.6533,-2.6533,-2.6533,-2.6533,-2.6533,-2.6533,-2.6533,0.0,0.0,0.0,0.0,0.0,0.0,0.0,0.0,0.0,0.0,0.0,0.0,0.0,0.0,0.0,0.0,0.0,0.0,-0.429,-0.4869,-0.5758,-0.7044,-0.783,-0.8137,-0.7899,-0.7899,-0.8289,-0.9068,-0.8289,-0.7899,-0.7885,-0.7266,-0.6858,-0.6599,-0.6599,-0.6599,-0.6599,-0.6599,-0.6599,-0.6616,-0.6727,-0.7077,-0.7545,0.0,0.0,0.0,0.0,0.0,0.0,0.0,0.0,0.0,0.0,0.0,0.0,-0.734,-0.8268,-0.9486,-0.8725,0.0,0.0,0.0,0.0,0.0,0.0,0.0,0.0,0.0,0.0,0.0,0.0,0.0,0.0,0.0,0.0,0.0,0.0,0.0,0.0,0.0,0.0,0.0,0.0,0.0,0.0,0.0,0.0,0.0,0.0,0.0,0.0,0.0,-2.3078,-2.3078,-2.3078,-2.3078,-2.3078,-2.3078,-2.3078,-2.3253,-2.3653,-2.4054,-2.4243,-2.4268,-2.4707,-2.5046,-2.5372,-2.6138,-2.6533,-2.6533,-2.6533,-2.6533,-2.6533,-2.6533,-2.6533,-2.6533,0.0,0.0,0.0,0.0,0.0,0.0,0.0,0.0,0.0,0.0,0.0,-0.4302,0.0,0.0,0.0,0.0,0.0,0.0,0.0,-0.4217,-0.4901,-0.6354,-0.7636,-0.8189,-0.7899,-0.7899,-0.7899,-0.7899,-0.7899,-0.7899,-0.7885,-0.736,-0.6927,-0.6599,-0.6599,-0.6599,-0.6599,-0.6599,-0.6599,-0.6599,-0.6599,-0.6824,-0.7171,0.0,0.0,0.0,0.0,0.0,0.0,0.0,0.0,0.0,0.0,0.0,0.0,-0.808,-0.904,-1.0226,-1.0315,0.0,0.0,0.0,0.0,0.0,0.0,0.0,0.0,0.0,0.0,0.0,0.0,0.0,0.0,0.0,0.0,0.0,0.0,0.0,0.0,0.0,0.0,0.0,0.0,0.0,0.0,0.0,0.0,0.0,0.0,0.0,0.0,0.0,-2.3078,-2.3078,-2.3078,-2.3078,-2.3078,-2.3078,-2.3078,-2.3078,-2.3078,-2.3502,-2.3653,-2.3665,-2.3753,-2.3929,-2.428,-2.5824,-2.6533,-2.6533,-2.6533,-2.6533,-2.6302,-2.4767,-2.4169,-2.4169,0.0,0.0,-0.471,-0.4715,0.0,0.0,0.0,0.0,0.0,0.0,0.0,-0.4337,0.0,0.0,0.0,-0.3811,0.0,0.0,0.0,0.0,-0.4529,-0.5365,-0.7183,-0.8079,-0.7899,-0.7899,-0.7899,-0.7899,-0.7899,-0.7899,-0.7899,-0.7827,-0.736,-0.6599,-0.6599,-0.6599,-0.6599,-0.6599,-0.6599,-0.6599,-0.6599,-0.6651,-0.6757,-0.7114,0.0,0.0,0.0,0.0,0.0,0.0,0.0,0.0,0.0,0.0,-0.7634,-0.8757,-0.9709,-1.0729,0.0,0.0,0.0,0.0,0.0,0.0,0.0,0.0,0.0,0.0,0.0,0.0,0.0,0.0,0.0,0.0,0.0,0.0,0.0,0.0,0.0,0.0,0.0,0.0,0.0,0.0,0.0,0.0,0.0,0.0,0.0,0.0,0.0,0.0,-2.3078,-2.3078,-2.3078,-2.3078,-2.3078,0.0,-2.3078,-2.3078,-2.3078,-2.3078,-2.3078,-2.3078,-2.3078,-2.3078,-2.3288,-2.5322,-2.6276,-2.6533,-2.6533,-2.6302,-2.5499,-2.1897,-2.0566,-2.0566,0.0,0.0,-0.4723,-0.4765,0.0,0.0,0.0,0.0,-0.4619,-0.4477,-0.4488,-0.4217,-0.3504,-0.3344,0.0,-0.3419,-0.3427,0.0,0.0,0.0,-0.4278,-0.5356,-0.704,-0.7941,-0.7899,-0.7899,-0.7899,-0.7899,-0.7899,-0.7899,-0.7885,-0.7203,-0.6774,-0.6599,-0.6599,-0.6599,-0.6599,-0.6599,-0.6599,-0.6599,-0.6599,-0.7009,-0.762,-0.7651,-0.7991,0.0,0.0,0.0,0.0,0.0,0.0,0.0,-0.7605,-0.8237,-0.8885,-0.8339,-0.9896,0.0,0.0,0.0,0.0,0.0,0.0,0.0,0.0,0.0,0.0,0.0,0.0,0.0,0.0,0.0,0.0,0.0,0.0,0.0,0.0,0.0,0.0,0.0,0.0,0.0,0.0,0.0,0.0,0.0,0.0,0.0,0.0,0.0,0.0,-2.3078,-2.3078,-2.3078,-2.3078,-2.3078,-2.3078,0.0,-2.3078,-2.3078,-2.3078,-2.3078,-2.3078,-2.3078,-2.3078,-2.3078,-2.3115,-2.3653,-2.4883,-2.6533,-2.6533,-2.4612,-2.1745,-2.0934,-2.0566,-2.0566,0.0,0.0,0.0,0.0,0.0,0.0,0.0,0.0,-0.4679,-0.4527,-0.4172,-0.3774,-0.3344,-0.3306,0.0,0.0,-0.3306,-0.3427,0.0,0.0,-0.4284,-0.5591,-0.7101,-0.7899,-0.7899,-0.7484,-0.7282,-0.7282,-0.7282,-0.7282,-0.7266,-0.6807,-0.6599,-0.6599,-0.6599,-0.6599,-0.6599,-0.6599,-0.6599,-0.6633,-0.7058,-0.7484,-0.7927,-0.8222,-0.8452,-0.866,-0.8835,0.0,0.0,0.0,0.0,0.0,0.0,0.0,-0.8321,-0.8583,-0.977,-1.1197,0.0,0.0,0.0,0.0,0.0,0.0,0.0,0.0,0.0,0.0,0.0,0.0,0.0,0.0,0.0,0.0,0.0,0.0,0.0,0.0,0.0,0.0,0.0,0.0,0.0,0.0,0.0,0.0,0.0,0.0,0.0,-2.3078,-2.3078,-2.3078,-2.3078,-2.3078,-2.3078,-2.3078,-2.3078,-2.3078,-2.3078,-2.3078,-2.3078,-2.3078,-2.3078,-2.3078,-2.3078,-2.3078,-2.3078,-2.3078,-2.3816,-2.4763,-2.4014,-2.3576,-2.322,-2.1308,-2.0566,-2.0857,0.0,0.0,0.0,0.0,0.0,0.0,0.0,0.0,0.0,-0.4426,-0.3759,-0.3306,-0.3306,-0.3306,-0.3306,0.0,0.0,0.0,-0.3589,0.0,0.0,-0.5711,-0.7135,-0.787,-0.7783,-0.7009,-0.6599,-0.6599,-0.6599,-0.6599,0.0,-0.6599,-0.6799,-0.7162,-0.7162,-0.695,-0.6599,-0.6599,-0.6685,-0.6891,-0.762,-0.7899,-0.797,-0.8644,-0.8891,-0.8891,-0.8891,-0.8538,-0.7974,-0.7416,0.0,0.0,0.0,0.0,-0.719,-0.8728,-0.9359,-1.0035,0.0,0.0,0.0,0.0,0.0,0.0,0.0,0.0,0.0,0.0,0.0,0.0,0.0,0.0,0.0,0.0,0.0,0.0,0.0,0.0,0.0,0.0,0.0,0.0,0.0,0.0,0.0,0.0,0.0,0.0,-2.2862,-2.2849,-2.2849,-2.2849,-2.2849,-2.2849,-2.2849,-2.2949,-2.2927,-2.2927,-2.3088,-2.3078,-2.3078,-2.3078,-2.3078,-2.3078,-2.3078,-2.3078,-2.3078,-2.3078,-2.3078,-2.2936,-2.1599,-2.2999,-2.5562,-2.2657,-2.1603,-2.2113,0.0,0.0,0.0,0.0,0.0,0.0,0.0,0.0,0.0,0.0,-0.3575,-0.3306,-0.3306,-0.3306,-0.3306,-0.3306,-0.3306,-0.3386,0.0,0.0,0.0,-0.5196,-0.693,-0.7709,-0.7303,-0.6845,-0.6599,-0.6599,-0.6599,0.0,0.0,0.0,0.0,-0.9466,-0.9466,-0.8399,-0.6599,-0.6599,-0.7026,-0.7739,-0.7856,-0.7899,-0.797,-0.8644,-0.8891,-0.8891,-0.8891,-0.8485,-0.7826,-0.7173,-0.6612,0.0,0.0,0.0,0.0,0.0,0.0,0.0,0.0,0.0,0.0,0.0,0.0,0.0,0.0,0.0,0.0,0.0,0.0,0.0,0.0,0.0,0.0,0.0,0.0,0.0,0.0,0.0,0.0,0.0,0.0,0.0,0.0,0.0,0.0,0.0,0.0,0.0,-2.1732,-2.1707,-2.1707,-2.1707,-2.1707,-2.1707,-2.1707,-2.2184,-2.2422,-2.2422,-2.2912,-2.3078,-2.3078,-2.3078,-2.3078,-2.3078,-2.3078,-2.3078,-2.3078,-2.3078,-2.3078,-2.3103,-2.2874,-2.3121,-2.3741,-2.5173,-2.5721,-2.5791,0.0,0.0,0.0,0.0,0.0,0.0,0.0,0.0,0.0,0.0,0.0,-0.3306,-0.3306,-0.3306,-0.3306,-0.3306,-0.3306,0.0,0.0,0.0,0.0,0.0,-0.6142,-0.6625,-0.6309,-0.5292,-0.4746,-0.4746,0.0,0.0,0.0,-0.9141,-1.0155,0.0,0.0,0.0,0.0,0.0,-0.7545,-0.7899,-0.7899,-0.7899,-0.7942,-0.8229,-0.8332,-0.8332,-0.8332,-0.7839,-0.7045,-0.6194,-0.585,-0.5877,0.0,0.0,0.0,0.0,0.0,0.0,0.0,0.0,0.0,0.0,0.0,0.0,0.0,0.0,0.0,0.0,0.0,0.0,0.0,0.0,0.0,0.0,0.0,0.0,0.0,0.0,0.0,0.0,0.0,0.0,0.0,0.0,0.0,0.0,0.0,-2.1744,-2.1506,-2.1493,-2.1493,-2.1493,-2.1493,-2.1493,-2.1493,-2.1732,-2.2008,-2.2322,-2.2874,-2.3078,-2.3078,-2.3078,-2.3078,-2.3078,-2.3078,-2.3078,-2.3078,-2.3078,-2.3078,-2.3078,-2.3078,-2.3078,-2.319,-2.4243,-2.5385,-2.6164,0.0,0.0,0.0,0.0,0.0,0.0,0.0,0.0,0.0,0.0,0.0,-0.3306,-0.3306,0.0,0.0,0.0,-0.3306,0.0,0.0,0.0,0.0,0.0,0.0,-0.526,-0.5104,-0.3911,-0.3306,-0.3306,0.0,0.0,-0.5848,-1.028,-1.147,0.0,-0.8753,-0.8445,0.0,0.0,0.0,-0.7899,-0.7899,-0.7899,-0.8049,-0.9398,-0.9068,-0.7899,-0.7899,0.0,0.0,0.0,0.0,0.0,0.0,0.0,0.0,0.0,0.0,0.0,0.0,0.0,0.0,0.0,0.0,0.0,0.0,0.0,0.0,0.0,0.0,0.0,0.0,0.0,0.0,0.0,0.0,0.0,0.0,0.0,0.0,0.0,0.0,0.0,0.0,0.0,0.0,0.0,0.0,-2.1217,-2.1066,-2.1054,-2.1054,-2.1054,-2.1054,-2.1054,-2.1054,-2.1204,-2.1556,-2.2108,-2.2661,-2.2924,-2.2924,-2.3015,-2.3078,-2.3078,-2.3078,-2.3078,-2.3078,-2.3078,-2.3078,-2.3078,-2.3078,-2.3078,-2.3078,-2.3078,-2.3928,-2.4612,0.0,0.0,0.0,0.0,0.0,0.0,0.0,0.0,0.0,0.0,0.0,-0.3306,-0.3306,-0.3306,-0.3306,-0.3306,-0.3306,0.0,0.0,0.0,0.0,0.0,0.0,0.0,-0.3709,-0.3437,-0.3306,0.0,0.0,0.0,-0.3571,-0.7997,-1.0006,-0.9993,-1.1971,-1.218,-1.0883,0.0,0.0,-0.7899,-0.7899,-0.7899,-0.8454,-1.3475,-1.2276,-0.7899,0.0,0.0,0.0,0.0,0.0,0.0,0.0,0.0,0.0,0.0,0.0,0.0,0.0,0.0,0.0,0.0,0.0,0.0,0.0,0.0,0.0,0.0,0.0,0.0,0.0,0.0,0.0,0.0,0.0,0.0,0.0,0.0,0.0,0.0,0.0,0.0,0.0,0.0,0.0,0.0,0.0,-2.0464,-1.9924,-1.9886,-1.9886,-1.9886,-1.9886,-1.9886,-1.9886,-2.0439,-2.0991,-2.1543,-2.2096,-2.2347,-2.2372,-2.2899,-2.3078,-2.3078,-2.3078,-2.3078,-2.3078,-2.3078,-2.3078,-2.3078,-2.3078,-2.3078,-2.3078,-2.3078,-2.215,-2.0867,0.0,0.0,0.0,0.0,0.0,0.0,0.0,0.0,0.0,0.0,0.0,0.0,0.0,-0.3306,-0.3306,-0.3306,-0.3541,0.0,0.0,0.0,0.0,0.0,0.0,0.0,0.0,-0.3378,0.0,0.0,0.0,-0.4796,-0.5486,-0.8499,-0.9529,-0.8876,-0.8928,-0.9308,-0.9796,-0.8065,0.0,-0.7899,-0.7899,-0.9938,-1.3175,-1.5079,-1.5664,-1.5298,0.0,0.0,0.0,0.0,0.0,0.0,0.0,-0.6076,-0.6289,-0.6341,0.0,0.0,0.0,0.0,0.0,0.0,0.0,0.0,0.0,0.0,0.0,0.0,0.0,0.0,0.0,0.0,0.0,0.0,0.0,0.0,0.0,0.0,0.0,0.0,0.0,0.0,0.0,0.0,0.0,0.0,0.0,0.0,-2.0409,-2.0055,-1.9798,-1.9798,-1.9798,-1.9798,-1.9798,-2.0376,-2.0819,-2.0966,-2.1518,-2.1782,-2.1794,-2.2347,-2.2611,-2.2623,-2.2975,-2.3078,-2.3078,-2.3078,-2.3078,-2.3078,-2.3078,-2.1791,-1.9803,-1.9803,-1.9448,-1.9082,0.0,0.0,0.0,-0.4585,0.0,-0.423,-0.414,-0.4067,-0.4046,-0.4091,0.0,0.0,0.0,0.0,-0.3353,-0.3493,-0.3751,-0.3855,-0.3773,0.0,0.0,0.0,0.0,0.0,0.0,0.0,0.0,0.0,0.0,0.0,0.0,-0.811,-0.8625,-0.8248,-0.71,-0.763,0.0,0.0,0.0,-0.894,0.0,0.0,-1.5903,0.0,-1.7657,0.0,0.0,0.0,0.0,0.0,0.0,0.0,0.0,-0.6213,-0.6147,-0.6189,0.0,0.0,0.0,0.0,0.0,0.0,0.0,0.0,0.0,0.0,0.0,0.0,0.0,0.0,0.0,0.0,0.0,0.0,0.0,0.0,0.0,0.0,0.0,0.0,0.0,0.0,0.0,0.0,0.0,0.0,0.0,0.0,-2.0446,-2.0055,-1.9798,-1.9798,-1.9798,-1.9798,-1.9798,-2.0188,-2.0376,-2.0376,-2.0941,-2.1204,-2.123,-2.1782,-2.2033,-2.2071,-2.256,-2.2852,-2.3078,-2.3078,-2.3078,-2.3005,-2.1854,-1.9998,-1.8008,-1.8008,-1.8008,-1.8174,-0.4835,-0.4793,-0.4741,-0.4532,-0.4326,-0.4182,-0.4176,-0.4017,-0.3906,-0.3906,0.0,0.0,0.0,0.0,0.0,-0.398,-0.395,-0.3906,-0.3935,-0.3921,0.0,0.0,0.0,0.0,0.0,0.0,0.0,0.0,0.0,0.0,0.0,0.0,-0.7156,-0.816,-0.7093,-0.7726,-0.9631,0.0,-1.0602,-1.0966,0.0,-1.1022,-1.601,0.0,0.0,0.0,-1.6362,-1.6522,0.0,0.0,0.0,0.0,0.0,-0.6514,-0.6248,-0.6248,-0.6207,0.0,0.0,0.0,0.0,0.0,0.0,0.0,0.0,0.0,0.0,0.0,0.0,0.0,0.0,0.0,0.0,0.0,0.0,0.0,0.0,0.0,0.0,0.0,0.0,0.0,0.0,0.0,0.0,0.0,0.0,-2.0471,-1.9876,-1.9786,-1.9798,-1.9798,-1.9798,-1.9798,-1.9798,-1.9798,-1.9798,-1.9811,-2.0376,-2.0693,-2.0706,-2.1204,-2.1468,-2.1493,-2.187,-2.2401,-2.3078,-2.3078,-2.3078,-2.275,-1.942,-1.8076,-1.8008,-1.8008,-1.8008,-1.8008,-0.4835,-0.4793,-0.4741,-0.4532,-0.4221,-0.3891,-0.3599,-0.3744,-0.3906,0.0,0.0,0.0,-0.6548,-0.6626,-0.6677,-0.6793,-0.5018,-0.4182,-0.4871,-0.4279,-0.3891,-0.3869,-0.3651,-0.3549,-0.3573,0.0,0.0,0.0,0.0,-0.3612,-0.4229,-0.5202,-0.5759,-0.5944,-0.6555,-0.7049,-0.7515,-0.8453,0.0,0.0,-0.7846,-0.9758,0.0,0.0,0.0,0.0,0.0,-1.6522,0.0,0.0,-1.4446,-1.3691,0.0,0.0,0.0,-0.7426,-0.7344,0.0,-0.6846,0.0,0.0,0.0,0.0,0.0,0.0,0.0,0.0,0.0,0.0,0.0,0.0,0.0,0.0,0.0,0.0,0.0,0.0,0.0,0.0,0.0,0.0,0.0,0.0,0.0,0.0,0.0,-2.0288,-2.0306,-2.053,-2.0064,-1.9798,-1.9798,-1.9798,-1.9798,-1.9798,-1.9798,-1.9798,-1.9798,-1.9962,-2.0037,-2.0062,-2.0627,-2.0891,-2.0941,-2.1707,-2.2401,-2.3078,-2.3078,-2.3078,-2.3017,-2.2051,-2.0193,-1.8008,-1.8008,-1.8008,-1.8008,-0.6893,-0.6658,-0.639,-0.5995,-0.5731,-0.5364,-0.4767,-0.519,-0.5566,0.0,0.0,0.0,-0.7856,-0.7899,-0.7899,-0.7899,-0.6463,-0.5446,-0.5151,-0.4722,-0.4285,-0.3833,-0.3965,-0.3872,-0.3477,-0.3655,-0.3603,-0.3306,-0.3306,-0.3306,-0.3319,-0.4107,-0.4893,-0.5702,-0.6458,-0.6706,-0.6649,-0.73,0.0,0.0,-0.9491,0.0,0.0,-1.3862,-1.5364,0.0,0.0,0.0,-1.7827,-1.7827,-1.6683,0.0,0.0,0.0,-0.864,-0.8193,-0.827,0.0,0.0,0.0,0.0,0.0,0.0,0.0,0.0,0.0,0.0,0.0,0.0,0.0,0.0,0.0,0.0,0.0,0.0,0.0,0.0,0.0,0.0,0.0,0.0,0.0,0.0,0.0,0.0,-2.0302,-2.0291,-2.0243,-2.0075,-1.9468,-1.9133,-1.9133,-1.9359,-1.9472,-1.9472,-1.9698,-1.9798,-1.9798,-1.9798,-1.9798,-1.9811,-2.015,-2.03,-2.0338,-2.0878,-2.1355,-2.182,-2.2689,-2.3078,-2.3078,-2.3078,-2.1854,-2.0128,-2.0128,-1.9233,-1.8202,0.0,-0.9257,-0.8679,-0.8012,-0.7899,-0.765,-0.6874,-0.747,-0.7984,0.0,-0.7899,-0.8019,-0.8304,-0.8079,-0.7899,-0.7899,-0.7899,-0.7105,-0.5246,-0.5126,-0.4767,-0.3915,-0.4412,-0.4324,-0.354,-0.4017,-0.3957,-0.3306,-0.3306,-0.3319,-0.3361,-0.3336,-0.4378,-0.6236,-0.6272,-0.6272,-0.6248,-0.6499,0.0,-0.973,-1.1933,-1.1933,0.0,0.0,-1.6637,0.0,-1.9006,-1.969,-1.9675,-1.9483,-1.7311,0.0,0.0,-1.1415,-1.011,-0.9026,-0.9357,0.0,-1.0004,-1.008,0.0,0.0,0.0,0.0,-1.1728,-1.1408,0.0,0.0,0.0,0.0,0.0,0.0,0.0,0.0,0.0,0.0,0.0,0.0,0.0,0.0,0.0,0.0,0.0,-1.953,-1.9877,-1.9792,-2.0218,-2.0033,-1.8988,-1.8482,-1.8204,-1.8204,-1.8681,-1.8883,-1.8883,-1.9447,-1.971,-1.971,-1.9773,-1.9798,-1.9798,-1.9798,-1.9798,-1.9798,-1.9798,-1.9798,-1.9974,-2.2209,-2.3078,-2.3078,-2.3078,-2.3078,-2.3078,-2.3078,-2.1152,-1.8967,-0.9713,-0.9257,-0.8679,-0.8012,-0.7899,-0.7841,-0.7679,-0.8251,-0.851,-0.797,-0.7899,-0.8709,-1.0802,-0.9173,-0.7899,-0.7899,-0.7899,-0.751,-0.6568,-0.5033,-0.4421,-0.4964,-0.4393,-0.4335,-0.4889,-0.3992,-0.3436,-0.3306,-0.3306,-0.3468,-0.3781,-0.362,-0.3681,-0.395,-0.4281,-0.4243,-0.4066,-0.5835,0.0,-0.7425,-0.9667,0.0,-1.5316,-1.6195,-1.7585,-1.9132,-1.9566,-1.969,-1.9498,0.0,-1.6852,-1.5501,0.0,0.0,0.0,0.0,0.0,-1.2939,-1.1964,-1.2729,-1.3417,0.0,0.0,0.0,0.0,-1.0792,0.0,0.0,0.0,0.0,0.0,0.0,0.0,0.0,0.0,0.0,0.0,0.0,0.0,0.0,0.0,0.0,0.0,-1.9248,-1.9829,-1.9721,-1.9435,-1.8986,-1.8381,-1.8265,-1.8204,-1.8204,-1.8304,-1.8367,-1.8367,-1.8907,-1.9183,-1.9183,-1.9597,-1.9798,-1.9798,-1.9798,-1.9798,-1.9798,-1.9798,-1.9798,-1.9974,-2.2209,-2.3078,-2.3078,-2.3078,-2.3078,-2.3078,-2.3078,-2.2689,-2.2175,-0.9698,-0.9257,-0.8801,-0.846,-0.8396,-0.8396,-0.8396,-0.8679,-0.8789,-0.8447,-0.9234,-1.0339,-1.1655,-1.0623,-0.9323,-0.8019,-0.7899,-0.7764,-0.7421,-0.6449,-0.5805,-0.5611,-0.5363,-0.5463,-0.5939,-0.5289,-0.4946,-0.4946,0.0,0.0,0.0,-0.3796,-0.4408,-0.5591,-0.5356,-0.5136,-0.5022,0.0,-0.7238,-0.8349,-0.9453,0.0,-1.6637,-1.7706,-1.8765,-1.969,-1.969,-1.969,-1.9504,-1.8262,-1.7142,0.0,0.0,-1.5008,-1.446,0.0,-1.3869,-1.4859,0.0,0.0,-1.517,-1.4026,0.0,0.0,0.0,0.0,0.0,0.0,0.0,0.0,0.0,0.0,0.0,0.0,0.0,0.0,0.0,0.0,0.0,0.0,0.0,0.0,0.0,-1.8793,-1.9214,-1.9669,-1.9181,-1.8683,-1.8166,-1.7922,-1.7619,-1.7363,-1.7639,-1.779,-1.779,-1.8342,-1.8756,-1.8983,-1.9296,-1.9547,-1.9798,-1.9798,-1.9798,-1.9798,-1.9798,-1.9798,-1.9886,-2.1016,-2.1468,-2.14,-2.0811,-2.1592,-2.3078,-2.3078,-2.3078,-2.3078,-0.9683,-0.9358,-0.9033,-0.8913,-0.8891,-0.8891,-0.8891,-0.8891,-0.9037,-0.9415,-1.0834,-1.1805,-1.1805,-1.1805,-1.0743,-0.8124,-0.7899,-0.7899,-0.7899,-0.7899,-0.7406,-0.6332,-0.6485,-0.6599,-0.6599,-0.6599,-0.6685,-0.6858,0.0,0.0,-0.3906,-0.3906,-0.5238,-0.7634,0.0,0.0,0.0,0.0,0.0,-0.9327,0.0,-1.3011,-1.7312,-1.9043,-1.969,-1.969,-1.969,-1.969,-1.957,-1.8748,0.0,-1.6899,-1.6598,-1.6403,0.0,0.0,0.0,0.0,0.0,0.0,0.0,0.0,0.0,-1.5068,0.0,0.0,0.0,-1.4267,0.0,0.0,0.0,0.0,0.0,0.0,0.0,0.0,0.0,0.0,0.0,0.0,0.0,0.0,0.0,-1.829,-1.8469,-1.9624,-1.8973,-1.8446,-1.8249,-1.7666,-1.7118,-1.668,-1.7018,-1.7212,-1.7212,-1.7802,-1.8317,-1.8707,-1.9045,-1.9397,-1.9798,-1.9798,-1.9798,-1.9798,-1.9798,-1.9475,-1.898,-1.898,-1.898,-1.897,-1.8996,-2.0643,-2.3078,-2.3078,-2.3078,-2.3078,-0.9609,-0.9641,-0.9447,-0.899,-0.8891,-0.8891,-0.8891,-0.8891,-0.9527,-1.1246,-1.1674,-1.1805,0.0,0.0,0.0,0.0,0.0,0.0,-0.7899,0.0,-0.7839,-0.7689,-0.6991,-0.6599,-0.6599,-0.6599,-0.6977,-0.7753,-0.4761,0.0,0.0,-0.3906,-0.4913,-0.683,-0.8695,0.0,0.0,0.0,-0.6749,0.0,-1.0342,-1.4698,0.0,-1.9603,-1.969,-1.969,-1.969,-1.969,-1.9624,0.0,-1.8749,-1.8469,0.0,-1.7828,0.0,0.0,0.0,0.0,0.0,0.0,0.0,0.0,-1.7111,0.0,0.0,0.0,-1.45,-1.4003,0.0,0.0,0.0,0.0,0.0,0.0,0.0,0.0,0.0,0.0,0.0,0.0,0.0,0.0,0.0,0.0,-1.8282,-1.96,-1.8083,-1.7641,-1.876,-1.7867,-1.7271,-1.7188,-1.6816,-1.6609,-1.6609,-1.7325,-1.7714,-1.779,-1.9095,-1.9748,-1.9798,-1.9798,-1.9798,-1.9798,-1.9798,-1.8317,-1.5911,-1.5911,-1.5911,-1.6362,-2.0781,-2.275,-2.3078,-2.3078,-2.3078,-2.3078,-0.9189,-0.9228,-0.9159,-0.8936,-0.8583,-0.8447,-0.8846,-0.8571,-0.8609,-0.9432,-1.0862,0.0,0.0,0.0,0.0,0.0,0.0,-1.3445,0.0,0.0,-0.7899,-0.7899,-0.7058,-0.6599,-0.6599,-0.6599,-0.7026,-0.7899,-0.6105,-0.4639,0.0,0.0,-0.4641,-0.6637,-0.7563,0.0,-0.86,0.0,0.0,0.0,0.0,0.0,0.0,-1.6278,-1.7012,-1.969,-1.969,-1.969,-1.96,0.0,-1.8651,0.0,0.0,0.0,0.0,0.0,0.0,0.0,0.0,0.0,0.0,0.0,0.0,0.0,0.0,0.0,-1.4992,0.0,0.0,0.0,0.0,0.0,0.0,0.0,0.0,0.0,0.0,0.0,0.0,0.0,0.0,0.0,0.0,0.0,0.0,0.0,0.0,-1.7651,-1.8302,-1.8261,-1.8106,-1.7787,-1.7229,-1.6951,-1.6951,-1.6941,-1.7187,-1.7626,-1.8242,-1.8982,-1.9798,-1.9798,-1.9798,-1.9798,-1.9798,-1.8155,-1.541,-1.541,-1.6404,-1.8182,-2.0312,-2.1995,-2.3078,-2.3078,-2.3078,-2.3078,-0.8891,0.0,0.0,-0.8891,-0.8497,-0.8267,-0.8583,-0.8216,-0.8424,-0.9878,0.0,0.0,-1.4494,-1.6008,0.0,0.0,0.0,-1.7013,0.0,0.0,-0.8649,-0.7929,-0.7641,0.0,0.0,-0.6599,-0.6924,-0.7545,-0.6924,-0.5773,0.0,0.0,-0.5059,-0.6599,0.0,-0.8164,-1.0922,0.0,0.0,-0.9413,-1.4423,-1.7745,-1.9271,-1.5426,-1.6338,-1.969,-1.969,-1.969,-1.9585,-1.8991,-1.8802,0.0,-1.8787,0.0,0.0,0.0,0.0,0.0,-1.9106,0.0,0.0,0.0,0.0,0.0,0.0,0.0,0.0,0.0,0.0,0.0,0.0,0.0,0.0,0.0,0.0,0.0,0.0,0.0,0.0,0.0,0.0,0.0,0.0,0.0,0.0,0.0,0.0,0.0,-1.8077,-1.8425,-1.8517,-1.8327,-1.7666,-1.7312,-1.7312,-1.6752,-1.6785,-1.7313,-1.7313,-1.7877,-1.8932,-1.9522,-1.9359,-1.8596,-1.8596,-1.739,-1.541,-1.541,-1.7113,-1.9798,-1.9798,-2.079,-2.2297,-2.2852,-2.3078,-2.3078,-0.8891,-0.8891,0.0,0.0,0.0,-0.8655,-0.8026,-0.7914,-0.9743,0.0,0.0,0.0,0.0,0.0,0.0,0.0,0.0,-1.5858,-1.5679,0.0,-1.0548,0.0,0.0,-0.8801,0.0,0.0,-0.6616,-0.6651,-0.6616,-0.6561,0.0,0.0,0.0,0.0,0.0,-0.9016,-1.3098,-1.3173,-1.2617,-1.1476,-0.9203,-1.2876,-1.966,0.0,-1.954,-1.969,-1.969,0.0,0.0,-1.966,-1.966,0.0,0.0,0.0,0.0,0.0,0.0,0.0,0.0,0.0,0.0,-1.8041,0.0,0.0,0.0,0.0,-1.6488,0.0,0.0,0.0,0.0,0.0,0.0,-1.4857,0.0,0.0,0.0,0.0,0.0,0.0,0.0,0.0,0.0,0.0,0.0,0.0,0.0,0.0,-1.8489,-1.82,-1.8223,-1.8864,-1.7867,-1.7312,-1.7312,-1.6752,-1.6522,-1.6559,-1.6559,-1.6572,-1.6697,-1.8832,-1.8263,-1.5517,-1.5517,-1.5468,-1.541,-1.541,-1.7113,-1.9798,-1.9798,-1.9849,-2.0175,-2.2334,-2.3078,-2.3078,0.0,0.0,0.0,0.0,0.0,-0.8667,-0.7998,-0.9383,-1.1117,0.0,0.0,0.0,0.0,0.0,-2.0975,0.0,0.0,-1.8392,-1.8392,-1.5918,0.0,0.0,0.0,-1.2231,0.0,0.0,-0.6599,-0.6599,-0.6599,0.0,0.0,0.0,0.0,0.0,0.0,-0.8239,0.0,0.0,0.0,0.0,0.0,-1.7296,-1.969,0.0,0.0,-1.969,-1.969,-1.969,0.0,-1.969,-1.969,-1.969,-1.969,-1.969,-1.969,-1.969,-1.969,0.0,0.0,0.0,-1.9465,-1.8597,0.0,0.0,0.0,0.0,0.0,0.0,0.0,0.0,0.0,0.0,-1.4929,-1.4259,0.0,0.0,0.0,0.0,0.0,0.0,0.0,0.0,0.0,0.0,0.0,0.0,0.0,0.0,0.0,-1.8399,-1.8741,-1.9427,-1.838,-1.7827,-1.7827,-1.6951,-1.6522,-1.6522,-1.6522,-1.6522,-1.6597,-1.8794,-1.8209,-1.541,-1.541,-1.541,-1.541,-1.541,-1.5958,-1.689,-1.689,-1.8101,-1.9899,-2.0652,-2.0928,-2.1142,-0.8891,0.0,0.0,0.0,0.0,0.0,0.0,0.0,0.0,0.0,-1.4932,0.0,-1.8382,0.0,-2.0926,0.0,-1.969,-1.969,-1.969,-1.8137,0.0,-1.3331,-1.5045,0.0,0.0,0.0,-0.7763,-0.7763,0.0,-0.6599,0.0,0.0,0.0,0.0,0.0,0.0,0.0,0.0,-1.8182,0.0,0.0,-1.969,0.0,0.0,-1.8574,-1.8574,0.0,-1.8574,-1.8688,-1.9442,-1.969,-1.969,-1.969,-1.969,-1.969,-1.969,-1.969,-1.969,-1.969,-1.969,0.0,-1.8867,-1.8388,0.0,-1.6921,0.0,0.0,0.0,0.0,0.0,0.0,0.0,0.0,-1.4573,-1.3735,0.0,0.0,0.0,0.0,0.0,0.0,0.0,0.0,0.0,-1.2796,-1.4145,0.0,0.0,0.0,0.0,-1.8763,-1.9316,-1.874,-1.8302,-1.8106,-1.7229,-1.668,-1.6522,-1.6522,-1.6522,-1.6572,-1.799,-1.7474,-1.541,-1.541,-1.541,-1.541,-1.541,-1.541,-1.541,-1.541,-1.7224,-1.9798,-1.9798,-2.03,-2.1192,0.0,0.0,0.0,0.0,-0.8512,0.0,0.0,0.0,-1.4929,0.0,-1.6563,-1.969,-1.969,-1.969,-1.969,-1.969,-1.969,0.0,-1.969,-1.957,0.0,0.0,-1.6429,-1.561,-1.3398,0.0,0.0,0.0,0.0,0.0,0.0,0.0,0.0,0.0,-0.7899,0.0,-1.5963,-1.8602,-1.969,-1.9603,-1.9603,-1.9603,-1.9406,-1.7312,-1.6522,-1.6522,-1.6522,-1.6522,-1.6837,-1.893,-1.9639,-1.969,-1.969,-1.969,-1.969,-1.969,-1.969,-1.969,-1.969,-1.969,-1.954,-1.8912,0.0,0.0,0.0,0.0,-1.7548,0.0,0.0,0.0,0.0,0.0,0.0,-1.5769,-1.4618,0.0,0.0,0.0,0.0,0.0,0.0,0.0,0.0,0.0,-1.1442,-1.3391,-1.2995,0.0,0.0,0.0,-1.8281,-1.8672,-1.8797,-1.8612,-1.8106,-1.7544,-1.6993,-1.6522,-1.6522,-1.6522,-1.6522,-1.6522,-1.6104,-1.541,-1.541,-1.541,-1.541,-1.541,-1.541,-1.541,-1.5575,-1.7335,-1.9798,-1.9798,-2.1217,-2.3078,-0.8812,-0.8497,-0.877,0.0,-1.0909,-1.1685,0.0,0.0,0.0,0.0,-1.8871,-1.969,-1.969,-1.969,-1.969,-1.969,-1.969,0.0,0.0,0.0,0.0,-1.8627,-1.8819,-1.7893,-1.568,-1.3473,0.0,-1.2346,0.0,0.0,-0.6616,0.0,0.0,0.0,0.0,0.0,-1.5963,-1.8602,-1.9244,-1.8496,-1.8496,-1.8496,0.0,0.0,-1.6522,-1.6522,-1.6522,-1.6522,-1.671,-1.8066,-1.9043,-1.969,-1.969,-1.969,-1.969,-1.969,-1.969,-1.969,-1.969,-1.969,-1.9645,-1.948,-1.9061,-1.8612,0.0,0.0,0.0,0.0,0.0,0.0,0.0,0.0,0.0,0.0,0.0,0.0,0.0,0.0,0.0,0.0,0.0,0.0,0.0,0.0,-1.2436,-1.2606,-1.3256,0.0,0.0,0.0,0.0,-1.8657,-1.845,-1.8263,-1.8106,-1.7146,-1.6637,-1.6522,-1.6522,-1.6522,-1.6522,-1.6522,-1.6104,-1.541,-1.541,-1.541,-1.541,-1.541,-1.541,-1.5633,-1.7829,-1.9137,-1.9798,-1.9798,-2.1217,-2.3078,-0.8778,0.0,0.0,-1.3077,0.0,0.0,-1.4,0.0,0.0,-1.9346,-1.969,0.0,-1.969,-1.969,-1.969,-1.969,-1.969,0.0,0.0,0.0,0.0,-1.963,-1.969,-1.9132,-1.7947,-1.6693,0.0,-1.2599,0.0,0.0,-0.7187,0.0,0.0,0.0,0.0,-1.0193,0.0,-1.7346,-1.8389,-1.8002,-1.7917,0.0,0.0,-1.6837,-1.6522,-1.6522,-1.6752,-1.6837,-1.6951,-1.7666,-1.838,-1.908,-1.9566,-1.969,-1.969,-1.969,-1.969,-1.969,-1.969,-1.969,-1.969,-1.969,-1.9405,-1.9061,-1.8777,-1.8702,-1.8597,0.0,0.0,0.0,0.0,0.0,0.0,0.0,0.0,0.0,0.0,0.0,0.0,0.0,0.0,0.0,0.0,0.0,-1.2439,-1.1808,-1.2707,0.0,0.0,0.0,0.0,-1.7805,-1.8237,-1.8341,-1.8106,-1.7271,-1.6625,-1.6095,-1.6095,-1.6064,-1.5976,-1.5611,-1.5417,-1.541,-1.541,-1.541,-1.5526,-1.6789,-1.7335,-1.7501,-1.9137,-1.9798,-1.9798,-1.9798,-2.1217,-2.3078,0.0,0.0,0.0,0.0,0.0,0.0,0.0,-1.4797,0.0,-1.8946,0.0,-1.9301,-1.9645,-1.969,-1.969,-1.969,0.0,-1.969,-1.969,-1.969,-1.969,-1.969,-1.969,-1.969,-1.969,-1.969,0.0,0.0,0.0,0.0,-0.7899,0.0,0.0,0.0,0.0,0.0,0.0,-1.5759,-1.7412,0.0,-1.7663,-1.7504,-1.7394,-1.6752,-1.6552,-1.668,-1.7105,-1.7312,-1.7353,-1.7666,-1.7947,-1.838,-1.9464,-1.9854,-1.9854,-1.9711,-1.969,-1.969,-1.969,-1.969,-1.969,-1.969,-1.969,-1.954,-1.8957,-1.8837,-1.8837,-1.8837,-1.8373,-1.8298,0.0,0.0,0.0,0.0,0.0,0.0,0.0,0.0,0.0,0.0,0.0,0.0,0.0,0.0,-1.2026,-1.1028,0.0,0.0,0.0,0.0,0.0,-1.6723,-1.7977,0.0,-1.7987,0.0,-1.6672,-1.5588,-1.5588,-1.5466,-1.5119,-1.4422,-1.4511,-1.5254,-1.5361,-1.5633,-1.6177,-1.8756,-1.9798,-1.9798,-1.9798,-1.9798,-1.985,-2.0181,-2.1532,-2.3238,0.0,0.0,0.0,0.0,0.0,-1.6368,-1.8077,-1.8702,-1.8422,-1.6713,-1.6488,-1.7312,-1.945,-1.969,-1.969,-1.969,-1.969,0.0,0.0,0.0,0.0,-1.969,-1.969,-1.969,-1.969,-1.969,-1.8179,0.0,-1.2867,-1.0458,-0.7899,0.0,0.0,0.0,0.0,0.0,-1.5143,-1.5902,0.0,-1.7638,-1.7423,-1.7076,-1.668,-1.6552,-1.6752,-1.7146,-1.7271,-1.7312,-1.7422,-1.838,-1.8612,-1.875,-2.0019,-2.0581,-2.0632,-1.9925,-1.969,-1.969,-1.969,-1.969,-1.969,-1.969,-1.969,-1.966,-1.954,-1.951,-1.951,-1.951,-1.942,-1.9241,-1.8927,0.0,0.0,0.0,0.0,0.0,0.0,0.0,0.0,0.0,0.0,0.0,0.0,0.0,0.0,0.0,0.0,0.0,0.0,0.0,0.0,0.0,-1.7225,0.0,0.0,0.0,-1.6269,-1.5588,-1.5588,-1.5141,-1.4329,-1.4143,-1.4169,-1.4394,-1.5107,-1.6789,-1.9085,-1.9579,-1.9798,-1.9798,-1.9798,-1.9798,-2.0042,-2.2179,-2.3167,-2.3818,0.0,0.0,0.0,0.0,0.0,0.0,0.0,-1.969,0.0,-1.8002,-1.7837,-1.8317,-1.954,-1.969,-1.969,-1.969,-1.969,-1.969,-1.969,-1.969,-1.969,-1.969,-1.969,0.0,-1.969,-1.969,-1.9061,-1.7837,-1.2403,-0.931,-0.8422,0.0,0.0,-0.7959,0.0,-1.2111,0.0,0.0,0.0,-1.6943,-1.7303,-1.7229,-1.6951,-1.7229,-1.7504,-1.7747,-1.8027,-1.8145,-1.8224,-1.8727,-1.9251,-1.9743,-2.0413,-2.1103,-2.1493,-2.0632,-2.005,-1.969,-1.969,-1.969,-1.969,-1.969,-1.969,-1.969,-1.969,-1.969,-1.969,-1.969,-1.9874,-1.9836,-1.918,-1.8314,0.0,0.0,0.0,0.0,0.0,0.0,0.0,0.0,0.0,0.0,0.0,0.0,0.0,0.0,0.0,0.0,0.0,0.0,0.0,0.0,0.0,0.0,0.0,0.0,0.0,-1.5141,-1.5141,-1.4732,-1.3956,-1.4283,-1.472,-1.5185,-1.4835,-1.6231,-1.8715,-1.9475,-1.9798,-1.9798,-1.9798,-2.0607,-2.1932,-2.3172,-2.3595,-2.3984,0.0,-1.8062,0.0,0.0,-2.0154,0.0,-1.9765,-1.969,-1.969,-1.969,-1.969,-1.969,-1.969,-1.969,-1.969,-1.969,-1.969,-1.969,-1.969,-1.969,-1.969,-1.969,-1.969,-1.969,-1.969,-1.969,-1.969,0.0,0.0,0.0,0.0,-0.9196,-0.8847,-0.8844,0.0,0.0,0.0,0.0,-1.7963,-1.6415,-1.7263,-1.7585,-1.7626,-1.7987,-1.8185,-1.8341,-1.8727,-1.8968,-1.908,-1.908,-1.9722,-2.0548,-2.0648,-2.137,-2.2003,-2.1229,-2.0499,-1.9945,-1.9747,-1.969,-1.969,-1.969,-1.9747,-1.9818,-1.9711,-1.9782,-1.9818,-1.9711,-1.9929,-2.0027,-1.951,-1.8694,0.0,0.0,0.0,0.0,0.0,0.0,0.0,0.0,0.0,0.0,0.0,0.0,0.0,0.0,0.0,0.0,0.0,0.0,0.0,0.0,0.0,-1.6768,-1.6785,0.0,-1.5231,0.0,-1.4514,-1.4201,-1.3637,-1.4236,-1.5155,-1.6176,-1.5081,-1.5935,-1.8167,-1.9307,-1.9798,-1.985,-2.0421,-2.1838,-2.3595,-2.3595,-2.3595,-2.3984,0.0,0.0,0.0,0.0,0.0,0.0,0.0,-1.969,-1.969,-1.969,-1.969,-1.969,-1.969,-1.969,-1.969,-1.969,-1.969,-1.969,-1.969,-1.969,-1.969,-1.969,-1.969,-1.969,-1.969,-1.969,-1.969,0.0,0.0,0.0,0.0,-1.0178,-0.9801,-1.155,0.0,0.0,0.0,-1.7531,-1.6672,-1.6536,-1.7286,-1.7947,-1.8458,-1.8224,-1.8419,-1.8817,-1.8893,-1.9207,-1.9639,-1.9639,-1.9929,-2.0382,-2.0829,-2.1291,-2.1568,-2.1118,-2.0926,-2.0714,-1.9909,-1.969,-1.969,-1.969,-1.9965,-2.0158,-1.9782,-1.9965,-2.0158,-1.9782,-1.9726,-1.9677,-1.9445,-1.9463,-1.9095,0.0,0.0,0.0,0.0,0.0,0.0,0.0,0.0,0.0,0.0,0.0,0.0,0.0,0.0,0.0,0.0,0.0,0.0,-1.5302,0.0,-1.544,-1.5037,-1.5405,-1.5039,-1.3862,-1.3862,-1.3552,-1.3017,-1.36,-1.4796,-1.6382,-1.6264,-1.7459,-1.9579,-1.9747,-1.9798,-2.0042,-2.2363,-2.3406,-2.3595,-2.3595,-2.3595,-2.3984,0.0,0.0,0.0,0.0,0.0,0.0,0.0,-2.2039,-2.2039,-2.2039,-2.0662,-1.969,-1.969,-1.969,-1.969,-1.969,-2.0681,-2.126,-2.126,-2.126,-2.126,-2.126,-2.126,-2.126,-2.126,-2.126,-2.126,0.0,0.0,0.0,0.0,0.0,0.0,0.0,0.0,-1.8028,-1.7706,-1.6879,-1.6879,-1.7544,-1.8496,-1.8817,-1.8817,-1.9006,-1.9207,-1.9369,-1.9369,-1.953,-1.9747,-1.9965,-2.0364,-2.0764,-2.0926,-2.1275,-2.1521,-2.1118,-2.0797,-2.0449,-1.9839,-1.9874,-2.0054,-2.0054,-2.0398,-2.0583,-2.0158,-2.0177,-2.0193,-1.9782,-1.969,-1.9728,-1.9922,-1.9496,-1.906,0.0,0.0,0.0,0.0,0.0,0.0,0.0,0.0,0.0,0.0,0.0,0.0,0.0,0.0,-0.9454,-1.1187,0.0,0.0,-1.3918,0.0,-1.4777,-1.437,-1.4451,-1.4272,-1.3815,-1.4143,-1.4201,-1.4025,-1.4971,-1.6157,-1.7531,-1.8139,-1.8978,-1.9798,-1.9798,-2.0706,-2.2179,-2.3216,-2.3595,-2.3595,-2.3595,-2.3595,-2.3744,-2.1757,0.0,-2.3595,0.0,-2.3595,-2.3595,-2.3595,-2.3595,-2.3837,-2.4415,-2.2889,-2.1757,-2.1757,-2.1757,-2.1408,-2.0543,-2.1584,-2.231,-2.231,-2.231,-2.2077,-2.1554,-2.202,0.0,-2.231,-2.231,-2.231,-2.231,-2.231,0.0,0.0,-1.6466,0.0,0.0,-1.8886,-1.8496,-1.6602,-1.7995,-1.859,-1.8693,-1.9952,-2.0086,-1.9549,-2.0102,-2.0369,-2.05,-2.05,-2.0609,-2.0757,-2.1058,-2.1466,-2.1779,-2.1327,-2.1368,-2.1521,-2.1118,-2.0665,-2.0212,-1.9818,-2.0,-2.0314,-2.0314,-2.0649,-2.0862,-2.0416,-2.0314,-2.0212,-1.9929,-1.9874,-1.9965,-2.0246,-1.9687,-1.923,-1.9373,0.0,0.0,0.0,0.0,0.0,0.0,0.0,-1.6089,-1.5384,0.0,0.0,0.0,0.0,-1.0246,-1.1365,0.0,0.0,0.0,0.0,0.0,0.0,-1.3779,-1.3732,-1.3552,-1.4154,-1.4606,-1.4903,-1.6349,-1.7451,-1.8267,-1.9334,-1.9798,-1.985,-2.0607,-2.1979,-2.3595,-2.3595,-2.3595,-2.3595,-2.3595,-2.3595,-2.3595,-2.6607,-2.5003,-2.3595,-2.3595,-2.3595,-2.3595,-2.3595,-2.3595,-2.4333,-2.6385,-2.6624,-2.6607,-2.6607,-2.6607,-2.5441,-2.2535,-2.2282,-2.231,-2.231,-2.231,-2.1524,0.0,0.0,-2.231,-2.231,-2.231,-2.231,-2.231,0.0,0.0,-2.2231,-2.0454,-1.9636,-1.963,-1.9675,-1.8496,-1.682,-2.1499,-2.2013,-1.9839,-2.156,-2.1739,-2.1021,-2.15,-2.1972,-2.2366,-2.2366,-2.2697,-2.316,-2.316,-2.3468,-2.3588,-2.2073,-2.1598,-2.1521,-2.1118,-2.0665,-2.0212,-1.9818,-2.0,-2.0314,-2.0314,-2.0649,-2.0862,-2.0416,-2.0314,-2.0314,-2.028,-2.028,-2.028,-2.0314,-2.028,-1.9951,-1.8868,0.0,0.0,0.0,0.0,0.0,0.0,-1.7409,-1.6033,-1.7158,0.0,0.0,0.0,0.0,0.0,0.0,0.0,0.0,-1.3753,-1.4442,0.0,-1.3041,-1.3548,-1.3505,-1.2929,-1.3505,-1.4329,-1.5345,-1.7294,-1.8191,-1.8267,-1.9334,-1.9798,-1.9991,-2.25,-2.3551,-2.3595,-2.3595,-2.3595,-2.3595,-2.3595,-2.3595,-2.3595,-2.6691,-2.6158,-2.5265,-2.3837,-2.3595,-2.3595,-2.3595,-2.3595,-2.4333,-2.6419,-2.6691,-2.6691,-2.6691,-2.6691,-2.6319,0.0,-2.5304,-2.5304,0.0,-2.5304,-2.5045,-2.451,-2.4995,-2.5304,-2.5304,-2.3342,-2.231,-2.231,0.0,0.0,0.0,-1.9945,-1.969,-1.969,-1.969,-2.0303,-2.1456,-2.2964,-2.2772,-2.1539,-2.2608,-2.2586,-2.2024,-2.2535,-2.2801,-2.2945,-2.2945,-2.3051,-2.3262,-2.3568,-2.3769,-2.3786,-2.321,-2.254,-2.1762,-2.0791,-2.0416,-2.028,-2.0158,-2.0649,-2.1197,-2.1197,-2.1538,-2.1781,-2.129,-2.0975,-2.0797,-2.0797,-2.0797,-2.0797,-2.0797,-2.0516,-2.0302,-2.026,-2.0548,0.0,0.0,0.0,0.0,0.0,0.0,-1.771,0.0,-1.6282,0.0,0.0,0.0,0.0,0.0,0.0,0.0,0.0,-1.3522,0.0,-1.2483,-1.2922,-1.3286,-1.3505,-1.4154,-1.5017,-1.612,-1.6754,-1.7476,-1.8267,-1.9334,-1.9798,-1.9991,-2.2546,-2.3595,-2.3595,-2.3595,-2.3595,-2.3595,-2.3595,-2.3595,-2.3595,-2.6691,-2.6691,-2.6298,-2.4996,-2.4101,-2.3595,-2.3595,-2.4251,-2.5227,-2.6539,-2.6691,-2.6691,-2.6691,-2.6691,0.0,-2.6691,-2.6691,-2.6691,-2.6691,-2.6691,-2.6691,-2.6691,-2.6691,-2.6691,-2.6691,0.0,0.0,-2.3951,-2.2188,-2.0764,-1.969,-1.969,-2.0213,-2.1156,-2.1156,-2.2069,-2.3638,-2.4032,-2.3876,-2.3434,-2.388,-2.3541,-2.2858,-2.367,-2.4015,-2.4159,-2.4229,-2.4335,-2.4559,-2.4863,-2.4846,-2.4627,-2.428,-2.3583,-2.2623,-2.1311,-2.0789,-2.0674,-2.0579,-2.107,-2.1582,-2.1582,-2.1705,-2.1675,-2.1228,-2.091,-2.0797,-2.0959,-2.1118,-2.1181,-2.1039,-2.0764,-2.0649,-2.0959,-2.0783,-2.0559,-2.0508,0.0,0.0,0.0,0.0,0.0,0.0,-1.7748,0.0,0.0,0.0,0.0,0.0,0.0,0.0,-1.2815,-1.391,0.0,-1.314,-1.3418,-1.3789,-1.4143,-1.4732,-1.5555,-1.6522,-1.6522,-1.7137,-1.8267,-1.9334,-2.032,-2.1363,-2.2935,-2.3595,-2.3595,-2.3595,-2.3595,-2.3595,-2.3595,-2.3595,-2.3595,-2.6691,-2.6691,0.0,0.0,-2.5112,0.0,-2.3837,-2.5454,-2.6691,-2.6691,-2.6691,-2.6691,-2.6691,-2.6691,-2.6691,-2.6691,0.0,0.0,0.0,-2.6691,-2.6691,-2.6691,-2.6691,-2.6691,-2.6691,-2.5338,-2.524,-2.6488,-2.2122,-1.9959,-1.9959,-1.9959,-2.1261,-2.3595,-2.3595,-2.3595,-2.3681,-2.4816,-2.5297,-2.5259,-2.5259,-2.4595,-2.3733,-2.4862,-2.5486,-2.5799,-2.5997,-2.6332,-2.6691,-2.6691,-2.6401,-2.5933,-2.5291,-2.4746,-2.4044,-2.2527,-2.1755,-2.1358,-2.1182,-2.1386,-2.1658,-2.1658,-2.1337,-2.0926,-2.0483,-2.0382,-2.0516,-2.0991,-2.1368,-2.1491,-2.1118,-2.0991,-2.0959,-2.1023,-2.0399,-2.0042,-2.0402,0.0,0.0,0.0,0.0,0.0,0.0,-1.8962,-1.8885,0.0,0.0,0.0,0.0,0.0,-1.4048,-1.4761,-1.5326,-1.532,-1.4709,-1.4698,-1.4698,-1.4744,-1.5365,-1.5952,-1.6522,-1.6522,-1.7137,-1.8267,-1.9334,-2.1232,-2.3595,-2.3595,-2.3595,-2.3595,-2.3595,-2.3595,-2.3595,-2.3595,-2.3595,-2.3595,0.0,0.0,-2.6691,-2.6691,-2.6298,-2.5964,-2.5964,-2.6385,-2.6691,-2.6691,-2.6691,-2.6691,-2.6691,-2.6691,-2.6691,-2.6691,-2.6691,-2.6691,-2.6691,-2.6691,-2.6691,-2.6691,-2.6691,-2.6691,-2.6691,-2.6353,-2.5582,-2.4333,-2.3201,-2.2682,-2.2682,-2.2682,-2.3011,-2.3595,-2.3595,-2.3595,-2.3709,-2.5566,-2.6052,-2.5615,-2.5762,-2.5648,-2.5468,-2.6092,-2.6385,-2.647,-2.6505,-2.6624,-2.6691,-2.6691,-2.6624,-2.6437,-2.5922,-2.5678,-2.5239,-2.3439,-2.265,-2.2362,-2.2295,-2.2209,-2.2135,-2.2135,-2.1794,-2.143,-2.1321,-2.129,-2.143,-2.1915,-2.1764,-2.1582,-2.146,-2.091,-2.0682,-2.1368,-2.0569,-1.9954,-2.0114,-1.99,0.0,0.0,-1.9727,-1.9787,-1.8984,-1.9545,-1.92,0.0,0.0,0.0,0.0,-1.6009,-1.5478,-1.4796,-1.5326,-1.532,-1.4709,-1.4698,-1.4926,-1.541,-1.6008,-1.638,-1.6522,-1.6522,-1.7137,-1.8267,-1.9334,-2.1232,-2.3595,-2.3595,-2.3595,-2.3595,-2.3595,-2.3595,-2.3595,-2.3595,-2.3595,-2.3595,-2.6691,-2.6691,-2.7131,-2.8518,-2.7604,-2.7148,-2.8552,-2.8755,-2.8755,-2.8755,-2.8755,-2.823,-2.6843,-2.6691,-2.6691,-2.6691,-2.6691,-2.6691,-2.6691,-2.6691,-2.6691,-2.6691,-2.6691,-2.6264,-2.5303,-2.6229,-2.5693,-2.3595,-2.3595,-2.3595,-2.3595,-2.3595,-2.3595,-2.3638,-2.4601,-2.5035,-2.5112,-2.6229,-2.6505,-2.6175,-2.6297,-2.6332,-2.6367,-2.6624,-2.6505,-2.6245,-2.6367,-2.6367,-2.6367,-2.6367,-2.6367,-2.6367,-2.6332,-2.6191,-2.5848,-2.504,-2.4247,-2.3572,-2.3148,-2.2925,-2.263,-2.1893,-2.1337,-2.1007,-2.1007,-2.1007,-2.1134,-2.1615,-2.1507,-2.1337,-2.1337,-2.0765,-2.044,-2.0807,-2.0129,-1.9604,-1.9741,-1.9605,0.0,-1.961,-1.9979,-2.0056,-1.9593,-2.0007,-1.9693,-1.8194,0.0,0.0,-1.7395,-1.7285,-1.6837,-1.5978,-1.5979,-1.5996,-1.5872,-1.5644,-1.57,-1.6008,-1.6324,-1.6522,-1.6522,-1.6522,-1.7137,-1.8267,-1.9334,-2.1232,-2.3595,-2.3595,-2.3595,-2.3595,-2.3595,-2.3595,-2.3595,-2.3595,-2.3595,-2.3595,-2.7368,-2.7368,-2.818,-3.0751,-2.9076,-2.823,-3.0801,-3.119,-3.119,-3.119,-3.119,-3.0209,-2.7655,-2.7368,-2.7368,-2.7368,-2.6962,-2.6691,-2.6691,-2.6691,-2.6691,-2.6691,-2.6691,-2.573,-2.3638,-2.5341,-2.5379,-2.3595,-2.3595,-2.3595,-2.3595,-2.3595,-2.3752,-2.4142,-2.5911,-2.6691,-2.6691,-2.6691,-2.6691,-2.6691,-2.6691,-2.6691,-2.6691,-2.6624,-2.6245,-2.5762,-2.5852,-2.5924,-2.6013,-2.6013,-2.6049,-2.6191,-2.659,-2.6436,-2.6191,-2.6573,-2.5933,-2.4845,-2.386,-2.3363,-2.2772,-2.1343,-2.0649,-2.0314,-2.0314,-2.0314,-2.0449,-2.0894,-2.0926,-2.0894,-2.0894,-2.0516,-2.0131,-1.9939,-1.9515,-1.9264,-1.9399,0.0,-1.9338,-2.0299,-2.0138,-2.0067,-2.0302,-2.0252,-2.0081,-1.9711,-1.9292,-1.8987,0.0,-1.8474,-1.8032,-1.7544,-1.7034,-1.6909,-1.7312,-1.6752,-1.6522,-1.6522,-1.6522,-1.6522,-1.6522,-1.6522,-1.7137,-1.8267,-1.9334,-2.1232,-2.3595,-2.3595,-2.3595,-2.3595,-2.3595,-2.3595,-2.3595,-2.3595,-2.3595,-2.3595,-3.0497,-3.0497,-3.0649,-3.1106,-3.0801,-3.0649,-3.1123,-3.119,-3.119,-3.119,-3.119,-3.1021,-3.0548,-3.0497,-3.0497,-3.0497,-2.8163,-2.6691,-2.6691,-2.6691,-2.6691,-2.6691,-2.6691,-2.573,-2.3638,-2.3906,-2.3906,-2.3595,-2.3595,-2.3595,-2.3595,-2.3595,-2.4536,-2.6229,-2.6573,-2.6691,-2.6691,-2.6691,-2.6691,-2.6691,-2.6691,-2.6691,-2.6657,-2.6262,-2.6033,-2.5888,-2.5503,-2.5615,-2.6013,-2.6013,-2.6262,-2.6624,-2.6691,-2.6657,-2.6624,-2.6691,-2.6573,-2.6084,-2.4712,-2.312,-2.173,-2.115,-2.0649,-2.0314,-2.0314,-2.0314,-2.0449,-2.0894,-2.0682,-2.0416,-2.0416,-2.007,-1.9732,-1.9527,-1.9338,-1.9138,-1.9004,0.0,-1.9794,-1.9981,-2.0145,-2.0258,-2.0299,-1.9984,-1.9767,-1.9711,-1.9609,-1.9376,-1.8907,-1.8841,-1.875,-1.865,-1.8145,-1.7666,-1.7312,-1.6752,-1.6522,-1.6522,-1.6522,-1.6522,-1.6522,-1.6522,-1.7137,-1.8267,-1.9334,-2.1232,-2.3595,-2.3595,-2.3595,-2.3595,-2.3595,-2.3595,-2.3595,-2.3595,-2.3595,-2.3595,-3.119,-3.119,-3.119,-3.119,-3.119,-3.119,-3.119,-3.119,-3.119,-3.119,-3.119,-3.119,-3.119,-3.119,-3.119,-3.119,-2.9922,-2.911,-2.911,-2.7588,-2.6691,-2.6691,-2.564,-2.4561,-2.3638,-2.3595,-2.3595,-2.3595,-2.3595,-2.3595,-2.3595,-2.3595,-2.4721,-2.6691,-2.6691,-2.6691,-2.6691,-2.6691,-2.6691,-2.6691,-2.6691,-2.647,-2.6139,-2.6033,-2.5652,-2.5144,-2.5182,-2.5373,-2.5615,-2.5888,-2.6297,-2.6691,-2.6691,-2.6691,-2.6691,-2.6691,-2.642,-2.583,-2.4526,-2.306,-2.1682,-2.0843,-2.0296,-1.9965,-1.9965,-1.9965,-2.0035,-2.0243,-2.0139,-1.9965,-1.9965,-1.9854,-1.9536,-1.9113,-1.9262,0.0,0.0,-1.9736,-2.0193,-2.0464,-2.0362,-2.0314,-2.0314,-1.9945,-1.969,-1.969,-1.9909,-1.9914,-1.9671,-1.9636,-1.9636,-1.9636,-1.8622,-1.7827,-1.7312,-1.6752,-1.6637,-1.6909,-1.6909,-1.7076,-1.7353,-1.7146,-1.7626,-1.8695,-2.0904,-2.25,-2.3595,-2.3595,-2.3595,-2.3595,-2.3595,-2.3595,-2.3595,-2.3595,-2.3595,-2.3595,-3.119,-3.119,-3.119,-3.119,-3.119,-3.119,-3.119,-3.119,-3.119,-3.119,-3.119,-3.119,-3.119,-3.119,-3.119,-3.119,-3.119,-3.119,-3.119,-2.9025,-2.7494,-2.6932,-2.4797,-2.3595,-2.3595,-2.3595,-2.3595,-2.3595,-2.3595,-2.3837,-2.4333,-2.4333,-2.5189,-2.6691,-2.6691,-2.6691,-2.6691,-2.6691,-2.6691,-2.6691,-2.6691,-2.6385,-2.5908,-2.5835,-2.5259,-2.4527,-2.495,-2.5144,-2.5297,-2.5815,-2.6297,-2.6691,-2.6691,-2.6691,-2.6691,-2.6691,-2.6302,-2.5628,-2.4596,-2.3227,-2.1887,-2.0944,-2.0212,-1.969,-1.969,-1.969,-1.969,-1.969,-1.9782,-1.9803,-1.9711,-1.9782,-1.9592,-1.8807,0.0,0.0,0.0,-1.9911,-2.0483,-2.0926,-2.0583,-2.0314,-2.0314,-1.9945,-1.969,-1.969,-2.0,-2.0158,-2.0158,-2.0158,-2.0108,-1.9989,-1.8774,-1.7827,-1.7312,-1.6879,-1.6879,-1.7312,-1.7422,-1.7706,-1.8106,-1.7827,-1.8113,-1.8975,-2.1612,-2.3093,-2.3595,-2.3595,-2.3595,-2.3595,-2.3595,-2.3595,-2.3595,-2.3595,-2.3595,-2.3595,-3.119,-3.119,-3.119,-3.119,-3.119,-3.119,-3.119,-3.119,-3.119,-3.119,-3.119,-3.119,-3.119,-3.119,-3.119,-3.119,-3.119,-3.119,-3.119,-3.0987,-2.988,-2.764,-2.5002,-2.3595,-2.3595,-2.3595,-2.3595,-2.3595,-2.3595,-2.4601,-2.6454,-2.6454,-2.6539,-2.6691,-2.6691,-2.6691,-2.6691,-2.6691,-2.6691,-2.6691,-2.6691,-2.6657,-2.6539,-2.5598,-2.5005,-2.4664,-2.4719,-2.4926,-2.5297,-2.5815,-2.6297,-2.6691,-2.6691,-2.6691,-2.6691,-2.6691,-2.6657,-2.6454,-2.5695,-2.3836,-2.2066,-2.1984,-2.0829,-1.969,-1.969,-1.969,-1.969,-1.969,-2.0,-2.0158,-1.9782,-2.0,-1.9894,-1.8876,0.0,0.0,-1.9429,-1.9911,-2.0483,-2.0926,-2.0583,-2.0314,-2.0314,-1.9945,-1.969,-1.969,-1.9726,-1.9747,-1.9747,-1.9747,-1.9515,-1.9043,-1.8419,-1.7827,-1.7312,-1.7271,-1.7271,-1.7312,-1.7787,-1.8066,-1.8106,-1.8066,-1.8252,-1.8676,-1.9798,-2.1549,-2.3595,-2.3595,-2.3595,-2.3595,-2.3595,-2.3595,-2.3595,-2.3595,-2.3595,-2.3595,-3.119,-3.119,-3.119,-3.119,-3.119,-3.119,-3.119,-3.119,-3.119,-3.119,-3.119,-3.119,-3.119,-3.119,-3.119,-3.119,-3.119,-3.119,-3.119,-3.119,-3.0781,-2.9876,-2.8876,-2.6818,-2.3668,-2.3595,-2.3595,-2.3595,-2.4879,-2.5928,-2.6691,-2.6691,-2.6691,-2.6691,-2.6691,-2.6691,-2.6691,-2.6691,-2.6691,-2.6691,-2.6691,-2.6691,-2.6657,-2.628,-2.5243,-2.4105,-2.4558,-2.5044,-2.5598,-2.621,-2.6539,-2.6691,-2.6691,-2.6691,-2.6691,-2.6691,-2.6691,-2.664,-2.6353,-2.5113,-2.3567,-2.2099,-2.1253,-2.062,-1.9888,-1.969,-1.969,-1.969,-2.0035,-2.0246,-2.0089,-2.0177,-2.0169,-1.9752,0.0,-2.0047,-1.9955,-2.0606,-2.1165,-2.1337,-2.0975,-2.0715,-2.0715,-2.012,-1.969,-1.969,-1.9929,-2.0054,-2.0054,-1.9808,-1.9398,-1.893,-1.838,-1.7987,-1.7787,-1.7463,-1.7626,-1.8302,-1.8496,-1.8765,-1.9095,-1.9095,-1.9388,-1.9912,-1.9824,-2.0789,-2.2473,-2.3266,-2.3595,-2.3595,-2.3595,-2.3595,-2.3595,-2.3595,-2.3595,-2.3595,-3.119,-3.119,-3.119,-3.119,-3.119,-3.119,-3.119,-3.119,-3.119,-3.119,-3.119,-3.119,-3.119,-3.119,-3.119,-3.119,-3.119,-3.119,-3.119,-3.119,-3.119,-3.119,-3.119,-2.9556,-2.6073,-2.5055,-2.4561,-2.4561,-2.5999,-2.7182,-2.8078,-2.7131,-2.6691,-2.6691,-2.6691,-2.6691,-2.6691,-2.6691,-2.6691,-2.6691,-2.6691,-2.6691,-2.6691,-2.6691,-2.5803,-2.4641,-2.5144,-2.554,-2.5872,-2.6505,-2.6691,-2.6691,-2.6691,-2.6691,-2.6691,-2.6691,-2.6691,-2.6691,-2.6691,-2.6152,-2.5027,-2.2785,-2.1874,-2.1228,-2.0132,-1.9874,-1.9874,-1.9874,-2.033,-2.0634,-2.0348,-2.0416,-2.0483,-2.0314,-2.0314,-2.0416,-2.0667,-2.1228,-2.1658,-2.1794,-2.1323,-2.0991,-2.0991,-2.0208,-1.969,-1.969,-1.998,-2.0054,-1.9884,-1.9405,-1.8999,-1.865,-1.8145,-1.8027,-1.8341,-1.7987,-1.8185,-1.8893,-1.908,-1.9332,-1.969,-1.969,-1.9944,-2.0363,-1.9884,-2.0213,-2.1126,-2.2009,-2.2862,-2.3595,-2.3595,-2.3595,-2.3595,-2.3595,-2.3595,-2.3595,-3.119,-3.119,-3.119,-3.119,-3.119,-3.119,-3.119,-3.119,-3.119,-3.119,-3.119,-3.119,-3.119,-3.119,-3.119,-3.119,-3.119,-3.119,-3.119,-3.119,-3.119,-3.119,-3.119,-3.119,-3.119,-2.823,-2.6691,-2.6691,-2.6691,-2.823,-3.1089,-2.8129,-2.6708,-2.6691,-2.6691,-2.6691,-2.6691,-2.6691,-2.6691,-2.6691,-2.6691,-2.6691,-2.6691,-2.6691,-2.6691,-2.6691,-2.6691,-2.6401,-2.6085,-2.6556,-2.6691,-2.6691,-2.6691,-2.6691,-2.6691,-2.6691,-2.6691,-2.6691,-2.6691,-2.6691,-2.6236,-2.4365,-2.271,-2.1284,-2.0485,-2.0314,-2.0299,-2.0314,-2.0991,-2.1337,-2.0483,-2.0682,-2.0862,-2.0382,-2.0314,-2.0601,-2.1491,-2.1582,-2.1794,-2.2237,-2.1524,-2.0991,-2.0991,-2.0208,-1.969,-1.969,-1.969,-1.9479,-1.893,-1.8419,-1.8106,-1.8106,-1.7585,-1.7827,-1.8893,-1.8893,-1.8893,-1.8893,-1.9442,-1.969,-1.969,-1.969,-1.969,-1.969,-1.969,-1.969,-1.969,-1.969,-2.1216,-2.3565,-2.3595,-2.3595,-2.3595,-2.3595,-2.3595,-2.3595,-3.119,-3.119,-3.119,-3.119,-3.119,-3.119,-3.119,-3.119,-3.119,-3.119,-3.119,-3.119,-3.119,-3.119,-3.119,-3.119,-3.119,-3.119,-3.119,-3.119,-3.119,-3.119,-3.119,-3.119,-3.119,-2.823,-2.6691,-2.6691,-2.6691,-2.7148,-2.8061,-2.9279,-2.8721,-2.6691,-2.6691,-2.6691,-2.6691,-2.6691,-2.6691,-2.6691,-2.6691,-2.6691,-2.6691,-2.6691,-2.6691,-2.6691,-2.6691,-2.6624,-2.6505,-2.6657,-2.6691,-2.6691,-2.6691,-2.6691,-2.6691,-2.6691,-2.6691,-2.6691,-2.6691,-2.6691,-2.6236,-2.4365,-2.3538,-2.2665,-2.0749,-2.055,-2.0698,-2.0382,-2.0991,-2.1521,-2.1259,-2.1337,-2.1368,-2.1228,-2.1228,-2.129,-2.1552,-2.1899,-2.2135,-2.2282,-2.1524,-2.0991,-2.0991,-2.0208,-1.969,-1.969,-1.969,-1.9639,-1.9479,-1.8968,-1.8817,-1.9207,-1.8688,-1.8887,-1.9884,-1.9251,-1.9095,-1.9442,-1.9603,-1.969,-1.969,-1.969,-1.969,-1.969,-1.969,-1.969,-1.969,-1.969,-2.0154,-2.1036,-2.2877,-2.3595,-2.3595,-2.3595,-2.3595,-2.3595,-3.119,-3.119,-3.119,-3.119,-3.119,-3.119,-3.119,-3.119,-3.119,-3.119,-3.119,-3.119,-3.119,-3.119,-3.119,-3.119,-3.119,-3.119,-3.119,-3.119,-3.119,-3.119,-3.119,-3.119,-3.119,-2.9397,-2.8467,-2.8467,-2.8467,-2.7858,-2.6759,-2.9786,-3.0226,-2.8467,-2.8467,-2.7807,-2.6691,-2.6691,-2.6691,-2.6691,-2.6691,-2.7402,-2.8467,-2.8467,-2.774,-2.6691,-2.6691,-2.6691,-2.6691,-2.6691,-2.6691,-2.6691,-2.6691,-2.6691,-2.6691,-2.6691,-2.6691,-2.6691,-2.6691,-2.6691,-2.637,-2.4929,-2.4215,-2.3441,-2.1664,-2.1231,-2.115,-2.0862,-2.1368,-2.1823,-2.1628,-2.1582,-2.1582,-2.1582,-2.1582,-2.1658,-2.1853,-2.2106,-2.231,-2.231,-2.1524,-2.0991,-2.0991,-2.0208,-1.969,-1.969,-1.969,-1.9603,-1.9406,-1.908,-1.9118,-1.9645,-1.9361,-1.9636,-2.055,-2.0024,-1.9899,-2.0208,-2.005,-1.998,-2.0065,-2.0065,-1.9925,-1.969,-1.969,-2.0085,-2.0731,-2.0731,-2.0311,-1.9839,-2.1425,-2.2682,-2.3595,-2.3595,-2.3595,-2.3595,-3.119,-3.119,-3.119,-3.119,-3.119,-3.119,-3.119,-3.119,-3.119,-3.119,-3.119,-3.119,-3.119,-3.119,-3.119,-3.119,-3.119,-3.119,-3.119,-3.119,-3.119,-3.119,-3.119,-3.119,-3.119,-3.119,-3.1055,-3.0801,-3.1055,-2.9786,-2.7148,-2.9905,-3.119,-3.119,-3.119,-2.9668,-2.7097,-2.7097,-2.7097,-2.7097,-2.7097,-2.8738,-3.119,-3.119,-2.9482,-2.708,-2.6996,-2.6877,-2.6793,-2.6708,-2.6691,-2.6691,-2.6691,-2.6691,-2.6691,-2.6691,-2.6691,-2.6691,-2.6691,-2.6691,-2.6539,-2.5879,-2.4878,-2.3802,-2.2895,-2.2203,-2.1724,-2.1628,-2.1957,-2.218,-2.1718,-2.1658,-2.1658,-2.1658,-2.1658,-2.1794,-2.2237,-2.2254,-2.2237,-2.2237,-2.1462,-2.0926,-2.0926,-2.0174,-1.969,-1.969,-1.969,-1.9479,-1.9006,-1.9006,-1.92,-1.9656,-1.9677,-2.0131,-2.1023,-2.1023,-2.0991,-2.0991,-2.055,-2.0465,-2.0597,-2.0614,-2.0292,-1.9726,-1.9839,-2.0829,-2.231,-2.231,-2.126,-1.969,-1.969,-2.1141,-2.3251,-2.3251,-2.34,-2.3595,-3.119,-3.119,-3.119,-3.119,-3.119,-3.119,-3.119,-3.119,-3.119,-3.119,-3.119,-3.119,-3.119,-3.119,-3.119,-3.119,-3.119,-3.119,-3.119,-3.119,-3.119,-3.119,-3.119,-3.119,-3.119,-3.119,-3.004,-2.7672,-3.004,-3.0869,-3.0226,-3.0886,-3.119,-3.119,-3.119,-3.0835,-3.0209,-3.0209,-3.0209,-3.0209,-3.0209,-3.0615,-3.119,-3.119,-3.0784,-3.0108,-2.9313,-2.8399,-2.7486,-2.6894,-2.6691,-2.6691,-2.6691,-2.6691,-2.6691,-2.6691,-2.6691,-2.6691,-2.6691,-2.6691,-2.6657,-2.6488,-2.5848,-2.4809,-2.3074,-2.2879,-2.2748,-2.1804,-2.1957,-2.2282,-2.218,-2.2152,-2.2152,-2.2152,-2.2152,-2.218,-2.2282,-2.1974,-2.1748,-2.1748,-2.0975,-2.0449,-2.0449,-2.0015,-1.969,-1.969,-1.969,-1.9639,-1.953,-1.9844,-2.0024,-2.0128,-2.0501,-2.0943,-2.146,-2.115,-2.0991,-2.0991,-2.0894,-2.078,-2.0597,-2.0812,-2.0481,-1.9782,-2.1134,-2.1945,-2.231,-2.231,-2.126,-1.969,-1.969,-2.0034,-2.0543,-2.0543,-2.1829,-2.3595,-3.119,-3.119,-3.119,-3.119,-3.119,-3.119,-3.119,-3.119,-3.119,-3.119,-3.119,-3.119,-3.119,-3.119,-3.119,-3.119,-3.119,-3.119,-3.119,-3.119,-3.119,-3.119,-3.119,-3.119,-3.119,-3.119,-3.0429,-2.8839,-3.0429,-3.119,-3.119,-3.119,-3.119,-3.119,-3.119,-3.119,-3.119,-3.119,-3.119,-3.1252,-3.2109,-3.195,-3.119,-3.119,-3.0886,-3.0345,-2.9347,-2.8247,-2.7232,-2.6826,-2.6691,-2.6691,-2.6691,-2.6691,-2.6691,-2.6691,-2.6691,-2.6691,-2.6691,-2.6691,-2.6691,-2.6691,-2.6404,-2.5763,-2.4409,-2.3715,-2.3216,-2.2588,-2.237,-2.231,-2.231,-2.231,-2.2237,-2.2003,-2.1974,-2.1899,-2.1721,-2.1477,-2.1368,-2.1582,-2.1039,-2.0616,-2.0616,-2.0431,-2.0311,-2.0311,-2.0311,-2.0311,-2.0311,-2.0532,-2.0715,-2.0894,-2.1181,-2.1507,-2.1928,-2.1721,-2.1615,-2.1615,-2.1385,-2.1323,-2.1401,-2.157,-2.1354,-2.0991,-2.1915,-2.231,-2.231,-2.231,-2.126,-1.969,-1.969,-1.969,-1.969,-1.969,-2.1335,-2.3595,-3.119,-3.119,-3.119,-3.119,-3.119,-3.119,-3.119,-3.119,-3.119,-3.119,-3.119,-3.119,-3.119,-3.119,-3.119,-3.119,-3.119,-3.119,-3.119,-3.119,-3.119,-3.119,-3.1291,-3.1368,-3.1368,-3.1389,-3.1368,-3.119,-3.119,-3.119,-3.119,-3.119,-3.119,-3.119,-3.119,-3.119,-3.119,-3.119,-3.119,-3.1329,-3.2759,-3.2663,-3.162,-3.1329,-3.0641,-2.9751,-2.8842,-2.7858,-2.6928,-2.6759,-2.6691,-2.6691,-2.6691,-2.6691,-2.6691,-2.6691,-2.6691,-2.6691,-2.6691,-2.6691,-2.6691,-2.6691,-2.6691,-2.6539,-2.593,-2.4746,-2.3697,-2.3444,-2.2919,-2.2462,-2.2327,-2.231,-2.2163,-2.1794,-2.1718,-2.1598,-2.126,-2.115,-2.1213,-2.1552,-2.1244,-2.0991,-2.0991,-2.0991,-2.0991,-2.0991,-2.0991,-2.0991,-2.0991,-2.1055,-2.1244,-2.1582,-2.1688,-2.1899,-2.231,-2.231,-2.231,-2.2282,-2.1899,-2.1869,-2.2152,-2.2237,-2.231,-2.231,-2.231,-2.231,-2.231,-2.231,-2.126,-1.969,-1.969,-1.969,-1.9762,-2.0015,-2.1528,-2.3386,-3.119,-3.119,-3.119,-3.119,-3.119,-3.119,-3.119,-3.119,-3.119,-3.119,-3.119,-3.119,-3.119,-3.119,-3.119,-3.119,-3.119,-3.119,-3.119,-3.119,-3.119,-3.119,-3.1694,-3.1967,-3.1967,-3.2196,-3.195,-3.119,-3.119,-3.119,-3.119,-3.119,-3.119,-3.119,-3.119,-3.119,-3.119,-3.119,-3.119,-3.123,-3.1466,-3.2298,-3.3266,-3.1787,-3.0908,-3.0421,-3.0009,-2.9059,-2.7858,-2.6996,-2.6691,-2.6691,-2.6691,-2.6691,-2.6691,-2.6691,-2.6691,-2.6691,-2.6691,-2.6691,-2.6691,-2.6691,-2.6691,-2.6674,-2.6573,-2.5896,-2.4949,-2.3663,-2.3325,-2.3054,-2.2429,-2.231,-2.2282,-2.2209,-2.2209,-2.218,-2.2135,-2.1764,-2.1521,-2.1582,-2.1244,-2.0991,-2.0991,-2.0991,-2.0991,-2.0991,-2.0991,-2.0991,-2.0991,-2.1337,-2.1552,-2.1582,-2.2003,-2.2237,-2.231,-2.231,-2.231,-2.231,-2.2237,-2.1974,-2.1538,-2.2077,-2.231,-2.231,-2.231,-2.231,-2.231,-2.231,-2.126,-1.969,-1.969,-1.969,-1.9889,-2.1385,-2.2165,-2.2468,-3.119,-3.119,-3.119,-3.119,-3.119,-3.119,-3.119,-3.119,-3.119,-3.119,-3.119,-3.119,-3.119,-3.119,-3.119,-3.119,-3.119,-3.1389,-3.1878,-3.1804,-3.1768,-3.1932,-3.2039,-3.2283,-3.2601,-3.2996,-3.3027,-3.2663,-3.2663,-3.2663,-3.2663,-3.2663,-3.2663,-3.2663,-3.2663,-3.2109,-3.119,-3.119,-3.175,-3.2598,-3.2109,-3.2282,-3.2809,-3.2451,-3.2035,-3.1561,-3.0699,-2.9075,-2.73,-2.6843,-2.6691,-2.6691,-2.6691,-2.6691,-2.6691,-2.6691,-2.6691,-2.6691,-2.6691,-2.6691,-2.6691,-2.6691,-2.6691,-2.6691,-2.6691,-2.6437,-2.5913,-2.4847,-2.3968,-2.3291,-2.297,-2.2581,-2.2209,-2.1957,-2.1899,-2.184,-2.1615,-2.1415,-2.1337,-2.1582,-2.1675,-2.1721,-2.1721,-2.1721,-2.1721,-2.1721,-2.1721,-2.1721,-2.1721,-2.1899,-2.2003,-2.2003,-2.218,-2.231,-2.231,-2.231,-2.231,-2.231,-2.231,-2.2152,-2.1899,-2.184,-2.1974,-2.231,-2.231,-2.231,-2.231,-2.231,-2.1857,-2.1166,-2.1166,-2.1166,-2.126,-2.202,-2.231,-2.231]},{"header":{"parameterUnit":"m.s-1","parameterCategory":1,"la1":30.6,"la2":28.766,"lo1":-90.7593,"lo2":-88.6598,"dy":0.0162,"dx":0.0183,"nx":116,"ny":114,"refTime":"2024-07-10T06:00:00:Z","depth":0,"parameterNumber":3,"parameterNumberName":"V-component_of_WINDS"},"data":[0.0,0.0,0.0,0.0,0.0,0.0,0.0,0.0,0.0,0.0,0.0,0.0,0.0,0.0,0.0,0.0,0.0,0.0,0.0,0.0,0.0,0.0,0.0,0.0,0.0,0.0,0.0,0.0,0.0,0.0,0.0,0.0,0.0,0.0,0.0,0.0,0.0,0.0,0.0,0.0,0.0,0.0,0.0,0.0,0.0,0.0,0.0,0.0,0.0,0.0,0.0,0.0,0.0,0.0,0.0,0.0,0.0,0.0,0.0,0.0,0.0,0.0,0.0,0.0,0.0,0.0,0.0,0.0,0.0,0.0,0.0,0.0,0.0,0.0,0.0,0.0,0.0,0.0,0.0,0.0,0.0,0.0,0.0,0.0,0.0,0.0,0.0,0.0,0.0,0.0,0.0,0.0,0.0,0.0,0.0,0.0,0.0,0.0,0.0,0.0,0.0,0.0,0.0,0.0,0.0,0.0,0.0,0.0,0.0,0.0,0.0,0.0,0.0,0.0,0.0,0.0,0.0,0.0,0.0,0.0,0.0,0.0,0.0,0.0,0.0,0.0,0.0,0.0,0.0,0.0,0.0,0.0,0.0,0.0,0.0,0.0,0.0,0.0,0.0,0.0,0.0,0.0,0.0,0.0,0.0,0.0,0.0,0.0,0.0,0.0,0.0,0.0,0.0,0.0,0.0,0.0,0.0,0.0,0.0,0.0,0.0,0.0,0.0,0.0,0.0,0.0,0.0,0.0,0.0,0.0,0.0,0.0,0.0,0.0,0.0,0.0,0.0,0.0,0.0,0.0,0.0,0.0,0.0,0.0,0.0,0.0,0.0,0.0,0.0,0.0,0.0,0.0,0.0,0.0,0.0,0.0,0.0,0.0,0.0,0.0,0.0,0.0,0.0,0.0,0.0,0.0,0.0,0.0,0.0,0.0,0.0,0.0,0.0,0.0,0.0,0.0,0.0,0.0,0.0,0.0,0.0,0.0,0.0,0.0,0.0,0.0,0.0,0.0,0.0,0.0,0.0,0.0,0.0,0.0,0.0,0.0,0.0,0.0,0.0,0.0,0.0,0.0,0.0,0.0,0.0,0.0,0.0,0.0,0.0,0.0,0.0,0.0,0.0,0.0,0.0,0.0,0.0,0.0,0.0,0.0,0.0,0.0,0.0,0.0,0.0,0.0,0.0,0.0,0.0,0.0,0.0,0.0,0.0,0.0,0.0,0.0,0.0,0.0,0.0,0.0,0.0,0.0,0.0,0.0,0.0,0.0,0.0,0.0,0.0,0.0,0.0,0.0,0.0,0.0,0.0,0.0,0.0,0.0,0.0,0.0,0.0,0.0,0.0,0.0,0.0,0.0,0.0,0.0,0.0,0.0,0.0,0.0,0.0,0.0,0.0,0.0,0.0,0.0,0.0,0.0,0.0,0.0,0.0,0.0,0.0,0.0,0.0,0.0,0.0,0.0,0.0,0.0,0.0,0.0,0.0,0.0,0.0,0.0,0.0,0.0,0.0,0.0,0.0,0.0,0.0,0.0,0.0,0.0,0.0,0.0,0.0,0.0,0.0,0.0,0.0,0.0,0.0,0.0,0.0,0.0,0.0,0.0,0.0,0.0,0.0,0.0,0.0,0.0,0.0,0.0,0.0,0.0,0.0,0.0,0.0,0.0,0.0,0.0,0.0,0.0,0.0,0.0,0.0,0.0,0.0,0.0,0.0,0.0,0.0,0.0,0.0,0.0,0.0,0.0,0.0,0.0,0.0,0.0,0.0,0.0,0.0,0.0,0.0,0.0,0.0,0.0,0.0,0.0,0.0,0.0,0.0,0.0,0.0,0.0,0.0,0.0,0.0,0.0,0.0,0.0,0.0,0.0,0.0,0.0,0.0,0.0,0.0,0.0,0.0,0.0,0.0,0.0,0.0,0.0,0.0,0.0,0.0,0.0,0.0,0.0,0.0,0.0,0.0,0.0,0.0,0.0,0.0,0.0,0.0,0.0,0.0,0.0,0.0,0.0,0.0,0.0,0.0,0.0,0.0,0.0,0.0,0.0,0.0,0.0,0.0,0.0,0.0,0.0,0.0,0.0,0.0,0.0,0.0,0.0,0.0,0.0,0.0,0.0,0.0,0.0,0.0,0.0,0.0,0.0,0.0,0.0,0.0,0.0,0.0,0.0,0.0,0.0,0.0,0.0,0.0,0.0,0.0,0.0,0.0,0.0,0.0,0.0,0.0,0.0,0.0,0.0,0.0,0.0,0.0,0.0,0.0,0.0,0.0,0.0,0.0,0.0,0.0,0.0,0.0,0.0,0.0,0.0,0.0,0.0,0.0,0.0,0.0,0.0,0.0,0.0,0.0,0.0,0.0,0.0,0.0,0.0,0.0,0.0,0.0,0.0,0.0,0.0,0.0,0.0,0.0,0.0,0.0,0.0,0.0,0.0,0.0,0.0,0.0,0.0,0.0,0.0,0.0,0.0,0.0,0.0,0.0,0.0,0.0,0.0,0.0,0.0,0.0,0.0,0.0,0.0,0.0,0.0,0.0,0.0,0.0,0.0,0.0,0.0,0.0,0.0,0.0,0.0,0.0,0.0,0.0,0.0,0.0,0.0,0.0,0.0,0.0,0.0,0.0,0.0,0.0,0.0,0.0,0.0,0.0,0.0,0.0,0.0,0.0,0.0,0.0,0.0,0.0,0.0,0.0,0.0,0.0,0.0,0.0,0.0,0.0,0.0,0.0,0.0,0.0,0.0,0.0,0.0,0.0,0.0,0.0,0.0,0.0,0.0,0.0,0.0,0.0,0.0,0.0,0.0,0.0,0.0,0.0,0.0,0.0,0.0,0.0,0.0,0.0,0.0,0.0,0.0,0.0,0.0,0.0,0.0,0.0,0.0,0.0,0.0,0.0,0.0,0.0,0.0,0.0,0.0,0.0,0.0,0.0,0.0,0.0,0.0,0.0,0.0,0.0,0.0,0.0,0.0,0.0,0.0,0.0,0.0,0.0,0.0,0.0,0.0,0.0,0.0,0.0,0.0,0.0,0.0,0.0,0.0,0.0,0.0,0.0,0.0,0.0,0.0,0.0,0.0,0.0,0.0,0.0,0.0,0.0,0.0,0.0,0.0,0.0,0.0,0.0,0.0,0.0,0.0,0.0,0.0,0.0,0.0,0.0,0.0,0.0,0.0,0.0,0.0,0.0,0.0,0.0,0.0,0.0,0.0,0.0,0.0,0.0,0.0,0.0,0.0,0.0,0.0,0.0,0.0,0.0,0.0,0.0,0.0,0.0,0.0,0.0,0.0,0.0,0.0,0.0,0.0,0.0,0.0,0.0,0.0,0.0,0.0,0.0,0.0,0.0,0.0,0.0,0.0,0.0,0.0,0.0,0.0,0.0,0.0,0.0,0.0,0.0,0.0,0.0,0.0,0.0,0.0,0.0,0.0,0.0,0.0,0.0,0.0,0.0,0.0,0.0,0.0,0.0,0.0,0.0,0.0,0.0,0.0,0.0,0.0,0.0,0.0,0.0,0.0,0.0,0.0,0.0,0.0,0.0,0.0,0.0,0.0,0.0,0.0,0.0,0.0,0.0,0.0,0.0,0.0,0.0,0.0,0.0,0.0,0.0,0.0,0.0,0.0,0.0,0.0,0.0,0.0,0.0,0.0,0.0,0.0,0.0,0.0,0.0,0.0,0.0,0.0,0.0,0.0,0.0,0.0,0.0,0.0,0.0,0.0,0.0,0.0,0.0,0.0,0.0,0.0,0.0,0.0,0.0,0.0,0.0,0.0,0.0,0.0,0.0,0.0,0.0,0.0,0.0,0.0,0.0,0.0,0.0,0.0,0.0,0.0,0.0,0.0,0.0,0.0,0.0,0.0,0.0,0.0,0.0,0.0,0.0,0.0,0.0,0.0,0.0,0.0,0.0,0.0,0.0,0.0,0.0,0.0,0.0,0.0,0.0,0.0,0.0,0.0,0.0,0.0,0.0,0.0,0.0,0.0,0.0,0.0,0.0,0.0,0.0,0.0,0.0,0.0,0.0,0.0,0.0,0.0,0.0,0.0,0.0,0.0,0.0,0.0,0.0,0.0,0.0,0.0,0.0,0.0,0.0,0.0,0.0,0.0,0.0,0.0,0.0,0.0,0.0,0.0,0.0,0.0,0.0,0.0,0.0,0.0,0.0,0.0,0.0,0.0,0.0,0.0,0.0,0.0,0.0,0.0,0.0,0.0,0.0,0.0,0.0,0.0,0.0,0.0,0.0,0.0,0.0,0.0,0.0,0.0,0.0,0.0,0.0,0.0,0.0,0.0,0.0,0.0,0.0,0.0,0.0,0.0,0.0,0.0,0.0,0.0,0.0,0.0,0.0,0.0,0.0,0.0,0.0,0.0,0.0,0.0,0.0,0.0,0.0,0.0,0.0,0.0,0.0,0.0,0.0,0.0,0.0,0.0,0.0,0.0,0.0,0.0,0.0,0.0,0.0,0.0,0.0,0.0,0.0,0.0,0.0,0.0,0.0,0.0,0.0,0.0,0.0,0.0,0.0,0.0,0.0,0.0,0.0,0.0,0.0,0.0,0.0,0.0,0.0,0.0,0.0,0.0,0.0,0.0,0.0,0.0,0.0,0.0,0.0,0.0,0.0,0.0,0.0,0.0,0.0,0.0,0.0,0.0,0.0,0.0,0.0,0.0,0.0,0.0,0.0,0.0,0.0,0.0,0.0,0.0,0.0,0.0,0.0,0.0,0.0,0.0,0.0,0.0,0.0,0.0,0.0,0.0,0.0,0.0,0.0,0.0,0.0,0.0,0.0,0.0,0.0,0.0,0.0,0.0,0.0,0.0,0.0,0.0,0.0,0.0,0.0,0.0,0.0,0.0,0.0,0.0,0.0,0.0,0.0,0.0,0.0,0.0,0.0,0.0,0.0,0.0,0.0,0.0,0.0,0.0,0.0,0.0,0.0,0.0,0.0,0.0,0.0,0.0,0.0,0.0,0.0,0.0,0.0,0.0,0.0,0.0,0.0,0.0,0.0,0.0,0.0,0.0,0.0,0.0,0.0,0.0,0.0,0.0,0.0,0.0,0.0,0.0,0.0,0.0,0.0,0.0,0.0,0.0,0.0,0.0,0.0,0.0,0.0,0.0,0.0,0.0,0.0,0.0,0.0,0.0,0.0,0.0,0.0,0.0,0.0,0.0,0.0,0.0,0.0,0.0,0.0,0.0,0.0,0.0,0.0,0.0,0.0,0.0,0.0,0.0,0.0,0.0,0.0,0.0,0.0,0.0,0.0,0.0,0.0,0.0,0.0,0.0,0.0,0.0,0.0,0.0,0.0,0.0,0.0,0.0,0.0,0.0,0.0,0.0,0.0,0.0,0.0,0.0,0.0,0.0,0.0,0.0,0.0,0.0,0.0,0.0,0.0,0.0,0.0,0.0,0.0,0.0,0.0,0.0,0.0,0.0,0.0,0.0,0.0,0.0,0.0,0.0,0.0,0.0,0.0,0.0,0.0,0.0,0.0,0.0,0.0,0.0,0.0,0.0,0.0,0.0,0.0,0.0,0.0,0.0,0.0,0.0,0.0,0.0,0.0,0.0,0.0,0.0,0.0,0.0,0.0,0.0,0.0,0.0,0.0,0.0,0.0,0.0,0.0,0.0,0.0,0.0,0.0,0.0,0.0,0.0,0.0,0.0,0.0,0.0,0.0,0.0,0.0,0.0,0.0,0.0,0.0,0.0,0.0,0.0,0.0,0.0,0.0,0.0,0.0,0.0,0.0,0.0,0.0,0.0,0.0,0.0,0.0,0.0,0.0,0.0,0.0,0.0,0.0,0.0,0.0,0.0,0.0,0.0,0.0,0.0,0.0,0.0,0.0,0.0,0.0,0.0,0.0,0.0,0.0,0.0,0.0,0.0,0.0,0.0,0.0,0.0,0.0,0.0,0.0,0.0,0.0,0.0,0.0,0.0,0.0,0.0,0.0,0.0,0.0,0.0,0.0,0.0,0.0,0.0,0.0,0.0,0.0,0.0,0.0,0.0,0.0,0.0,0.0,0.0,0.0,0.0,0.0,0.0,0.0,0.0,0.0,0.0,0.0,0.0,0.0,0.0,0.0,0.0,-1.6238,0.0,0.0,0.0,0.0,0.0,0.0,0.0,0.0,0.0,0.0,0.0,0.0,0.0,0.0,0.0,0.0,0.0,0.0,0.0,0.0,0.0,0.0,0.0,0.0,-0.4424,-0.4749,-0.5296,-0.551,-0.5682,-0.5893,0.0,0.0,0.0,0.0,0.0,-0.5417,-0.5417,-0.5571,-0.5881,-0.6395,-0.7346,-0.8691,-0.9244,-0.8727,-0.736,0.0,0.0,0.0,0.0,0.0,0.0,0.0,0.0,0.0,0.0,0.0,0.0,0.0,0.0,0.0,0.0,0.0,0.0,0.0,0.0,0.0,0.0,0.0,0.0,0.0,0.0,0.0,0.0,0.0,0.0,0.0,0.0,0.0,0.0,0.0,0.0,0.0,0.0,0.0,0.0,0.0,0.0,0.0,0.0,0.0,0.0,0.0,0.0,0.0,0.0,0.0,0.0,0.0,0.0,0.0,0.0,0.0,0.0,0.0,0.0,0.0,0.0,0.0,0.0,0.0,0.0,0.0,0.0,0.0,0.0,0.0,-1.7413,0.0,0.0,0.0,0.0,0.0,0.0,0.0,0.0,0.0,0.0,0.0,0.0,0.0,0.0,0.0,0.0,0.0,0.0,0.0,0.0,0.0,-0.4145,-0.494,-0.5285,-0.5782,-0.6619,-0.6757,-0.6903,-0.7134,-0.7095,0.0,0.0,0.0,-0.6494,-0.6467,-0.643,-0.6543,-0.6817,-0.801,-0.9364,-1.0864,-1.1978,-1.1039,-0.8409,-0.827,0.0,0.0,0.0,0.0,0.0,0.0,0.0,0.0,0.0,0.0,0.0,0.0,0.0,0.0,0.0,0.0,0.0,0.0,0.0,0.0,0.0,0.0,0.0,0.0,0.0,0.0,0.0,0.0,0.0,0.0,0.0,0.0,0.0,0.0,0.0,0.0,0.0,0.0,0.0,0.0,0.0,0.0,0.0,0.0,0.0,0.0,0.0,0.0,0.0,0.0,0.0,0.0,0.0,0.0,0.0,0.0,0.0,0.0,0.0,0.0,0.0,0.0,0.0,-2.4493,-2.419,-2.419,-2.419,-2.4074,-2.371,-2.0988,-1.9829,-1.9578,0.0,0.0,0.0,0.0,0.0,0.0,0.0,0.0,0.0,0.0,0.0,0.0,0.0,0.0,0.0,0.0,0.0,0.0,0.0,0.0,-0.4901,-0.515,-0.5912,-0.6462,-0.6605,-0.6721,-0.6835,-0.6937,-0.6937,0.0,0.0,-0.6529,-0.6441,-0.6326,-0.6366,-0.7083,-0.8482,-1.0702,-1.1909,-1.2172,-1.32,-1.3378,-1.2797,-1.1824,-1.1943,-1.2702,0.0,0.0,0.0,0.0,0.0,0.0,0.0,0.0,0.0,0.0,0.0,0.0,0.0,0.0,0.0,0.0,0.0,0.0,0.0,0.0,0.0,0.0,0.0,0.0,0.0,0.0,0.0,0.0,0.0,0.0,0.0,0.0,0.0,0.0,0.0,0.0,0.0,0.0,0.0,0.0,0.0,-0.9307,-0.9972,0.0,0.0,0.0,0.0,0.0,0.0,0.0,0.0,0.0,0.0,0.0,0.0,0.0,-2.1034,-2.3938,-2.3322,-2.3453,-2.4339,-2.4247,-2.419,-2.419,-2.419,-2.3602,-2.2517,-2.2097,0.0,-2.1865,-2.1332,0.0,0.0,0.0,0.0,0.0,0.0,0.0,0.0,0.0,0.0,0.0,0.0,0.0,0.0,0.0,0.0,0.0,0.0,0.0,0.0,0.0,-0.6801,-0.7413,-0.8325,-0.8459,-0.8523,-0.8637,-0.8508,-0.822,-0.7815,-0.7649,-0.7539,-0.7488,-0.8025,-0.9118,-1.0767,-1.2327,-1.3296,-1.3762,-1.4732,-1.5292,-1.5453,-1.4389,-1.3728,-1.3294,-1.1347,0.0,0.0,0.0,0.0,0.0,0.0,0.0,0.0,0.0,0.0,0.0,0.0,0.0,0.0,0.0,0.0,0.0,0.0,0.0,0.0,0.0,0.0,0.0,0.0,0.0,0.0,0.0,0.0,0.0,0.0,0.0,0.0,0.0,0.0,0.0,0.0,0.0,0.0,0.0,-1.0408,-1.311,-1.5042,-1.3681,-1.1854,0.0,0.0,0.0,0.0,0.0,0.0,0.0,0.0,0.0,-2.0255,-2.1718,-2.3205,-2.4678,-2.4356,-2.419,-2.4226,-2.6043,-2.6906,-2.6906,-2.6906,-2.6101,-2.478,-2.478,-2.478,-2.4644,-2.2987,-2.0771,-1.8149,0.0,0.0,0.0,0.0,-1.7711,-2.2042,0.0,0.0,0.0,0.0,0.0,0.0,0.0,0.0,0.0,0.0,0.0,0.0,-0.7243,-0.7795,-0.8509,-0.9649,-0.9775,-0.9885,0.0,0.0,-0.918,-0.8891,-0.8569,-0.8403,-0.8403,-0.9738,-1.115,-1.2584,-1.3802,-1.471,-1.5312,-1.6279,-1.6927,-1.722,-1.6459,-1.5357,-1.4003,-1.2614,-1.1371,0.0,0.0,0.0,0.0,0.0,0.0,0.0,0.0,0.0,0.0,0.0,0.0,0.0,0.0,0.0,0.0,0.0,0.0,0.0,0.0,0.0,0.0,0.0,0.0,0.0,0.0,0.0,0.0,0.0,0.0,0.0,0.0,0.0,0.0,0.0,0.0,0.0,0.0,-1.2462,-1.5692,-1.8922,-1.6463,-1.3563,0.0,0.0,0.0,0.0,0.0,0.0,-2.1162,-2.366,-2.4766,-2.4209,-2.419,-2.4593,-2.5419,-2.5438,-2.5438,-2.5456,-2.786,-2.8791,-2.8412,-2.8412,-2.7805,-2.6691,-2.6691,-2.6691,-2.6471,-2.3528,-2.231,-2.1989,-1.8623,-1.6644,-1.5782,-1.6655,-2.0042,-2.419,0.0,0.0,0.0,0.0,0.0,0.0,0.0,0.0,0.0,0.0,0.0,-0.66,-0.7324,0.0,-0.9798,-0.9632,-0.9722,-0.9964,0.0,0.0,-0.8641,-0.9065,-0.8643,-0.8403,-0.8403,-1.0874,-1.2567,-1.3345,-1.5479,-1.6567,-1.6631,-1.7688,-1.8219,-1.8217,-1.8095,-1.7506,-1.6392,-1.4288,-1.3202,-1.2746,0.0,0.0,0.0,0.0,0.0,0.0,0.0,0.0,0.0,0.0,0.0,0.0,0.0,0.0,0.0,0.0,0.0,0.0,0.0,0.0,0.0,0.0,0.0,0.0,0.0,0.0,0.0,0.0,0.0,0.0,0.0,0.0,0.0,0.0,0.0,0.0,0.0,0.0,0.0,-1.8922,-1.6463,0.0,0.0,0.0,0.0,-1.9519,-2.2899,-2.4562,-2.4026,-2.4155,-2.4247,-2.419,-2.419,-2.5676,-2.8718,-2.8755,-2.8755,-2.8755,-2.892,-2.8237,-2.6808,-2.6808,-2.6774,-2.6691,-2.6691,-2.6691,-2.6471,-2.3528,-2.231,-2.2293,-2.2057,-2.1938,-2.2,-2.3241,-2.3914,-2.419,0.0,0.0,0.0,-0.3203,-0.3345,-0.3479,-0.3662,-0.4089,-0.4641,-0.5405,-0.6208,-0.7178,0.0,-0.9053,-0.9732,-1.0503,-1.0615,-1.069,-1.0852,0.0,-0.9478,-0.9742,-0.9337,-0.99,-1.1573,-1.252,-1.4056,-1.6238,-1.6759,-1.7508,-1.8444,-1.8562,-1.8483,-1.8221,-1.8205,-1.7884,-1.7256,-1.564,-1.4678,-1.4026,-1.2088,-1.0931,0.0,0.0,0.0,0.0,0.0,0.0,0.0,0.0,0.0,0.0,0.0,0.0,0.0,0.0,0.0,0.0,0.0,0.0,0.0,0.0,0.0,0.0,0.0,0.0,0.0,0.0,0.0,0.0,0.0,0.0,0.0,0.0,0.0,0.0,0.0,0.0,0.0,-2.2318,-1.9565,0.0,0.0,-1.6958,-1.6818,-2.2395,-2.3917,-2.4476,-2.4209,-2.419,-2.5144,-2.7236,-2.7291,-2.7842,-2.8975,-2.8994,-2.8994,-2.8994,-2.8002,-2.7206,-2.6691,-2.6691,-2.6691,-2.6691,-2.6691,-2.6691,-2.6607,-2.5575,-2.5135,-2.5135,-2.5135,-2.5135,-2.5181,-2.5628,-2.5802,-2.5802,-0.2742,-0.2928,0.0,-0.3217,-0.3387,-0.3566,-0.3763,-0.4412,-0.5109,-0.5814,-0.6785,-0.7836,-0.8973,-0.9592,-1.0228,-1.1035,-1.1131,-1.1112,-1.0998,0.0,-0.9929,-1.0023,-1.0144,-1.1156,-1.3192,-1.3944,-1.5337,-1.7432,-1.764,-1.8243,-1.9195,-1.9033,-1.8796,-1.8547,-1.865,-1.8576,-1.8313,-1.7221,-1.6248,-1.5291,-1.3525,-1.2335,-1.1438,0.0,0.0,0.0,0.0,0.0,0.0,0.0,0.0,0.0,0.0,0.0,0.0,0.0,0.0,0.0,0.0,0.0,0.0,0.0,0.0,0.0,0.0,0.0,0.0,0.0,0.0,0.0,0.0,0.0,0.0,0.0,0.0,0.0,0.0,0.0,-2.3988,-2.3437,-2.1951,-2.1363,-2.2428,-1.9656,-1.9565,-2.3878,-2.419,-2.4667,-2.5768,-2.5823,-2.6814,-2.892,-2.8994,-2.8749,-2.8237,-2.8237,-2.8237,-2.821,-2.7192,-2.6691,-2.6691,-2.6691,-2.7249,-2.8213,-2.8213,-2.8213,-2.8213,-2.8213,-2.8213,-2.8112,-2.7097,-2.6691,-2.6691,-2.6691,-2.6691,-2.6691,-0.2627,-0.2874,-0.3106,-0.3109,-0.3332,-0.3566,-0.3771,-0.4513,-0.5243,-0.5835,-0.7359,-0.858,-0.9065,-1.0519,-1.1372,-1.1143,-1.1153,-1.1078,-1.0847,-1.0234,-0.9875,-0.9938,-1.1037,-1.2092,-1.2997,-1.5071,-1.6346,-1.6791,-1.8159,-1.8813,-1.8845,-1.9107,-1.9239,-1.9236,-1.9567,-1.969,-1.9645,-1.9016,-1.7966,-1.6682,-1.5381,-1.4184,-1.2807,0.0,0.0,0.0,0.0,0.0,0.0,0.0,0.0,0.0,0.0,0.0,0.0,0.0,0.0,0.0,0.0,0.0,0.0,0.0,0.0,0.0,0.0,0.0,0.0,0.0,0.0,0.0,0.0,0.0,0.0,0.0,0.0,0.0,-2.3749,-2.419,-2.3621,-2.206,-2.3235,-2.2978,-1.9895,-2.2483,-2.4355,-2.4355,-2.4355,-2.5713,-2.8828,-2.8952,-2.8929,-2.8929,-2.8929,-2.8246,-2.686,-2.6826,-2.6826,-2.6826,-2.6826,-2.6826,-2.6826,-2.6826,-2.8433,-3.119,-3.119,-3.119,-3.119,-3.119,-3.119,-3.0903,-2.7977,-2.6826,-2.6826,-2.6725,-2.6691,-2.6691,-0.2627,-0.2946,-0.3246,-0.3243,-0.3427,-0.3681,-0.3971,-0.5067,-0.5888,-0.5961,-0.7255,-0.8554,-0.9574,-1.0063,-1.0689,-1.1529,-1.1187,-1.1092,-1.1506,-1.0058,-0.9682,-1.0789,-1.208,-1.3672,-1.5615,-1.6223,-1.7332,-1.9015,-1.9061,-1.9356,-1.9888,-1.9668,-1.9547,-1.9547,-1.9671,-1.969,-1.9675,-1.9495,-1.9211,-1.8717,-1.6906,-1.574,-1.4854,0.0,0.0,0.0,0.0,0.0,0.0,0.0,0.0,0.0,0.0,0.0,0.0,0.0,0.0,0.0,0.0,0.0,0.0,0.0,0.0,0.0,0.0,0.0,0.0,0.0,0.0,0.0,0.0,0.0,0.0,0.0,0.0,-2.2107,-2.3946,-2.419,-2.4043,-2.3584,-2.3933,-2.4759,-2.619,-2.7163,-2.7673,-2.7673,-2.7673,-2.8081,-2.8938,-2.7946,-2.733,-2.733,-2.733,-2.8164,-2.9939,-2.9956,-2.9956,-2.9956,-2.9956,-2.9956,-2.9956,-2.9956,-3.0412,-3.119,-3.119,-3.119,-3.119,-3.119,-3.119,-3.1106,-3.0277,-2.9956,-2.9685,-2.7503,-2.6691,-2.6691,-0.2704,-0.3017,-0.3315,-0.3336,-0.3539,-0.3773,-0.4062,-0.529,-0.6151,-0.6022,-0.74,-0.8636,-0.9245,-0.9497,-0.9899,-1.0649,-1.0558,-1.0448,-1.0426,-0.9973,-1.0394,-1.1962,0.0,-1.5112,-1.6427,-1.7305,-1.828,-1.9403,-1.94,-1.9634,-2.0019,-1.9818,-1.969,-1.969,-1.969,-1.969,-1.969,-1.969,-1.969,-1.9585,-1.8433,-1.776,-1.7237,-1.5336,-1.4139,-1.349,-1.349,-1.2516,-1.1212,-1.1212,0.0,0.0,0.0,0.0,0.0,0.0,0.0,0.0,0.0,0.0,0.0,0.0,0.0,0.0,0.0,0.0,0.0,0.0,0.0,0.0,0.0,0.0,0.0,0.0,-2.2919,-2.4178,-2.4329,-2.43,-2.4259,-2.4206,-2.4795,-2.6209,-2.8737,-2.8994,-2.8994,-2.8994,-2.8412,-2.8029,-2.8029,-2.8385,-2.8586,-2.8586,-2.8586,-2.9431,-3.1173,-3.119,-3.119,-3.119,-3.119,-3.119,-3.119,-3.119,-3.119,0.0,-3.119,-3.119,-3.119,-3.119,-3.119,0.0,0.0,0.0,0.0,0.0,-2.8586,-2.8586,-0.2798,-0.3071,-0.3319,-0.3386,-0.3603,-0.3854,-0.4062,-0.529,-0.6151,-0.5986,0.0,-0.8641,-0.8479,-0.8836,-0.9113,-0.9202,-0.9626,-0.9555,0.0,-1.0122,0.0,-1.3205,-1.5196,-1.6253,-1.6279,-1.8144,-1.9022,-1.8807,-1.9405,-1.969,-1.969,-1.969,-1.969,-1.969,-1.969,-1.969,-1.969,-1.969,-1.969,-1.969,-1.969,-1.969,-1.9435,-1.7133,-1.6248,-1.6248,-1.6248,-1.6053,-1.5799,-1.5799,0.0,0.0,0.0,0.0,0.0,0.0,0.0,0.0,0.0,0.0,0.0,0.0,0.0,0.0,0.0,0.0,0.0,0.0,0.0,0.0,0.0,0.0,0.0,0.0,-2.5362,-2.6048,-2.4929,-2.4614,-2.4488,-2.4356,-2.5692,-2.7159,-2.8597,-2.8749,-2.8749,-2.8749,-2.7783,-2.7199,-2.7199,0.0,0.0,0.0,0.0,-3.119,-3.119,-3.119,-3.119,-3.119,-3.119,-3.119,-3.119,-3.119,-3.119,-3.119,-3.119,-3.119,-3.119,-3.119,-3.119,-3.119,-3.119,-3.119,-3.119,-3.119,-3.119,-3.119,-0.2749,-0.3071,-0.3319,-0.3386,-0.3533,-0.3736,-0.4055,-0.529,-0.6095,-0.58,-0.7069,-0.8062,-0.8233,-0.8348,-0.8614,-0.9141,-0.9244,-0.9499,0.0,0.0,-1.2496,-1.3645,-1.5101,-1.6382,-1.7374,-1.8323,-1.9026,-1.9495,-1.963,-1.969,-1.969,-1.969,-1.969,-1.969,-1.969,-1.969,-1.969,-1.969,-1.969,-1.969,-1.969,-1.969,-1.963,-1.9156,-1.8961,-1.8961,-1.8961,-1.7597,-1.5799,-1.5799,-1.5799,-1.5619,-1.4599,0.0,0.0,0.0,0.0,0.0,0.0,0.0,0.0,0.0,0.0,0.0,0.0,0.0,0.0,0.0,0.0,0.0,0.0,0.0,0.0,-2.2512,-2.3955,-2.522,-2.6133,-2.5773,-2.5343,-2.525,-2.6092,-2.6802,-2.7095,-2.7129,-2.7129,-2.7129,-2.9104,-3.0328,-3.0328,-3.0869,0.0,-3.119,-3.119,-3.119,-3.119,-3.119,-3.119,-3.119,0.0,0.0,-3.119,-3.119,-3.119,-3.119,-3.119,-3.119,-3.119,-3.119,-3.119,-3.119,-3.119,-3.119,-3.119,-3.119,-3.119,-3.119,-0.2759,-0.3014,-0.323,-0.3328,-0.3547,-0.375,-0.3927,-0.4947,-0.5638,-0.5465,-0.6352,-0.7063,-0.7179,-0.7112,-0.7227,-0.7664,-0.8163,0.0,0.0,-1.1594,-1.2701,-1.3598,-1.5386,-1.6535,-1.6992,-1.8191,-1.8957,-1.9281,-1.9566,-1.969,-1.969,-1.969,-1.969,-1.969,-1.969,-1.969,-1.969,-1.969,-1.969,-1.969,-1.969,-1.969,-1.969,-1.969,-1.969,-1.969,-1.969,-1.8418,-1.6637,-1.6023,-1.5799,-1.5799,-1.5799,-1.4884,-1.3406,0.0,0.0,0.0,0.0,0.0,0.0,0.0,0.0,0.0,0.0,0.0,0.0,0.0,0.0,-1.8302,0.0,0.0,-2.2784,-2.4255,-2.5118,-2.5845,-2.659,-2.6387,-2.5997,-2.5561,-2.6203,-2.6691,-2.6691,-2.8061,-2.8941,-2.8941,-3.0345,-3.119,-3.119,-3.119,-3.119,-3.119,-3.119,-3.119,-3.119,-3.119,-3.119,-3.119,-3.119,-3.119,-3.119,-3.119,-3.119,-3.119,-3.119,-3.119,-3.119,-3.119,-3.119,-3.119,-3.119,-3.119,-3.119,-3.119,-3.119,-3.119,-0.2693,-0.2896,-0.31,-0.3268,-0.3514,-0.3718,-0.3751,-0.4569,-0.5168,-0.512,-0.5743,-0.6189,-0.6147,-0.5998,-0.6025,0.0,0.0,0.0,0.0,-1.1651,-1.2701,-1.3654,-1.5665,-1.6697,-1.6438,-1.8047,-1.8968,-1.9043,-1.9479,-1.969,-1.969,-1.969,-1.969,-1.969,-1.969,-1.969,-1.969,-1.9603,-1.953,-1.953,-1.953,-1.9603,-1.969,-1.969,-1.969,-1.969,-1.969,-1.9001,-1.7864,-1.6323,-1.5799,-1.5799,-1.5799,-1.5799,-1.5349,-1.3026,-1.2194,0.0,0.0,0.0,0.0,0.0,0.0,0.0,0.0,0.0,-2.231,-2.231,-2.231,-2.2496,-2.3054,-2.3156,-2.3934,-2.6302,-2.6691,-2.6691,-2.6691,-2.6691,-2.6463,-2.5806,-2.6313,-2.6691,-2.6691,-2.9431,-3.119,-3.119,-3.119,-3.119,-3.119,-3.119,-3.119,-3.119,-3.119,-3.119,-3.119,-3.119,-3.119,-3.119,-3.119,-3.119,-3.119,-3.119,-3.1512,-3.2053,-3.2053,-3.2053,-3.2053,-3.2053,-3.2053,-3.2002,-3.141,-3.119,-3.119,-3.119,-3.119,-3.119,-0.2413,-0.2664,-0.2935,-0.3243,-0.3332,-0.3411,-0.3597,-0.4473,-0.5048,-0.4857,-0.5628,-0.613,-0.5954,-0.59,-0.6192,0.0,0.0,0.0,0.0,-1.1856,-1.2844,-1.4318,-1.5654,-1.6578,-1.7006,-1.8245,-1.9132,-1.9603,-1.969,-1.969,-1.969,-1.969,-1.969,-1.969,-1.969,-1.969,-1.969,-1.9207,-1.9006,-1.9006,-1.9006,-1.9281,-1.969,-1.969,-1.969,-1.969,-1.969,-1.9585,-1.9091,-1.6638,-1.5799,-1.5799,-1.5799,-1.5799,-1.5589,-1.4509,0.0,-1.3002,-1.3241,-1.4652,-1.6885,-2.0381,-2.0762,-2.0762,0.0,0.0,-2.231,-2.231,-2.231,-2.3105,-2.5727,-2.6201,-2.6319,-2.664,-2.6691,-2.6691,-2.6691,-2.6691,-2.6674,-2.6587,-2.6656,-2.6691,-2.6691,-2.9431,-3.119,-3.119,-3.119,-3.119,-3.119,-3.119,-3.119,-3.119,-3.119,-3.119,-3.119,-3.119,-3.119,-3.119,-3.119,-3.119,-3.119,-3.119,-3.2628,-3.5131,-3.5131,-3.5131,-3.5131,-3.5131,-3.5131,-3.4861,-3.2222,-3.119,-3.119,-3.119,-3.119,-3.119,-0.2383,-0.2559,-0.2751,-0.2972,-0.3165,-0.3277,-0.3204,-0.4173,-0.4779,-0.4375,-0.5183,-0.5704,-0.5472,-0.5715,-0.5971,-0.6153,-0.7485,-0.8735,-0.9767,-1.1331,-1.2509,-1.3245,-1.4932,-1.5973,-1.6261,-1.7712,-1.8688,-1.9244,-1.9566,-1.953,-1.9244,-1.9244,-1.908,-1.8765,-1.8765,-1.8765,-1.8727,-1.8535,-1.8419,-1.8419,-1.8419,-1.8574,-1.8855,-1.9442,-1.969,-1.969,-1.969,-1.8736,0.0,0.0,-1.5169,-1.5799,-1.5799,-1.5439,-1.4902,-1.4543,-1.4543,0.0,-1.6601,-1.7227,0.0,0.0,-2.2056,-2.2395,-2.3071,-2.4069,-2.4864,-2.4864,-2.4864,-2.5236,-2.6471,-2.6691,-2.6691,0.0,-2.6691,-2.73,-2.9059,-2.9313,-2.867,-2.6911,-2.6691,-2.6691,-2.6691,-2.9431,-3.119,-3.119,-3.119,-3.119,-3.119,-3.2002,-3.2476,-3.2476,-3.2476,-3.2899,-3.3761,-3.3761,-3.3761,-3.3761,-3.3761,-3.3761,-3.3761,-3.3761,-3.4438,-3.5622,-3.5622,-3.5622,-3.5622,-3.5622,-3.5622,-3.5504,-3.4252,-3.3761,-3.3761,-3.3761,-3.1786,-2.9319,-0.2344,-0.249,-0.2637,-0.2732,-0.299,-0.313,-0.2981,-0.3904,-0.4498,-0.4106,-0.4824,-0.531,-0.5127,-0.5509,-0.5708,-0.5511,-0.7005,-0.8174,-0.867,-1.0493,-1.1812,-1.2379,-1.3967,0.0,-1.5694,-1.6975,-1.8004,-1.8688,-1.908,-1.9043,-1.8688,-1.8688,-1.8458,-1.8106,-1.8106,-1.8106,-1.8106,-1.7947,-1.7867,-1.7867,-1.7867,-1.7798,-1.7793,-1.8858,-1.9075,-1.8794,-1.8663,-1.7417,0.0,0.0,-1.384,-1.5229,-1.5034,-1.4618,-1.4318,-1.4677,-1.5749,-1.7181,-1.8827,0.0,0.0,-2.1569,-2.315,-2.4002,-2.3274,-2.4661,-2.6201,-2.6607,-2.6691,-2.6691,-2.6691,-2.6691,0.0,-2.6691,-2.7385,-2.8704,-3.0886,-3.119,-2.9866,-2.6257,-2.5839,-2.5839,-2.5839,-2.908,-3.119,-3.119,-3.119,-3.1376,-3.1782,-3.2831,-3.3592,-3.3998,-3.4015,-3.4539,-3.5605,-3.5622,-3.5622,-3.5622,-3.5622,-3.5622,-3.5622,-3.5622,-3.5622,-3.5577,-3.48,-3.4911,-3.5515,-3.48,-3.4447,-3.4447,-3.4447,-3.4447,-3.4447,-3.4447,-3.2175,-2.9237,-0.2205,-0.2421,-0.2598,-0.2607,-0.2779,-0.2953,-0.3073,-0.3729,-0.4212,-0.4198,-0.4728,-0.5108,-0.5108,-0.5349,-0.5511,-0.5492,-0.6509,-0.7576,-0.8634,-0.9491,-1.0684,-1.2341,-1.2969,-1.4044,-1.5668,-1.6241,-1.7061,-1.8145,-1.8145,-1.8145,-1.8145,-1.8145,-1.8145,-1.8106,-1.8106,-1.8106,-1.8066,-1.7544,-1.7312,-1.7312,-1.7312,-1.7009,-1.6651,-1.7754,-1.7487,-1.6529,-1.6082,0.0,0.0,0.0,-1.173,-1.375,-1.3115,-1.3316,0.0,-1.5379,-1.7425,0.0,0.0,0.0,-2.162,-2.2992,-2.4242,-2.5137,-2.5103,-2.4831,-2.498,-2.6404,-2.6691,-2.6691,-2.6691,-2.6691,-2.6691,-2.6691,-2.9144,-3.1089,-3.119,-3.119,-2.9327,-2.431,-2.3681,-2.3681,0.0,-2.8225,-3.119,-3.119,-3.119,-3.1816,-3.3271,-3.3389,-3.4066,-3.5504,-3.5554,-3.5571,-3.5622,-3.5622,-3.5622,-3.5622,-3.5622,-3.5622,-3.5622,-3.5622,-3.5622,-3.547,-3.2756,-3.3114,-3.5362,-3.2703,-3.1625,-3.1625,-3.1625,-3.1625,-3.1625,-3.1625,-3.2058,-3.2447,-0.2195,-0.2421,-0.2598,-0.2598,-0.2732,-0.2843,-0.29,-0.3787,-0.4372,-0.4106,-0.4669,0.0,0.0,0.0,0.0,0.0,-0.6211,-0.6985,-0.7354,-0.8827,-1.001,-1.0721,-1.2309,-1.3625,-1.4538,-1.5495,-1.6342,-1.7051,-1.7051,-1.7037,-1.7047,-1.7047,-1.7063,-1.7034,-1.7034,-1.7034,-1.7034,-1.6837,-1.6752,-1.6727,-1.6386,-1.613,-1.5979,-1.5984,-1.5736,-1.5131,0.0,0.0,0.0,0.0,-1.2134,0.0,-1.3436,0.0,0.0,-1.5904,0.0,0.0,0.0,0.0,-2.2712,-2.4016,-2.491,-2.5609,-2.6082,-2.6065,-2.6099,-2.659,-2.6691,-2.6691,-2.6691,-2.6691,-2.6691,-2.6691,-2.7867,-2.9374,-3.0958,-2.9832,-2.7503,-2.404,-2.6608,0.0,0.0,0.0,0.0,-3.119,-3.1816,-3.2324,-3.2645,-3.3592,-3.4353,-3.4861,-3.5351,-3.5622,-3.5622,-3.5622,-3.5622,-3.5622,-3.5622,-3.5622,-3.5622,-3.5622,-3.5622,-3.556,-3.4592,-3.3735,-3.281,-3.1894,-3.1482,-3.1482,-3.1482,-3.1482,-3.1482,-3.1482,-3.1713,-3.189,-0.2265,-0.245,-0.2598,-0.2598,-0.2713,0.0,0.0,0.0,0.0,0.0,0.0,0.0,0.0,0.0,0.0,0.0,0.0,-0.639,-0.6671,-0.8023,-0.9181,-1.0033,-1.1216,-1.2281,-1.3253,-1.3697,-1.4271,-1.5039,-1.5039,-1.5127,-1.532,-1.5553,-1.5633,-1.5655,-1.5982,-1.6132,-1.6132,-1.6132,-1.6132,-1.607,-1.5379,-1.499,-1.4814,-1.4903,-1.4664,0.0,0.0,0.0,0.0,0.0,0.0,0.0,0.0,0.0,0.0,0.0,0.0,-1.9824,0.0,-2.2353,-2.3304,-2.4626,-2.5111,-2.5471,-2.618,-2.6082,-2.6051,-2.659,-2.5862,-2.4942,-2.4311,-2.4192,-2.4501,-2.544,-2.6727,-2.8158,-2.9701,-2.9329,-2.8273,-2.6504,-2.9683,0.0,0.0,0.0,0.0,-3.1224,-3.2138,-3.2713,-3.2679,-3.3829,-3.4624,-3.4878,-3.5368,-3.5622,-3.5622,-3.5622,-3.5622,-3.5622,-3.5622,-3.5622,-3.5622,-3.5622,-3.5622,-3.5577,-3.4544,-3.3114,-3.1482,-3.1482,-3.1482,-3.1482,-3.1482,-3.1482,-3.1482,-3.1482,-3.1482,-3.1492,-0.2374,-0.251,-0.2588,0.0,0.0,0.0,0.0,0.0,0.0,0.0,0.0,0.0,0.0,0.0,0.0,0.0,0.0,0.0,-0.6635,0.0,0.0,-1.0198,-0.9731,-1.0181,-1.1814,-1.1092,-1.1211,-1.2278,-1.2278,-1.2534,-1.3085,-1.3707,-1.3972,-1.4035,-1.4863,-1.5302,-1.5352,-1.5339,-1.5302,-1.5201,-1.4462,-1.3747,-1.3298,-1.4262,0.0,0.0,0.0,0.0,0.0,0.0,0.0,0.0,0.0,0.0,0.0,0.0,0.0,-2.1538,-2.2267,-2.2885,-2.3653,-2.4907,-2.4989,-2.495,-2.5491,-2.5043,-2.4875,-2.6253,-2.4394,-2.1963,0.0,0.0,-2.0543,-2.3176,-2.5811,-2.7635,-2.7695,-2.9766,-3.1309,0.0,0.0,0.0,0.0,0.0,0.0,-3.1376,0.0,-3.2949,-3.344,-3.4167,-3.4878,-3.5605,-3.5622,-3.5622,-3.5622,-3.5622,-3.5622,-3.5622,-3.5622,-3.5622,-3.5622,-3.5622,-3.5622,-3.547,-3.2703,-3.1482,-3.1482,-3.1482,-3.1482,-3.1482,-3.1482,-3.1482,-3.1482,-3.1482,-3.1482,-3.1377,0.0,0.0,0.0,0.0,0.0,0.0,0.0,0.0,0.0,0.0,0.0,0.0,0.0,0.0,0.0,0.0,0.0,0.0,0.0,0.0,0.0,0.0,0.0,0.0,-1.0052,-1.0237,0.0,0.0,0.0,-1.0822,-1.1345,-1.1939,-1.2287,0.0,-1.3082,-1.4001,-1.499,-1.4316,-1.3938,-1.3811,0.0,-1.4086,-1.3048,0.0,0.0,0.0,0.0,0.0,0.0,0.0,0.0,0.0,0.0,0.0,-1.7891,0.0,0.0,-2.2284,-2.3087,-2.4343,-2.5417,-2.5368,-2.5595,-2.5608,-2.4751,-2.4993,-2.5121,-2.4253,-2.4896,-2.4348,-2.0416,0.0,0.0,-2.3176,-2.5787,0.0,-2.8808,-3.1172,0.0,0.0,0.0,-3.3981,-3.3981,-3.3525,0.0,0.0,-3.3085,-3.3508,-3.4184,-3.4928,-3.5419,-3.556,-3.5622,-3.5622,-3.5622,-3.5622,-3.5622,-3.5622,-3.5622,-3.5622,-3.5622,-3.5622,-3.5622,-3.547,-3.2703,-3.1482,-3.1482,-3.1482,-3.1482,-3.1482,-3.1482,-3.1482,-3.1482,-3.1482,-3.1482,-3.1452,0.0,0.0,0.0,0.0,0.0,0.0,0.0,0.0,0.0,0.0,0.0,0.0,0.0,0.0,0.0,0.0,0.0,0.0,0.0,0.0,0.0,0.0,0.0,0.0,0.0,-0.8939,0.0,0.0,0.0,0.0,0.0,-1.0496,-1.0813,-1.0894,-1.1094,-1.1832,-1.2937,0.0,0.0,0.0,0.0,0.0,0.0,0.0,0.0,0.0,0.0,0.0,0.0,0.0,0.0,-1.7176,-1.7834,-1.8687,-1.966,-2.0692,0.0,-2.3107,-2.3846,-2.495,-2.5803,-2.5356,-2.5441,-2.5373,-2.4215,-2.3936,-2.3847,-2.3429,-2.3028,0.0,-1.7046,0.0,0.0,0.0,0.0,0.0,-2.8871,-3.11,-3.2713,0.0,-3.3829,0.0,-3.432,-3.4049,-3.4032,0.0,-3.4066,-3.4066,-3.4472,-3.5216,-3.5622,-3.5622,-3.5622,-3.5622,-3.5622,-3.5622,-3.5622,-3.5622,-3.5622,-3.5622,-3.5622,-3.5622,-3.4958,-3.3719,0.0,-3.1482,-3.1482,-3.1482,-3.1482,-3.1482,-3.1482,-3.1482,-3.1482,-3.1482,-3.1482,-3.1482,0.0,0.0,0.0,0.0,0.0,0.0,0.0,0.0,0.0,0.0,0.0,0.0,0.0,0.0,0.0,0.0,0.0,0.0,0.0,0.0,0.0,0.0,0.0,0.0,0.0,0.0,0.0,0.0,0.0,0.0,0.0,0.0,0.0,0.0,0.0,0.0,0.0,0.0,0.0,0.0,0.0,0.0,0.0,0.0,0.0,0.0,0.0,0.0,0.0,0.0,-1.7191,-1.9076,-1.9645,-2.0737,-2.1934,-2.2544,-2.3116,-2.3759,-2.4477,-2.5136,-2.5555,-2.5407,-2.5227,-2.4837,-2.3819,-2.2338,-2.1386,-2.2271,0.0,-1.5862,-1.2873,0.0,-1.7918,-1.96,0.0,-2.6039,-2.8208,-3.0314,-3.1874,-3.2697,-3.3897,-3.4641,-3.4641,-3.4641,-3.4912,-3.5571,-3.5013,-3.4641,-3.4641,-3.5267,-3.5622,-3.5622,-3.5622,-3.5622,-3.5622,-3.5622,-3.5622,-3.5622,-3.5622,-3.5622,-3.5622,-3.5622,-3.4087,-3.1482,0.0,0.0,-3.1482,-3.1482,-3.1482,-3.1482,-3.1482,-3.1482,-3.1482,-3.1482,-3.1482,-3.1482,0.0,0.0,0.0,0.0,0.0,0.0,0.0,0.0,0.0,0.0,-0.4007,-0.3731,0.0,0.0,0.0,0.0,0.0,0.0,0.0,0.0,0.0,0.0,0.0,0.0,0.0,0.0,0.0,0.0,0.0,0.0,0.0,0.0,0.0,0.0,0.0,0.0,0.0,0.0,0.0,0.0,0.0,0.0,0.0,0.0,0.0,0.0,0.0,0.0,0.0,0.0,-1.7819,-2.0378,-2.0498,-2.144,-2.2532,-2.2679,-2.3116,-2.3789,-2.4717,-2.5255,-2.5854,-2.6905,-2.6303,-2.5166,-2.3894,-2.0917,0.0,0.0,0.0,-1.271,-1.4716,-1.536,0.0,-2.0221,0.0,0.0,0.0,0.0,-3.2437,0.0,0.0,0.0,0.0,0.0,0.0,0.0,0.0,-3.5419,-3.5419,-3.5554,-3.5622,-3.5622,-3.5622,-3.5622,-3.5622,-3.5622,-3.5622,-3.5622,-3.5622,-3.5622,-3.5622,-3.5622,-3.4087,-3.1482,-3.1482,0.0,-3.1482,-3.1482,-3.1482,-3.1482,-3.1482,-3.1482,-3.1482,-3.1482,-3.1482,-3.1482,0.0,0.0,0.0,0.0,0.0,0.0,0.0,-0.3732,-0.4138,-0.4826,-0.4333,-0.4007,-0.4273,-0.4426,0.0,0.0,0.0,0.0,0.0,0.0,0.0,0.0,0.0,0.0,0.0,0.0,0.0,0.0,0.0,0.0,0.0,0.0,0.0,0.0,0.0,0.0,0.0,0.0,0.0,0.0,0.0,0.0,0.0,0.0,0.0,0.0,0.0,0.0,0.0,0.0,-1.583,-1.9269,-2.0463,-2.1068,-2.1511,-2.2438,-2.2888,-2.3348,-2.4657,-2.5826,-2.6782,-2.746,-2.7096,-2.5375,-2.0617,0.0,0.0,0.0,0.0,-1.2386,-1.3506,0.0,0.0,0.0,0.0,0.0,0.0,0.0,0.0,0.0,0.0,0.0,0.0,0.0,0.0,0.0,0.0,-3.5622,-3.5622,-3.5622,-3.5622,-3.5622,-3.5622,-3.5622,-3.5622,-3.5622,-3.5622,-3.5622,-3.5622,-3.5622,-3.556,-3.4137,-3.2772,-3.1482,-3.1482,0.0,-3.1482,-3.1482,-3.1482,-3.1482,-3.1482,-3.1482,-3.1482,-3.1482,-3.1482,-3.1482,0.0,0.0,0.0,0.0,0.0,0.0,0.0,-0.3767,-0.4254,-0.5011,-0.4626,-0.4354,-0.4446,-0.4606,-0.4796,0.0,0.0,0.0,0.0,0.0,0.0,0.0,0.0,0.0,0.0,0.0,0.0,0.0,0.0,0.0,0.0,0.0,0.0,0.0,0.0,0.0,0.0,0.0,0.0,0.0,0.0,0.0,0.0,0.0,0.0,0.0,0.0,0.0,0.0,0.0,-1.3024,-1.6356,-1.8622,-1.9767,-2.0528,-2.1907,-2.2555,-2.3065,-2.4373,-2.5931,-2.7156,-2.7156,-2.6722,-2.4582,-1.7777,-1.4199,0.0,0.0,0.0,-1.255,-1.2015,0.0,0.0,0.0,0.0,0.0,0.0,0.0,0.0,0.0,0.0,0.0,0.0,0.0,0.0,0.0,0.0,0.0,-3.5622,-3.5622,-3.5622,-3.5622,-3.5622,-3.5622,-3.5622,-3.5622,-3.5622,-3.5622,-3.5622,-3.5316,-3.4657,-3.2501,-3.1482,-3.1482,-3.1482,0.0,0.0,-3.1482,-3.1482,-3.1482,-3.1482,-3.1482,-3.1482,-3.1482,-3.1482,-3.1482,0.0,0.0,0.0,0.0,0.0,0.0,0.0,-0.3936,-0.4472,-0.502,-0.4626,-0.4486,-0.4971,-0.4834,-0.4796,0.0,0.0,0.0,0.0,0.0,0.0,0.0,0.0,0.0,0.0,0.0,0.0,0.0,0.0,0.0,0.0,0.0,0.0,0.0,0.0,0.0,0.0,0.0,0.0,0.0,0.0,0.0,0.0,0.0,0.0,0.0,0.0,0.0,0.0,0.0,0.0,-1.0996,-1.3208,-1.71,-2.0878,-2.1019,0.0,0.0,-2.3699,-2.4732,-2.5794,-2.5794,-2.3999,-2.141,-1.8268,0.0,0.0,0.0,-1.1914,-1.1638,-1.2168,-1.2458,0.0,0.0,0.0,0.0,0.0,0.0,0.0,0.0,0.0,0.0,0.0,0.0,0.0,0.0,0.0,0.0,-3.5622,-3.5622,-3.5622,-3.5622,-3.5622,-3.5622,-3.5622,-3.5622,-3.5622,-3.5622,-3.5622,-3.4284,-3.1894,-3.164,-3.1482,-3.1482,-3.1482,0.0,0.0,-3.1482,-3.1482,-3.1482,-3.1482,-3.1482,-3.1482,-3.1482,-3.1482,-3.1482,0.0,0.0,0.0,0.0,0.0,0.0,-0.3184,-0.3962,-0.4606,-0.4834,-0.4814,-0.4805,-0.4853,-0.4912,-0.5117,0.0,0.0,0.0,0.0,0.0,0.0,0.0,0.0,0.0,0.0,0.0,0.0,0.0,0.0,0.0,0.0,0.0,0.0,0.0,0.0,0.0,0.0,0.0,0.0,0.0,0.0,0.0,0.0,0.0,0.0,0.0,0.0,0.0,0.0,0.0,0.0,0.0,-1.1522,-1.4091,0.0,0.0,-2.0287,-2.1737,-2.3225,-2.3984,-2.4403,-2.4403,-2.3041,-2.1066,-1.8672,0.0,-1.4191,-1.3443,-1.2388,-1.1689,-1.194,-1.2332,-1.3342,0.0,-1.6123,-1.7803,0.0,0.0,0.0,0.0,0.0,0.0,0.0,0.0,0.0,0.0,0.0,0.0,-3.5622,-3.5622,-3.5424,-3.4988,-3.4864,-3.5068,-3.5577,-3.48,-3.3987,-3.3114,-3.3114,-3.2555,-3.1482,-3.1482,-3.1482,-3.1482,-3.1482,0.0,0.0,-3.1482,-3.1482,-3.1482,-3.1482,-3.1482,-3.1482,-3.1482,-3.1482,-3.1482,0.0,0.0,0.0,0.0,0.0,-0.2773,-0.2968,-0.3763,-0.4425,-0.4677,-0.4785,-0.4853,-0.4834,-0.4981,-0.529,-0.5745,0.0,0.0,0.0,0.0,0.0,0.0,0.0,0.0,0.0,0.0,0.0,0.0,0.0,0.0,0.0,0.0,0.0,0.0,0.0,0.0,0.0,0.0,0.0,0.0,0.0,0.0,0.0,0.0,0.0,0.0,0.0,0.0,0.0,0.0,0.0,0.0,0.0,0.0,0.0,0.0,-1.8561,-1.9951,-2.2129,-2.2892,-2.3041,-2.3041,-2.2218,-2.0842,0.0,0.0,-1.4558,-1.369,-1.2598,-1.1805,-1.1805,-1.2343,-1.325,0.0,-1.4989,-1.6506,-2.0542,0.0,0.0,0.0,0.0,0.0,0.0,0.0,0.0,0.0,0.0,0.0,0.0,-3.5115,-3.4894,-3.4624,-3.4137,-3.4202,-3.48,-3.3836,-3.2772,-3.1482,-3.1796,-3.1796,-3.1482,-3.1482,-3.1482,-3.1482,0.0,0.0,0.0,-3.1482,-3.1482,-3.1482,-3.1482,-3.1482,-3.1482,-3.1482,-3.1482,-3.1482,0.0,0.0,0.0,0.0,0.0,0.0,-0.29,-0.3287,-0.3808,-0.4602,-0.4466,-0.4507,-0.503,-0.5107,-0.5213,-0.5492,0.0,0.0,0.0,0.0,0.0,0.0,0.0,0.0,0.0,0.0,0.0,-0.6599,-0.6874,0.0,0.0,0.0,0.0,0.0,0.0,0.0,0.0,0.0,0.0,0.0,0.0,0.0,0.0,0.0,0.0,0.0,0.0,0.0,0.0,0.0,0.0,0.0,0.0,0.0,0.0,0.0,-1.7327,-1.8599,-2.0251,-2.1216,-2.1724,-2.1724,-2.1216,-2.0198,0.0,-1.6697,-1.5229,-1.322,-1.2269,-1.1805,-1.1805,-1.2343,-1.325,-1.4573,-1.5364,-1.7042,-2.0606,0.0,0.0,0.0,0.0,0.0,0.0,0.0,0.0,0.0,0.0,0.0,0.0,-3.3987,-3.3937,-3.4576,-3.3515,-3.2917,-3.2917,-3.2917,-3.2407,-3.1524,-3.2461,-3.2407,-3.1482,-3.1482,-3.1482,0.0,0.0,0.0,0.0,-3.1482,-3.1482,-3.1482,-3.1482,-3.1482,-3.1482,-3.1482,-3.1482,-3.1482,0.0,0.0,0.0,0.0,0.0,0.0,0.0,-0.2991,-0.3541,-0.4212,-0.4374,-0.4604,-0.5059,-0.5098,-0.5204,-0.5473,0.0,0.0,0.0,0.0,0.0,0.0,0.0,0.0,0.0,0.0,-0.6599,-0.6599,-0.6685,0.0,0.0,0.0,0.0,0.0,0.0,0.0,0.0,0.0,0.0,0.0,0.0,0.0,0.0,0.0,0.0,0.0,0.0,0.0,0.0,0.0,0.0,0.0,0.0,0.0,0.0,-1.2444,-1.4859,0.0,-1.8248,-1.9151,-1.954,-1.9091,-1.8787,-1.8235,-1.6742,-1.5725,-1.4689,-1.313,-1.2276,-1.1805,-1.1805,-1.2121,-1.3069,-1.5152,-1.6092,0.0,0.0,0.0,0.0,0.0,0.0,0.0,0.0,0.0,0.0,0.0,0.0,0.0,0.0,-3.3287,-3.2986,-3.3251,-3.2895,-3.2477,-3.1951,-3.1936,-3.1781,-3.1524,-3.1781,-3.1796,-3.1482,-3.1482,0.0,0.0,0.0,0.0,0.0,-3.1482,-3.1482,-3.1482,-3.1482,-3.1482,-3.1482,-3.1482,-3.1482,-3.1482,0.0,0.0,0.0,0.0,0.0,0.0,0.0,-0.2685,-0.3133,-0.378,-0.4014,-0.4323,-0.4825,-0.4874,-0.4998,-0.5319,0.0,0.0,0.0,0.0,0.0,0.0,0.0,0.0,0.0,-0.643,-0.6599,-0.6599,-0.6599,-0.6599,-0.6624,-0.745,0.0,0.0,0.0,0.0,0.0,0.0,0.0,0.0,0.0,0.0,-0.5127,0.0,0.0,0.0,0.0,0.0,0.0,0.0,0.0,0.0,0.0,0.0,0.0,0.0,-1.2221,-1.4141,0.0,-1.7217,-1.7362,-1.7055,-1.6888,-1.6484,-1.5293,-1.4707,-1.4034,-1.2711,-1.2089,-1.1805,-1.1805,-1.2458,-1.3482,-1.4988,0.0,0.0,0.0,0.0,0.0,0.0,0.0,0.0,0.0,0.0,0.0,0.0,0.0,0.0,0.0,-3.2571,-3.216,-3.216,-3.216,-3.1951,-3.1524,-3.1482,-3.1482,-3.1482,-3.1482,-3.1482,-3.1482,-3.1482,0.0,0.0,0.0,0.0,0.0,-3.1482,-3.1482,-3.1482,-3.1482,-3.1482,-3.1482,-3.1482,-3.1482,-3.1482,0.0,0.0,0.0,0.0,0.0,0.0,0.0,-0.2374,-0.2646,-0.3385,-0.3482,-0.3726,-0.4381,-0.4482,-0.4641,-0.503,0.0,0.0,0.0,0.0,0.0,0.0,0.0,0.0,0.0,-0.636,-0.6599,-0.6599,-0.6854,-0.6966,-0.7004,-0.8985,-0.8813,-0.6824,0.0,0.0,0.0,0.0,0.0,0.0,0.0,-0.5127,0.0,0.0,0.0,0.0,0.0,0.0,0.0,0.0,0.0,0.0,0.0,0.0,0.0,0.0,0.0,0.0,0.0,-1.5255,-1.514,-1.5457,-1.53,-1.4847,-1.3867,-1.3705,0.0,-1.2074,-1.1826,-1.1863,-1.1968,-1.3251,-1.4382,-1.4655,0.0,0.0,0.0,0.0,0.0,0.0,0.0,0.0,0.0,0.0,0.0,0.0,0.0,0.0,0.0,-3.1853,-3.1482,-3.1482,-3.1482,-3.1482,-3.1482,-3.1482,-3.1482,-3.1482,-3.1482,-3.1482,-3.1482,-3.1482,0.0,0.0,0.0,0.0,0.0,-3.1482,-3.1482,-3.1482,-3.1482,-3.1482,-3.1482,-3.1482,-3.1482,-3.1482,0.0,0.0,0.0,0.0,0.0,0.0,0.0,0.0,0.0,0.0,-0.3276,-0.3478,-0.399,-0.4307,-0.4541,0.0,0.0,0.0,0.0,0.0,0.0,0.0,0.0,0.0,0.0,-0.636,-0.6599,-0.6599,-0.9278,-1.0579,-1.0558,-1.0097,-0.9629,-0.9052,-0.735,-0.6171,0.0,0.0,0.0,0.0,-0.5377,-0.5463,0.0,0.0,0.0,0.0,-0.636,-0.6418,0.0,0.0,0.0,0.0,0.0,0.0,0.0,0.0,-0.8558,-0.9199,-1.1385,0.0,-1.2647,-1.2709,-1.3082,-1.3183,0.0,-1.2658,-1.2792,0.0,0.0,-1.2451,-1.3581,-1.3988,-1.5123,0.0,0.0,0.0,0.0,0.0,0.0,0.0,0.0,0.0,0.0,0.0,0.0,0.0,0.0,0.0,0.0,-3.1582,-3.1482,-3.1482,-3.1482,-3.1482,-3.1482,-3.1482,-3.1482,-3.1482,-3.1482,-3.1482,-3.1482,-3.1482,0.0,0.0,0.0,0.0,-3.1482,-3.1482,-3.1482,-3.1482,-3.1482,-3.1482,-3.1482,-3.1482,-3.1482,-3.1482,0.0,0.0,0.0,0.0,0.0,0.0,0.0,0.0,0.0,0.0,0.0,0.0,0.0,0.0,0.0,0.0,0.0,0.0,0.0,0.0,0.0,0.0,0.0,-0.6009,-0.6213,-0.6465,-0.6689,-0.6881,-1.018,-1.1805,-1.1798,-1.1534,-1.1395,-1.1257,-0.8039,-0.6034,0.0,0.0,0.0,0.0,-0.5472,0.0,0.0,0.0,0.0,0.0,-0.6183,-0.6248,0.0,-0.6517,-0.6599,-0.6616,0.0,0.0,0.0,0.0,-0.7887,-0.8311,-0.9439,-1.0858,-1.2131,-1.2596,-1.2876,-1.2976,-1.2769,0.0,0.0,0.0,0.0,0.0,-1.3756,0.0,0.0,0.0,0.0,0.0,0.0,0.0,0.0,0.0,0.0,0.0,0.0,0.0,0.0,0.0,0.0,0.0,0.0,-3.1482,-3.1482,-3.1482,-3.1482,-3.1482,-3.1482,-3.1482,-3.1482,-3.1482,-3.1482,-3.1482,-3.1482,-3.1482,-3.1482,0.0,0.0,0.0,-3.1482,-3.1482,-3.1482,-3.1482,-3.1482,-3.1482,-3.1482,-3.1482,-3.1482,-3.1482,0.0,0.0,0.0,0.0,0.0,0.0,0.0,0.0,0.0,0.0,0.0,0.0,0.0,0.0,0.0,0.0,0.0,0.0,0.0,0.0,0.0,0.0,0.0,-0.6088,-0.6515,-0.6642,-0.6832,-0.7114,-1.0259,-1.1805,-1.1806,-1.2403,-1.2522,-1.2021,-0.8112,-0.5888,0.0,0.0,0.0,0.0,0.0,0.0,0.0,0.0,0.0,0.0,0.0,0.0,0.0,-0.6517,-0.6599,-0.6633,-0.6807,0.0,0.0,0.0,0.0,0.0,-0.8769,-1.0726,-1.2687,-1.3332,-1.3513,-1.3586,-1.3774,0.0,0.0,0.0,0.0,0.0,0.0,0.0,0.0,0.0,0.0,0.0,0.0,0.0,0.0,0.0,0.0,0.0,0.0,0.0,0.0,0.0,0.0,0.0,0.0,-3.1482,-3.1482,-3.1482,-3.1482,-3.1482,-3.1482,-3.1482,-3.1482,-3.1482,-3.1482,-3.1482,-3.1482,-3.1482,-3.1482,0.0,0.0,0.0,-3.1482,-3.1482,-3.1482,-3.1482,-3.1482,-3.1482,-3.1482,-3.1482,-3.1796,-3.2048,0.0,0.0,0.0,0.0,0.0,0.0,0.0,0.0,0.0,0.0,0.0,0.0,0.0,0.0,0.0,0.0,0.0,0.0,0.0,0.0,0.0,0.0,-0.5973,-0.5991,-0.6165,-0.6776,-0.6966,-0.6689,-1.0135,-1.1805,-1.1783,-1.0843,-0.9416,-0.7536,-0.6004,-0.5243,-0.503,0.0,0.0,0.0,0.0,0.0,0.0,0.0,0.0,0.0,0.0,0.0,0.0,-0.6517,-0.6599,-0.6599,-0.6633,0.0,0.0,0.0,0.0,0.0,-1.0559,-1.2409,-1.3317,-1.2336,-1.3351,-1.443,0.0,0.0,0.0,0.0,0.0,0.0,0.0,0.0,0.0,0.0,0.0,0.0,0.0,0.0,0.0,0.0,0.0,0.0,0.0,0.0,0.0,0.0,0.0,0.0,0.0,0.0,-3.1482,-3.1482,-3.1482,-3.1482,-3.1482,-3.1482,-3.1482,-3.1482,-3.1482,-3.1482,-3.1482,-3.1482,-3.1482,0.0,0.0,-3.1482,-3.1482,-3.1482,-3.1482,-3.1482,-3.1482,-3.1482,-3.1482,-3.1482,-3.2955,-3.464,0.0,0.0,0.0,0.0,0.0,0.0,0.0,0.0,0.0,0.0,0.0,0.0,0.0,0.0,0.0,0.0,0.0,0.0,0.0,0.0,0.0,-0.6189,-0.6088,-0.6195,-0.6579,-0.6781,-0.7012,-0.7298,-0.8913,-1.0678,-1.252,-1.0741,-0.9366,-0.8314,-0.6645,-0.5611,-0.5069,-0.4567,0.0,-0.5907,0.0,0.0,0.0,0.0,0.0,0.0,0.0,0.0,0.0,0.0,-0.6599,-0.6599,-0.6599,0.0,0.0,0.0,0.0,0.0,-0.9282,-1.1176,-1.2658,-1.2388,-1.4378,-1.6293,0.0,0.0,0.0,0.0,0.0,0.0,0.0,0.0,0.0,0.0,0.0,0.0,0.0,0.0,0.0,0.0,0.0,0.0,0.0,0.0,0.0,0.0,0.0,0.0,0.0,0.0,-3.1482,-3.1482,-3.1482,-3.1482,-3.1482,-3.1482,-3.1482,-3.1482,-3.1482,-3.1482,-3.1482,-3.1482,-3.1482,-3.1482,0.0,-3.1482,-3.1482,-3.1482,-3.1482,-3.1482,-3.1482,-3.1482,-3.1482,-3.1482,-3.2296,-3.3219,0.0,0.0,0.0,0.0,0.0,0.0,0.0,0.0,0.0,0.0,0.0,0.0,0.0,0.0,0.0,0.0,0.0,0.0,0.0,0.0,-0.5971,-0.6189,-0.6201,-0.6423,-0.6908,-0.6706,-0.7187,-0.8371,-0.8371,-0.9756,-1.2384,-1.0696,-0.9629,-0.9064,-0.735,-0.6171,-0.5442,-0.5442,-0.5888,-0.6564,0.0,0.0,0.0,0.0,0.0,0.0,0.0,0.0,0.0,0.0,0.0,0.0,0.0,0.0,0.0,-0.7223,-0.7439,-0.7737,-0.8392,-1.0159,-1.2059,-1.322,0.0,-1.7386,0.0,0.0,0.0,0.0,0.0,0.0,0.0,0.0,0.0,0.0,0.0,0.0,0.0,0.0,0.0,0.0,0.0,0.0,0.0,0.0,0.0,0.0,0.0,0.0,0.0,0.0,-3.1076,-3.1076,-3.1076,-3.1076,-3.1076,-3.1076,-3.1168,-3.1482,-3.1482,-3.1482,-3.1482,-3.1482,-3.1482,-3.1482,-3.1482,-3.1482,-3.1482,-3.1482,-3.1482,-3.1482,-3.1482,-3.1482,-3.1482,-3.1482,-3.1482,-3.1482,0.0,0.0,0.0,0.0,0.0,0.0,0.0,0.0,0.0,0.0,0.0,0.0,0.0,0.0,0.0,0.0,0.0,0.0,0.0,0.0,-0.5921,-0.6195,-0.6436,-0.6582,-0.6633,-0.6616,-0.764,-0.9754,-0.9754,-0.9894,-1.0131,-0.9981,-0.8813,-0.6824,-0.6674,-0.6564,-0.6483,-0.6483,-0.6547,-0.6599,-0.6564,0.0,0.0,0.0,0.0,0.0,0.0,0.0,0.0,0.0,0.0,0.0,0.0,0.0,-0.6977,-0.7438,-0.7575,-0.8028,-1.0058,-1.1191,-1.2403,-1.4959,0.0,0.0,0.0,0.0,0.0,0.0,0.0,0.0,0.0,0.0,0.0,0.0,0.0,0.0,0.0,0.0,0.0,0.0,0.0,0.0,0.0,0.0,0.0,0.0,0.0,0.0,0.0,0.0,0.0,-2.9729,-2.9729,-2.9729,-2.9729,-2.9729,-3.0328,-3.1482,-3.1482,-3.1482,-3.1482,-3.1482,-3.1482,-3.1482,-3.1482,-3.1482,-3.1482,-3.1482,-3.1482,-3.1482,-3.1482,-3.1482,-3.1482,-3.1482,-3.1482,-3.1482,0.0,0.0,0.0,0.0,0.0,0.0,0.0,0.0,0.0,0.0,0.0,0.0,0.0,0.0,0.0,0.0,0.0,0.0,0.0,0.0,-0.5651,-0.6165,-0.6453,-0.6599,-0.6599,-0.8715,-0.9857,-0.9905,-0.9905,-0.9202,-0.7839,-0.7839,-0.74,-0.6633,-0.7171,-0.7107,-0.6633,-0.7171,-0.7237,-0.6966,-0.6878,-0.6544,0.0,0.0,0.0,0.0,0.0,0.0,0.0,0.0,-0.6685,-0.6807,0.0,0.0,0.0,0.0,-0.7605,-0.781,-0.8734,-1.0369,-1.2239,-1.4094,0.0,0.0,0.0,0.0,0.0,0.0,0.0,0.0,0.0,0.0,0.0,0.0,0.0,0.0,0.0,0.0,0.0,0.0,0.0,0.0,0.0,0.0,0.0,0.0,0.0,0.0,0.0,0.0,0.0,-2.9579,-2.9579,-2.9579,-2.9579,-2.9579,-2.9834,-3.0313,-3.0313,-3.0313,-3.0328,-3.0717,-3.0896,-3.0911,-3.1287,-3.1482,-3.1482,-3.1482,-3.1482,-3.1482,-3.1482,-3.1482,-3.1482,-3.1482,-3.1482,-3.1482,0.0,0.0,0.0,0.0,0.0,0.0,0.0,0.0,0.0,0.0,0.0,0.0,0.0,0.0,0.0,0.0,0.0,0.0,-0.4017,-0.462,-0.5209,-0.5722,-0.6308,-0.6599,-0.6599,-0.8943,-1.006,-0.9905,-0.9202,-0.8098,-0.6599,-0.6599,-0.674,-0.7026,-0.7635,-0.756,-0.7042,-0.765,-0.7709,-0.741,-0.716,-0.6802,0.0,0.0,0.0,0.0,0.0,0.0,0.0,0.0,-0.6702,-0.6824,0.0,0.0,0.0,0.0,-0.7987,-0.8355,-0.8498,-1.0298,-1.2433,0.0,0.0,0.0,0.0,0.0,0.0,0.0,0.0,0.0,0.0,0.0,0.0,0.0,0.0,0.0,0.0,0.0,0.0,0.0,0.0,0.0,0.0,0.0,0.0,0.0,0.0,0.0,0.0,0.0,0.0,0.0,-2.8951,-2.8951,-2.8951,-2.8951,-2.8951,-2.8951,-2.8951,-2.9175,-2.9594,-3.0028,-3.0223,-3.0253,-3.115,-3.1482,-3.1482,-3.1482,-3.1482,-3.1482,-3.1482,-3.1482,-3.1482,-3.1482,-3.1482,-3.1482,0.0,0.0,0.0,0.0,0.0,0.0,0.0,0.0,0.0,0.0,0.0,0.0,0.0,0.0,0.0,0.0,0.0,0.0,-0.2826,-0.385,-0.4581,-0.4795,-0.5952,-0.6599,-0.6599,-0.6599,-0.7663,-0.9868,-0.7663,-0.6599,-0.6599,-0.6616,-0.7075,-0.7899,-0.7899,-0.7899,-0.7899,-0.7899,-0.7899,-0.787,-0.7394,-0.708,-0.6908,0.0,0.0,0.0,0.0,0.0,0.0,0.0,-0.6599,-0.6672,0.0,0.0,0.0,0.0,-0.8842,-0.9905,-0.9905,-1.1311,0.0,0.0,0.0,0.0,0.0,0.0,0.0,0.0,0.0,0.0,0.0,0.0,0.0,0.0,0.0,0.0,0.0,0.0,0.0,0.0,0.0,0.0,0.0,0.0,0.0,0.0,0.0,0.0,0.0,0.0,0.0,0.0,-2.7625,-2.7625,-2.7625,-2.7625,-2.7625,-2.7625,-2.7625,-2.8329,-2.9564,-2.9564,-2.9564,-2.9639,-3.0941,-3.1452,-3.1452,-3.1467,-3.1482,-3.1482,-3.1482,-3.1482,-3.1482,-3.1482,-3.1482,-3.1482,0.0,0.0,0.0,0.0,0.0,0.0,0.0,0.0,0.0,0.0,0.0,0.0,0.0,0.0,0.0,0.0,0.0,0.0,-0.2826,-0.3117,-0.3757,-0.4751,-0.5637,-0.6272,-0.6599,-0.6599,-0.6925,-0.7576,-0.6925,-0.6599,-0.6616,-0.7235,-0.765,-0.7899,-0.7899,-0.7899,-0.7899,-0.7899,-0.7899,-0.7885,-0.7739,-0.7393,-0.6944,0.0,0.0,0.0,0.0,0.0,0.0,0.0,0.0,0.0,0.0,0.0,0.0,-0.7601,-0.8524,-0.9737,-0.9648,0.0,0.0,0.0,0.0,0.0,0.0,0.0,0.0,0.0,0.0,0.0,0.0,0.0,0.0,0.0,0.0,0.0,0.0,0.0,0.0,0.0,0.0,0.0,0.0,0.0,0.0,0.0,0.0,0.0,0.0,0.0,0.0,0.0,-2.7625,-2.7625,-2.7625,-2.7625,-2.7625,-2.7625,-2.7625,-2.7835,-2.8188,-2.8667,-2.8891,-2.8921,-2.9445,-2.9849,-3.0238,-3.115,-3.1482,-3.1482,-3.1482,-3.1482,-3.1482,-3.1482,-3.1482,-3.1482,0.0,0.0,0.0,0.0,0.0,0.0,0.0,0.0,0.0,0.0,0.0,-0.2807,0.0,0.0,0.0,0.0,0.0,0.0,0.0,-0.2898,-0.3352,-0.4512,-0.5472,-0.6171,-0.6599,-0.6599,-0.6599,-0.6599,-0.6599,-0.6599,-0.6616,-0.7139,-0.756,-0.7899,-0.7899,-0.7899,-0.7899,-0.7899,-0.7899,-0.7899,-0.7899,-0.7679,-0.7329,0.0,0.0,0.0,0.0,0.0,0.0,0.0,0.0,0.0,0.0,0.0,0.0,-0.794,-0.908,-1.0543,-1.1158,0.0,0.0,0.0,0.0,0.0,0.0,0.0,0.0,0.0,0.0,0.0,0.0,0.0,0.0,0.0,0.0,0.0,0.0,0.0,0.0,0.0,0.0,0.0,0.0,0.0,0.0,0.0,0.0,0.0,0.0,0.0,0.0,0.0,-2.7625,-2.7625,-2.7625,-2.7625,-2.7625,-2.7625,-2.7625,-2.7625,-2.7625,-2.8008,-2.8188,-2.8203,-2.8308,-2.8517,-2.8936,-3.0776,-3.1482,-3.1482,-3.1482,-3.1482,-3.1625,-3.2718,-3.3114,-3.3114,0.0,0.0,-0.1999,-0.1989,0.0,0.0,0.0,0.0,0.0,0.0,0.0,-0.2789,0.0,0.0,0.0,-0.3386,0.0,0.0,0.0,0.0,-0.3336,-0.4173,-0.5462,-0.6283,-0.6599,-0.6599,-0.6599,-0.6599,-0.6599,-0.6599,-0.6599,-0.6685,-0.7139,-0.7899,-0.7899,-0.7899,-0.7899,-0.7899,-0.7899,-0.7899,-0.7899,-0.7856,-0.7739,-0.7303,0.0,0.0,0.0,0.0,0.0,0.0,0.0,0.0,0.0,0.0,-0.7502,-0.842,-1.001,-1.1864,0.0,0.0,0.0,0.0,0.0,0.0,0.0,0.0,0.0,0.0,0.0,0.0,0.0,0.0,0.0,0.0,0.0,0.0,0.0,0.0,0.0,0.0,0.0,0.0,0.0,0.0,0.0,0.0,0.0,0.0,0.0,0.0,0.0,0.0,-2.7625,-2.7625,-2.7625,-2.7625,-2.7625,0.0,-2.7625,-2.7625,-2.7625,-2.7625,-2.7625,-2.7625,-2.7625,-2.7625,-2.7754,-3.0178,-3.1315,-3.1482,-3.1482,-3.1625,-3.2201,-3.4704,-3.5622,-3.5622,0.0,0.0,-0.1969,-0.1865,0.0,0.0,0.0,0.0,-0.2203,-0.2598,-0.2617,-0.2898,-0.3676,-0.3847,0.0,-0.3781,-0.3773,0.0,0.0,0.0,-0.3622,-0.4185,-0.5676,-0.6517,-0.6599,-0.6599,-0.6599,-0.6599,-0.6599,-0.6599,-0.6616,-0.7298,-0.7724,-0.7899,-0.7899,-0.7899,-0.7899,-0.7899,-0.7899,-0.7899,-0.7899,-0.7484,-0.6861,-0.6709,-0.63,0.0,0.0,0.0,0.0,0.0,0.0,0.0,-0.6908,-0.7548,-0.8141,-0.7346,-0.9148,0.0,0.0,0.0,0.0,0.0,0.0,0.0,0.0,0.0,0.0,0.0,0.0,0.0,0.0,0.0,0.0,0.0,0.0,0.0,0.0,0.0,0.0,0.0,0.0,0.0,0.0,0.0,0.0,0.0,0.0,0.0,0.0,0.0,0.0,-2.7625,-2.7625,-2.7625,-2.7625,-2.7625,-2.7625,0.0,-2.7625,-2.7625,-2.7625,-2.7625,-2.7625,-2.7625,-2.7625,-2.7625,-2.767,-2.8188,-2.9654,-3.1482,-3.1482,-3.281,-3.48,-3.5362,-3.5622,-3.5622,0.0,0.0,0.0,0.0,0.0,0.0,0.0,0.0,-0.2071,-0.2548,-0.2962,-0.3398,-0.3847,-0.3906,0.0,0.0,-0.3906,-0.3773,0.0,0.0,-0.3824,-0.4548,-0.5879,-0.6599,-0.6599,-0.7009,-0.7219,-0.7219,-0.7219,-0.7219,-0.7235,-0.7694,-0.7899,-0.7899,-0.7899,-0.7899,-0.7899,-0.7899,-0.7899,-0.787,-0.7438,-0.7009,-0.6535,-0.6029,-0.5701,-0.5491,-0.5204,0.0,0.0,0.0,0.0,0.0,0.0,0.0,-0.8,-0.766,-0.9111,-1.1148,0.0,0.0,0.0,0.0,0.0,0.0,0.0,0.0,0.0,0.0,0.0,0.0,0.0,0.0,0.0,0.0,0.0,0.0,0.0,0.0,0.0,0.0,0.0,0.0,0.0,0.0,0.0,0.0,0.0,0.0,0.0,-2.7625,-2.7625,-2.7625,-2.7625,-2.7625,-2.7625,-2.7625,-2.7625,-2.7625,-2.7625,-2.7625,-2.7625,-2.7625,-2.7625,-2.7625,-2.7625,-2.7625,-2.7625,-2.7625,-2.8382,-2.9907,-3.2453,-3.3515,-3.3786,-3.5115,-3.5622,-3.5407,0.0,0.0,0.0,0.0,0.0,0.0,0.0,0.0,0.0,-0.2646,-0.3414,-0.3906,-0.3906,-0.3906,-0.3906,0.0,0.0,0.0,-0.362,0.0,0.0,-0.4771,-0.596,-0.6633,-0.6706,-0.7484,-0.7899,-0.7899,-0.7899,-0.7899,0.0,-0.7899,-0.8139,-0.8574,-0.8574,-0.8319,-0.7899,-0.7899,-0.7827,-0.762,-0.6891,-0.6599,-0.6483,-0.548,-0.5108,-0.5108,-0.5108,-0.5571,-0.6258,-0.6795,0.0,0.0,0.0,0.0,-0.7609,-0.8139,-0.9118,-1.0483,0.0,0.0,0.0,0.0,0.0,0.0,0.0,0.0,0.0,0.0,0.0,0.0,0.0,0.0,0.0,0.0,0.0,0.0,0.0,0.0,0.0,0.0,0.0,0.0,0.0,0.0,0.0,0.0,0.0,0.0,-2.7245,-2.723,-2.723,-2.723,-2.723,-2.723,-2.723,-2.735,-2.7445,-2.7445,-2.7515,-2.7625,-2.7625,-2.7625,-2.7625,-2.7625,-2.7625,-2.7625,-2.7625,-2.7625,-2.7625,-2.8072,-3.2478,-3.2846,-3.1147,-3.3908,-3.4911,-3.4544,0.0,0.0,0.0,0.0,0.0,0.0,0.0,0.0,0.0,0.0,-0.3606,-0.3906,-0.3906,-0.3906,-0.3906,-0.3906,-0.3906,-0.3811,0.0,0.0,0.0,-0.4041,-0.5687,-0.6761,-0.7114,-0.7635,-0.7899,-0.7899,-0.7899,0.0,0.0,0.0,0.0,-1.1281,-1.1281,-1.0009,-0.7899,-0.7899,-0.7469,-0.6757,-0.6651,-0.6599,-0.6483,-0.548,-0.5108,-0.5108,-0.5108,-0.5723,-0.6596,-0.708,-0.7606,0.0,0.0,0.0,0.0,0.0,0.0,0.0,0.0,0.0,0.0,0.0,0.0,0.0,0.0,0.0,0.0,0.0,0.0,0.0,0.0,0.0,0.0,0.0,0.0,0.0,0.0,0.0,0.0,0.0,0.0,0.0,0.0,0.0,0.0,0.0,0.0,0.0,-2.5899,-2.5869,-2.5869,-2.5869,-2.5869,-2.5869,-2.5869,-2.6437,-2.6722,-2.6722,-2.7305,-2.7625,-2.7625,-2.7625,-2.7625,-2.7625,-2.7625,-2.7625,-2.7625,-2.7625,-2.7625,-2.7655,-2.8373,-2.8425,-2.8419,-3.1086,-3.2048,-3.1992,0.0,0.0,0.0,0.0,0.0,0.0,0.0,0.0,0.0,0.0,0.0,-0.3906,-0.3906,-0.3906,-0.3906,-0.3906,-0.3906,0.0,0.0,0.0,0.0,0.0,-0.5108,-0.5835,-0.6119,-0.5826,-0.5656,-0.5656,0.0,0.0,0.0,-1.0942,-1.2156,0.0,0.0,0.0,0.0,0.0,-0.6944,-0.6599,-0.6599,-0.6599,-0.6547,-0.6117,-0.5943,-0.5943,-0.5943,-0.6549,-0.7424,-0.8,-0.8278,-0.8355,0.0,0.0,0.0,0.0,0.0,0.0,0.0,0.0,0.0,0.0,0.0,0.0,0.0,0.0,0.0,0.0,0.0,0.0,0.0,0.0,0.0,0.0,0.0,0.0,0.0,0.0,0.0,0.0,0.0,0.0,0.0,0.0,0.0,0.0,0.0,-2.5914,-2.563,-2.5615,-2.5615,-2.5615,-2.5615,-2.5615,-2.5615,-2.5899,-2.6228,-2.6602,-2.726,-2.7625,-2.7625,-2.7625,-2.7625,-2.7625,-2.7625,-2.7625,-2.7625,-2.7625,-2.7625,-2.7625,-2.7625,-2.7625,-2.776,-2.8891,-3.0253,-3.1739,0.0,0.0,0.0,0.0,0.0,0.0,0.0,0.0,0.0,0.0,0.0,-0.3906,-0.3906,0.0,0.0,0.0,-0.3906,0.0,0.0,0.0,0.0,0.0,0.0,-0.4695,-0.4865,-0.4231,-0.3906,-0.3906,0.0,0.0,-0.7,-1.2306,-1.373,0.0,-1.0477,-0.9056,0.0,0.0,0.0,-0.6599,-0.6599,-0.6599,-0.6724,-0.7851,-0.7576,-0.6599,-0.6599,0.0,0.0,0.0,0.0,0.0,0.0,0.0,0.0,0.0,0.0,0.0,0.0,0.0,0.0,0.0,0.0,0.0,0.0,0.0,0.0,0.0,0.0,0.0,0.0,0.0,0.0,0.0,0.0,0.0,0.0,0.0,0.0,0.0,0.0,0.0,0.0,0.0,0.0,0.0,0.0,-2.5285,-2.5106,-2.5091,-2.5091,-2.5091,-2.5091,-2.5091,-2.5091,-2.527,-2.5689,-2.6348,-2.7006,-2.732,-2.732,-2.755,-2.7625,-2.7625,-2.7625,-2.7625,-2.7625,-2.7625,-2.7625,-2.7625,-2.7625,-2.7625,-2.7625,-2.7625,-2.9681,-3.281,0.0,0.0,0.0,0.0,0.0,0.0,0.0,0.0,0.0,0.0,0.0,-0.3906,-0.3906,-0.3906,-0.3906,-0.3906,-0.3906,0.0,0.0,0.0,0.0,0.0,0.0,0.0,-0.3693,-0.3817,-0.3906,0.0,0.0,0.0,-0.4219,-0.9531,-1.1925,-1.191,-1.433,-1.3528,-1.0238,0.0,0.0,-0.6599,-0.6599,-0.6599,-0.7062,-1.1257,-1.0255,-0.6599,0.0,0.0,0.0,0.0,0.0,0.0,0.0,0.0,0.0,0.0,0.0,0.0,0.0,0.0,0.0,0.0,0.0,0.0,0.0,0.0,0.0,0.0,0.0,0.0,0.0,0.0,0.0,0.0,0.0,0.0,0.0,0.0,0.0,0.0,0.0,0.0,0.0,0.0,0.0,0.0,0.0,-2.4388,-2.3744,-2.3699,-2.3699,-2.3699,-2.3699,-2.3699,-2.3699,-2.4358,-2.5016,-2.5674,-2.6333,-2.6632,-2.6662,-2.729,-2.7625,-2.7625,-2.7625,-2.7625,-2.7625,-2.7625,-2.7625,-2.7625,-2.7625,-2.7625,-2.7625,-2.7625,-3.091,-3.5424,0.0,0.0,0.0,0.0,0.0,0.0,0.0,0.0,0.0,0.0,0.0,0.0,0.0,-0.3906,-0.3906,-0.3906,-0.3667,0.0,0.0,0.0,0.0,0.0,0.0,0.0,0.0,-0.3818,0.0,0.0,0.0,-0.5715,-0.6538,-1.0129,-1.1356,-1.0578,-1.0687,-1.0567,-1.0144,-0.8065,0.0,-0.6599,-0.6599,-0.8302,-1.1007,-1.2597,-1.3085,-1.3124,0.0,0.0,0.0,0.0,0.0,0.0,0.0,-0.8211,-0.8049,-0.8008,0.0,0.0,0.0,0.0,0.0,0.0,0.0,0.0,0.0,0.0,0.0,0.0,0.0,0.0,0.0,0.0,0.0,0.0,0.0,0.0,0.0,0.0,0.0,0.0,0.0,0.0,0.0,0.0,0.0,0.0,0.0,0.0,-2.3068,-2.3377,-2.3595,-2.3595,-2.3595,-2.3595,-2.3595,-2.4283,-2.4701,-2.4986,-2.5644,-2.5959,-2.5974,-2.6632,-2.6946,-2.6961,-2.738,-2.7625,-2.7625,-2.7625,-2.7625,-2.7625,-2.7625,-2.8528,-2.9919,-2.9919,-3.1123,-3.3051,0.0,0.0,0.0,-0.2273,0.0,-0.288,-0.3008,-0.3106,-0.3133,-0.3041,0.0,0.0,0.0,0.0,-0.384,-0.3713,-0.3452,-0.3336,-0.3427,0.0,0.0,0.0,0.0,0.0,0.0,0.0,0.0,0.0,0.0,0.0,0.0,-0.9665,-1.0279,-0.983,-0.8499,-0.8739,0.0,0.0,0.0,-0.7875,0.0,0.0,-1.3286,0.0,-1.4751,0.0,0.0,0.0,0.0,0.0,0.0,0.0,0.0,-0.8133,-0.8158,-0.8102,0.0,0.0,0.0,0.0,0.0,0.0,0.0,0.0,0.0,0.0,0.0,0.0,0.0,0.0,0.0,0.0,0.0,0.0,0.0,0.0,0.0,0.0,0.0,0.0,0.0,0.0,0.0,0.0,0.0,0.0,0.0,0.0,-2.3009,-2.3377,-2.3595,-2.3595,-2.3595,-2.3595,-2.3595,-2.4059,-2.4283,-2.4283,-2.4956,-2.527,-2.53,-2.5959,-2.6258,-2.6303,-2.6886,-2.7355,-2.7625,-2.7625,-2.7625,-2.766,-2.848,-2.9789,-3.119,-3.119,-3.119,-3.1478,-0.1677,-0.1792,-0.1976,-0.2499,-0.2769,-0.2915,-0.2924,-0.3138,-0.3306,-0.3306,0.0,0.0,0.0,0.0,0.0,-0.343,-0.3344,-0.3306,-0.3332,-0.3319,0.0,0.0,0.0,0.0,0.0,0.0,0.0,0.0,0.0,0.0,0.0,0.0,-0.8528,-0.9725,-0.8453,-0.8733,-1.0193,0.0,-1.1075,-1.0406,0.0,-0.9289,-1.3493,0.0,0.0,0.0,-1.8172,-1.969,0.0,0.0,0.0,0.0,0.0,-0.8045,-0.8106,-0.8106,-0.8162,0.0,0.0,0.0,0.0,0.0,0.0,0.0,0.0,0.0,0.0,0.0,0.0,0.0,0.0,0.0,0.0,0.0,0.0,0.0,0.0,0.0,0.0,0.0,0.0,0.0,0.0,0.0,0.0,0.0,0.0,-2.2935,-2.3478,-2.358,-2.3595,-2.3595,-2.3595,-2.3595,-2.3595,-2.3595,-2.3595,-2.361,-2.4283,-2.4552,-2.4567,-2.527,-2.5585,-2.5615,-2.6063,-2.6816,-2.7625,-2.7625,-2.7625,-2.7845,-3.0192,-3.1151,-3.119,-3.119,-3.119,-3.119,-0.1677,-0.1792,-0.1976,-0.2499,-0.2928,-0.3294,-0.3583,-0.3431,-0.3306,0.0,0.0,0.0,-0.5921,-0.5863,-0.5805,-0.57,-0.4229,-0.3524,-0.407,-0.3591,-0.3323,-0.3349,-0.3557,-0.3659,-0.3636,0.0,0.0,0.0,0.0,-0.4286,-0.5018,-0.5854,-0.6509,-0.7021,-0.7474,-0.8002,-0.8607,-0.981,0.0,0.0,-0.8599,-1.0556,0.0,0.0,0.0,0.0,0.0,-1.969,0.0,0.0,-1.5424,-1.2436,0.0,0.0,0.0,-0.832,-0.8599,0.0,-0.8454,0.0,0.0,0.0,0.0,0.0,0.0,0.0,0.0,0.0,0.0,0.0,0.0,0.0,0.0,0.0,0.0,0.0,0.0,0.0,0.0,0.0,0.0,0.0,0.0,0.0,0.0,0.0,-2.1379,-2.1871,-2.1634,-2.2878,-2.3595,-2.3595,-2.3595,-2.3595,-2.3595,-2.3595,-2.3595,-2.3595,-2.3789,-2.3879,-2.3909,-2.4582,-2.4896,-2.4956,-2.5869,-2.6816,-2.7625,-2.7625,-2.7625,-2.7675,-2.8352,-2.9657,-3.119,-3.119,-3.119,-3.119,-0.2357,-0.286,-0.3416,-0.4139,-0.4498,-0.4872,-0.5483,-0.5056,-0.467,0.0,0.0,0.0,-0.6651,-0.6599,-0.6599,-0.6599,-0.5424,-0.457,-0.4284,-0.3944,-0.3644,-0.3391,-0.3879,-0.4027,-0.3728,-0.4224,-0.4294,-0.3906,-0.3906,-0.3906,-0.3921,-0.4581,-0.5555,-0.6765,-0.7429,-0.7783,-0.7959,-0.8739,0.0,0.0,-1.1362,0.0,0.0,-1.6593,-1.8392,0.0,0.0,0.0,-1.838,-1.838,-1.6323,0.0,0.0,0.0,-0.9723,-0.918,-0.9347,0.0,0.0,0.0,0.0,0.0,0.0,0.0,0.0,0.0,0.0,0.0,0.0,0.0,0.0,0.0,0.0,0.0,0.0,0.0,0.0,0.0,0.0,0.0,0.0,0.0,0.0,0.0,0.0,-1.9605,-2.0202,-2.0689,-2.0879,-2.2102,-2.2802,-2.2802,-2.3071,-2.3206,-2.3206,-2.3475,-2.3595,-2.3595,-2.3595,-2.3595,-2.361,-2.4014,-2.4193,-2.4238,-2.4881,-2.545,-2.6004,-2.716,-2.7625,-2.7625,-2.7625,-2.848,-2.9701,-2.9701,-3.0335,-3.1055,0.0,-0.4366,-0.5423,-0.643,-0.6599,-0.6858,-0.7635,-0.6996,-0.6465,0.0,-0.6599,-0.6699,-0.6937,-0.6749,-0.6599,-0.6599,-0.6599,-0.5935,-0.4383,-0.4282,-0.4072,-0.3619,-0.426,-0.4458,-0.4091,-0.4788,-0.4737,-0.3906,-0.3906,-0.3869,-0.3833,-0.3855,-0.5148,-0.7465,-0.7409,-0.7409,-0.748,-0.7779,0.0,-1.1595,-1.4285,-1.4285,0.0,0.0,-1.9566,0.0,-1.7188,-1.6522,-1.6509,-1.6494,-1.5655,0.0,0.0,-1.2188,-1.1733,-1.0476,-1.0392,0.0,-1.0404,-1.0575,0.0,0.0,0.0,0.0,-1.3793,-1.3476,0.0,0.0,0.0,0.0,0.0,0.0,0.0,0.0,0.0,0.0,0.0,0.0,0.0,0.0,0.0,0.0,0.0,-2.0048,-1.9704,-1.9706,-1.9354,-1.9601,-2.0721,-2.1355,-2.1695,-2.1695,-2.2263,-2.2604,-2.2604,-2.3176,-2.349,-2.349,-2.3565,-2.3595,-2.3595,-2.3595,-2.3595,-2.3595,-2.3595,-2.3595,-2.3804,-2.6467,-2.7625,-2.7625,-2.7625,-2.7625,-2.7625,-2.7625,-2.898,-3.0502,-0.3464,-0.4366,-0.5423,-0.643,-0.6599,-0.6668,-0.6824,-0.6022,-0.5686,-0.6483,-0.6599,-0.7275,-0.9064,-0.7663,-0.6599,-0.6599,-0.6599,-0.6273,-0.5511,-0.4242,-0.3726,-0.4202,-0.3818,-0.4114,-0.5242,-0.4552,-0.4077,-0.3906,-0.3906,-0.3736,-0.3419,-0.3589,-0.4018,-0.4666,-0.4337,-0.4374,-0.4824,-0.6985,0.0,-0.8889,-1.1521,0.0,-1.8253,-1.9301,-1.8612,-1.7076,-1.6637,-1.6522,-1.6506,0.0,-1.5922,-1.5101,0.0,0.0,0.0,0.0,0.0,-1.244,-1.1453,-1.2292,-1.307,0.0,0.0,0.0,0.0,-1.1675,0.0,0.0,0.0,0.0,0.0,0.0,0.0,0.0,0.0,0.0,0.0,0.0,0.0,0.0,0.0,0.0,0.0,-1.8587,-1.817,-1.7295,-1.8363,-1.9405,-2.0059,-2.1104,-2.1695,-2.1695,-2.1814,-2.1889,-2.1889,-2.2532,-2.2862,-2.2862,-2.3355,-2.3595,-2.3595,-2.3595,-2.3595,-2.3595,-2.3595,-2.3595,-2.3804,-2.6467,-2.7625,-2.7625,-2.7625,-2.7625,-2.7625,-2.7625,-2.7894,-2.8255,-0.3506,-0.4366,-0.5262,-0.576,-0.5852,-0.5852,-0.5852,-0.5423,-0.5281,-0.5778,-0.7247,-0.8675,-0.978,-0.8914,-0.7789,-0.6699,-0.6599,-0.6486,-0.6227,-0.5411,-0.4871,-0.4708,-0.527,-0.5962,-0.6742,-0.6193,-0.5895,-0.5895,0.0,0.0,0.0,-0.3403,-0.4093,-0.5259,-0.5498,-0.5704,-0.5985,0.0,-0.8664,-0.995,-1.1266,0.0,-1.9566,-1.8496,-1.7422,-1.6522,-1.6522,-1.6522,-1.6439,-1.6086,-1.6126,0.0,0.0,-1.4878,-1.4844,0.0,-1.3219,-1.3735,0.0,0.0,-1.4146,-1.2852,0.0,0.0,0.0,0.0,0.0,0.0,0.0,0.0,0.0,0.0,0.0,0.0,0.0,0.0,0.0,0.0,0.0,0.0,0.0,0.0,0.0,-1.799,-1.7684,-1.6577,-1.7576,-1.844,-1.8976,-1.9817,-2.0448,-2.0692,-2.1021,-2.1201,-2.1201,-2.1859,-2.2353,-2.2724,-2.2996,-2.3295,-2.3595,-2.3595,-2.3595,-2.3595,-2.3595,-2.3595,-2.3699,-2.5046,-2.5585,-2.5845,-2.8383,-2.8654,-2.7625,-2.7625,-2.7625,-2.7625,-0.3548,-0.4191,-0.4853,-0.5069,-0.5108,-0.5108,-0.5108,-0.5108,-0.5323,-0.5941,-0.8275,-0.9905,-0.9905,-0.9905,-0.9014,-0.6787,-0.6599,-0.6599,-0.6599,-0.6599,-0.6214,-0.5337,-0.6985,-0.7899,-0.7899,-0.7899,-0.7827,-0.765,0.0,0.0,-0.3306,-0.3306,-0.4573,-0.6904,0.0,0.0,0.0,0.0,0.0,-1.1066,0.0,-1.4514,-1.8893,-1.7146,-1.6522,-1.6522,-1.6522,-1.6522,-1.6421,-1.5942,0.0,-1.7047,-1.5478,-1.591,0.0,0.0,0.0,0.0,0.0,0.0,0.0,0.0,0.0,-1.4424,0.0,0.0,0.0,-1.3539,0.0,0.0,0.0,0.0,0.0,0.0,0.0,0.0,0.0,0.0,0.0,0.0,0.0,0.0,0.0,-1.7357,-1.7223,-1.6539,-1.6785,-1.7277,-1.7933,-1.8535,-1.9095,-1.953,-2.0191,-2.0513,-2.0513,-2.1216,-2.1829,-2.2394,-2.2697,-2.3116,-2.3595,-2.3595,-2.3595,-2.3595,-2.3595,-2.3837,-2.4184,-2.4184,-2.4184,-2.4611,-2.8837,-2.9345,-2.7625,-2.7625,-2.7625,-2.7625,-0.3689,-0.3605,-0.3986,-0.4932,-0.5108,-0.5108,-0.5108,-0.5108,-0.6128,-0.8985,-0.9666,-0.9905,0.0,0.0,0.0,0.0,0.0,0.0,-0.6599,0.0,-0.6549,-0.6424,-0.7367,-0.7899,-0.7899,-0.7899,-0.7514,-0.674,-0.4824,0.0,0.0,-0.3306,-0.4892,-0.7857,-1.0271,0.0,0.0,0.0,-0.8079,0.0,-0.9644,-1.2833,0.0,-1.6595,-1.6522,-1.6522,-1.6522,-1.6522,-1.6539,0.0,-1.718,-1.7223,0.0,-1.6992,0.0,0.0,0.0,0.0,0.0,0.0,0.0,0.0,-1.5205,0.0,0.0,0.0,-1.3404,-1.2173,0.0,0.0,0.0,0.0,0.0,0.0,0.0,0.0,0.0,0.0,0.0,0.0,0.0,0.0,0.0,0.0,-1.5615,-1.6446,-1.614,-1.6307,-1.7341,-1.8341,-1.893,-1.9006,-1.9516,-1.9794,-1.9794,-2.0647,-2.1111,-2.1201,-2.2757,-2.3535,-2.3595,-2.3595,-2.3595,-2.3595,-2.3595,-2.4641,-2.635,-2.635,-2.635,-2.6441,-2.7578,-2.7845,-2.7625,-2.7625,-2.7625,-2.7625,-0.4507,-0.4426,-0.4567,-0.503,-0.5574,-0.5778,-0.5185,-0.5593,-0.6458,-0.781,-0.9115,0.0,0.0,0.0,0.0,0.0,0.0,-1.1232,0.0,0.0,-0.6599,-0.6599,-0.7438,-0.7899,-0.7899,-0.7899,-0.7469,-0.6599,-0.635,-0.5336,0.0,0.0,-0.5177,-0.7944,-0.9053,0.0,-1.0249,0.0,0.0,0.0,0.0,0.0,0.0,-1.3659,-1.4274,-1.6522,-1.6522,-1.6522,-1.6446,0.0,-1.6794,0.0,0.0,0.0,0.0,0.0,0.0,0.0,0.0,0.0,0.0,0.0,0.0,0.0,0.0,0.0,-1.309,0.0,0.0,0.0,0.0,0.0,0.0,0.0,0.0,0.0,0.0,0.0,0.0,0.0,0.0,0.0,0.0,0.0,0.0,0.0,0.0,-1.5685,-1.6771,-1.7557,-1.8106,-1.8419,-1.8968,-1.9244,-1.9244,-1.9923,-2.0483,-2.1006,-2.1739,-2.2622,-2.3595,-2.3595,-2.3595,-2.3595,-2.3595,-2.476,-2.6691,-2.6691,-2.5999,-2.491,-2.5195,-2.6213,-2.7625,-2.7625,-2.7625,-2.7625,-0.5108,0.0,0.0,-0.5108,-0.5704,-0.6034,-0.5574,-0.6135,-0.7037,-0.8252,0.0,0.0,-1.2109,-1.3373,0.0,0.0,0.0,-1.4212,0.0,0.0,-0.7225,-0.6624,-0.8123,0.0,0.0,-0.7899,-0.7589,-0.6944,-0.7589,-0.691,0.0,0.0,-0.603,-0.7899,0.0,-0.9773,-1.3017,0.0,0.0,-0.7864,-1.2102,-1.489,-1.617,-1.2944,-1.3709,-1.6522,-1.6522,-1.6522,-1.6434,-1.5865,-1.6417,0.0,-1.6046,0.0,0.0,0.0,0.0,0.0,-1.6032,0.0,0.0,0.0,0.0,0.0,0.0,0.0,0.0,0.0,0.0,0.0,0.0,0.0,0.0,0.0,0.0,0.0,0.0,0.0,0.0,0.0,0.0,0.0,0.0,0.0,0.0,0.0,0.0,0.0,-1.6205,-1.681,-1.7343,-1.7854,-1.8535,-1.8893,-1.8893,-1.9442,-2.0004,-2.0632,-2.0632,-2.1306,-2.2562,-2.3266,-2.3906,-2.4455,-2.4455,-2.5303,-2.6691,-2.6691,-2.5491,-2.3595,-2.3595,-2.4777,-2.6572,-2.7355,-2.7625,-2.7625,-0.5108,-0.5108,0.0,0.0,0.0,-0.5461,-0.6413,-0.6582,-0.8139,0.0,0.0,0.0,0.0,0.0,0.0,0.0,0.0,-1.3248,-1.3098,0.0,-0.8851,0.0,0.0,-1.0488,0.0,0.0,-0.7885,-0.7856,-0.7885,-0.7854,0.0,0.0,0.0,0.0,0.0,-1.0792,-1.5679,-1.5769,-1.3471,-0.9629,-0.7688,-1.0756,-1.6497,0.0,-1.6396,-1.6522,-1.6522,0.0,0.0,-1.6497,-1.6497,0.0,0.0,0.0,0.0,0.0,0.0,0.0,0.0,0.0,0.0,-1.5205,0.0,0.0,0.0,0.0,-1.3896,0.0,0.0,0.0,0.0,0.0,0.0,-1.2467,0.0,0.0,0.0,0.0,0.0,0.0,0.0,0.0,0.0,0.0,0.0,0.0,0.0,0.0,-1.5583,-1.6244,-1.6771,-1.7286,-1.8341,-1.8893,-1.8893,-1.9442,-1.969,-1.9735,-1.9735,-1.975,-1.9899,-2.2443,-2.4681,-2.6607,-2.6607,-2.6657,-2.6691,-2.6691,-2.5491,-2.3595,-2.3595,-2.3655,-2.4044,-2.6617,-2.7625,-2.7625,0.0,0.0,0.0,0.0,0.0,-0.5442,-0.6448,-0.7839,-0.9328,0.0,0.0,0.0,0.0,0.0,-1.4755,0.0,0.0,-1.5364,-1.5364,-1.3298,0.0,0.0,0.0,-1.2019,0.0,0.0,-0.7899,-0.7899,-0.7899,0.0,0.0,0.0,0.0,0.0,0.0,-0.9863,0.0,0.0,0.0,0.0,0.0,-1.4513,-1.6522,0.0,0.0,-1.6522,-1.6522,-1.6522,0.0,-1.6522,-1.6522,-1.6522,-1.6522,-1.6522,-1.6522,-1.6522,-1.6522,0.0,0.0,0.0,-1.6333,-1.5605,0.0,0.0,0.0,0.0,0.0,0.0,0.0,0.0,0.0,0.0,-1.2472,-1.1964,0.0,0.0,0.0,0.0,0.0,0.0,0.0,0.0,0.0,0.0,0.0,0.0,0.0,0.0,0.0,-1.5507,-1.622,-1.674,-1.7827,-1.838,-1.838,-1.9244,-1.969,-1.969,-1.969,-1.969,-1.9779,-2.2398,-2.4721,-2.6691,-2.6691,-2.6691,-2.6691,-2.6691,-2.6298,-2.564,-2.564,-2.48,-2.3714,-2.4612,-2.4941,-2.5196,-0.5108,0.0,0.0,0.0,0.0,0.0,0.0,0.0,0.0,0.0,-1.2529,0.0,-1.2633,0.0,-1.4789,0.0,-1.6522,-1.6522,-1.6522,-1.5151,0.0,-1.1186,-1.3907,0.0,0.0,0.0,-0.9293,-0.9293,0.0,-0.7899,0.0,0.0,0.0,0.0,0.0,0.0,0.0,0.0,-1.5189,0.0,0.0,-1.6522,0.0,0.0,-1.7626,-1.7626,0.0,-1.7626,-1.7504,-1.6752,-1.6522,-1.6522,-1.6522,-1.6522,-1.6522,-1.6522,-1.6522,-1.6522,-1.6522,-1.6522,0.0,-1.5831,-1.5429,0.0,-1.4261,0.0,0.0,0.0,0.0,0.0,0.0,0.0,0.0,-1.2228,-1.1525,0.0,0.0,0.0,0.0,0.0,0.0,0.0,0.0,0.0,-0.9468,-1.0136,0.0,0.0,0.0,0.0,-1.5467,-1.6208,-1.7247,-1.7907,-1.8106,-1.8968,-1.953,-1.969,-1.969,-1.969,-1.975,-2.144,-2.3831,-2.6691,-2.6691,-2.6691,-2.6691,-2.6691,-2.6691,-2.6691,-2.6691,-2.5416,-2.3595,-2.3595,-2.4193,-2.5255,0.0,0.0,0.0,0.0,-0.6128,0.0,0.0,0.0,-1.2472,0.0,-1.3898,-1.6522,-1.6522,-1.6522,-1.6522,-1.6522,-1.6522,0.0,-1.6522,-1.6421,0.0,0.0,-1.7313,-1.844,-1.6038,0.0,0.0,0.0,0.0,0.0,0.0,0.0,0.0,0.0,-0.6599,0.0,-1.3336,-1.5539,-1.6522,-1.6595,-1.6595,-1.6595,-1.6795,-1.8893,-1.969,-1.969,-1.969,-1.969,-1.9369,-1.7271,-1.6552,-1.6522,-1.6522,-1.6522,-1.6522,-1.6522,-1.6522,-1.6522,-1.6522,-1.6522,-1.6396,-1.5869,0.0,0.0,0.0,0.0,-1.479,0.0,0.0,0.0,0.0,0.0,0.0,-1.3173,-1.2266,0.0,0.0,0.0,0.0,0.0,0.0,0.0,0.0,0.0,-0.7938,-0.9377,-0.9057,0.0,0.0,0.0,-1.4542,-1.5668,-1.6777,-1.7585,-1.8106,-1.865,-1.9207,-1.969,-1.969,-1.969,-1.969,-1.969,-2.2267,-2.6691,-2.6691,-2.6691,-2.6691,-2.6691,-2.6691,-2.6691,-2.6573,-2.5341,-2.3595,-2.3595,-2.5285,-2.7625,-0.5243,-0.5704,-0.673,0.0,-0.8874,-0.9805,0.0,0.0,0.0,0.0,-1.5765,-1.6522,-1.6522,-1.6522,-1.6522,-1.6522,-1.6522,0.0,0.0,0.0,0.0,-1.563,-1.6723,-1.7738,-1.8687,-1.6128,0.0,-1.4779,0.0,0.0,-0.7885,0.0,0.0,0.0,0.0,0.0,-1.3336,-1.5539,-1.6951,-1.7706,-1.7706,-1.7706,0.0,0.0,-1.969,-1.969,-1.969,-1.969,-1.9479,-1.8145,-1.7146,-1.6522,-1.6522,-1.6522,-1.6522,-1.6522,-1.6522,-1.6522,-1.6522,-1.6522,-1.6484,-1.6346,-1.5994,-1.5618,0.0,0.0,0.0,0.0,0.0,0.0,0.0,0.0,0.0,0.0,0.0,0.0,0.0,0.0,0.0,0.0,0.0,0.0,0.0,0.0,-0.7961,-0.7763,-0.8527,0.0,0.0,0.0,0.0,-1.5655,-1.713,-1.7947,-1.8106,-1.9043,-1.9566,-1.969,-1.969,-1.969,-1.969,-1.969,-2.2267,-2.6691,-2.6691,-2.6691,-2.6691,-2.6691,-2.6691,-2.6539,-2.4996,-2.4059,-2.3595,-2.3595,-2.5285,-2.7625,-0.53,0.0,0.0,-1.0973,0.0,0.0,-1.1695,0.0,0.0,-1.6233,-1.6522,0.0,-1.6522,-1.6522,-1.6522,-1.6522,-1.6522,0.0,0.0,0.0,0.0,-1.6471,-1.6522,-1.7076,-1.8263,-1.6839,0.0,-1.3219,0.0,0.0,-0.7314,0.0,0.0,0.0,0.0,-0.8515,0.0,-1.5145,-1.685,-1.746,-1.8074,0.0,0.0,-1.9369,-1.969,-1.969,-1.9442,-1.9369,-1.9244,-1.8535,-1.7827,-1.7105,-1.6637,-1.6522,-1.6522,-1.6522,-1.6522,-1.6522,-1.6522,-1.6522,-1.6522,-1.6522,-1.6283,-1.5994,-1.5756,-1.5693,-1.5605,0.0,0.0,0.0,0.0,0.0,0.0,0.0,0.0,0.0,0.0,0.0,0.0,0.0,0.0,0.0,0.0,0.0,-0.7511,-0.6852,-0.7673,0.0,0.0,0.0,0.0,-1.494,-1.6784,-1.7867,-1.8106,-1.893,-1.9551,-1.9965,-1.9965,-2.0015,-2.0085,-2.0345,-2.2749,-2.6691,-2.6691,-2.6691,-2.6624,-2.573,-2.5341,-2.5227,-2.4059,-2.3595,-2.3595,-2.3595,-2.5285,-2.7625,0.0,0.0,0.0,0.0,0.0,0.0,0.0,-1.2416,0.0,-1.5827,0.0,-1.6195,-1.6484,-1.6522,-1.6522,-1.6522,0.0,-1.6522,-1.6522,-1.6522,-1.6522,-1.6522,-1.6522,-1.6522,-1.6522,-1.6522,0.0,0.0,0.0,0.0,-0.6599,0.0,0.0,0.0,0.0,0.0,0.0,-1.4631,-1.6523,0.0,-1.8131,-1.8688,-1.8817,-1.9442,-1.9639,-1.953,-1.908,-1.8893,-1.8855,-1.8535,-1.8263,-1.7827,-1.6697,-1.6293,-1.6293,-1.6466,-1.6522,-1.6522,-1.6522,-1.6522,-1.6522,-1.6522,-1.6522,-1.6396,-1.5906,-1.5806,-1.5806,-1.5806,-1.5417,-1.5354,0.0,0.0,0.0,0.0,0.0,0.0,0.0,0.0,0.0,0.0,0.0,0.0,0.0,0.0,-0.6943,-0.6367,0.0,0.0,0.0,0.0,0.0,-1.4283,-1.6258,0.0,-1.8224,0.0,-1.9434,-2.0314,-2.0314,-2.0431,-2.0714,-2.1181,-2.3222,-2.642,-2.6607,-2.6539,-2.6142,-2.4333,-2.3595,-2.3595,-2.3595,-2.3595,-2.3551,-2.3216,-2.4552,-2.6615,0.0,0.0,0.0,0.0,0.0,-1.3674,-1.5101,-1.5693,-1.5389,-1.3962,-1.3774,-1.4463,-1.6321,-1.6522,-1.6522,-1.6522,-1.6522,0.0,0.0,0.0,0.0,-1.6522,-1.6522,-1.6522,-1.6522,-1.6522,-1.5254,0.0,-1.0797,-0.8776,-0.6599,0.0,0.0,0.0,0.0,0.0,-1.2763,-1.4764,0.0,-1.8264,-1.8684,-1.9132,-1.953,-1.9639,-1.9442,-1.9043,-1.893,-1.8893,-1.8765,-1.7827,-1.7585,-1.7409,-1.5996,-1.5299,-1.5197,-1.6207,-1.6522,-1.6522,-1.6522,-1.6522,-1.6522,-1.6522,-1.6522,-1.6497,-1.6396,-1.6371,-1.6371,-1.6371,-1.6296,-1.6145,-1.5881,0.0,0.0,0.0,0.0,0.0,0.0,0.0,0.0,0.0,0.0,0.0,0.0,0.0,0.0,0.0,0.0,0.0,0.0,0.0,0.0,0.0,-1.6634,0.0,0.0,0.0,-1.9823,-2.0314,-2.0314,-2.0649,-2.1244,-2.1368,-2.2675,-2.4932,-2.6167,-2.573,-2.4101,-2.3752,-2.3595,-2.3595,-2.3595,-2.3595,-2.3363,-2.1232,-2.0768,-2.1446,0.0,0.0,0.0,0.0,0.0,0.0,0.0,-1.6522,0.0,-1.5039,-1.4901,-1.5302,-1.6396,-1.6522,-1.6522,-1.6522,-1.6522,-1.6522,-1.6522,-1.6522,-1.6522,-1.6522,-1.6522,0.0,-1.6522,-1.6522,-1.5994,-1.4901,-1.0408,-0.7372,-0.5815,0.0,0.0,-0.6649,0.0,-1.0118,0.0,0.0,0.0,-1.809,-1.8555,-1.8968,-1.9244,-1.8968,-1.8688,-1.8458,-1.8185,-1.8066,-1.7987,-1.7463,-1.6883,-1.6275,-1.5522,-1.4571,-1.4025,-1.5197,-1.602,-1.6522,-1.6522,-1.6522,-1.6522,-1.6522,-1.6522,-1.6522,-1.6522,-1.6522,-1.6522,-1.6522,-1.6238,-1.5849,-1.5325,-1.503,0.0,0.0,0.0,0.0,0.0,0.0,0.0,0.0,0.0,0.0,0.0,0.0,0.0,0.0,0.0,0.0,0.0,0.0,0.0,0.0,0.0,0.0,0.0,0.0,0.0,-2.0649,-2.0649,-2.0943,-2.1491,-2.1275,-2.2134,-2.3836,-2.5059,-2.5114,-2.4389,-2.3837,-2.3595,-2.3595,-2.3595,-2.2786,-2.1459,-2.0232,-1.9798,-2.0125,0.0,-1.5089,0.0,0.0,-1.6911,0.0,-1.6584,-1.6522,-1.6522,-1.6522,-1.6522,-1.6522,-1.6522,-1.6522,-1.6522,-1.6522,-1.6522,-1.6522,-1.6522,-1.6522,-1.6522,-1.6522,-1.6522,-1.6522,-1.6522,-1.6522,-1.6522,0.0,0.0,0.0,0.0,-0.5283,-0.5884,-0.7388,0.0,0.0,0.0,0.0,-1.7499,-1.7993,-1.8432,-1.8612,-1.8574,-1.8224,-1.8027,-1.7867,-1.7463,-1.7229,-1.7105,-1.7105,-1.633,-1.5344,-1.5209,-1.4212,-1.3286,-1.4387,-1.5377,-1.6151,-1.6423,-1.6522,-1.6522,-1.6522,-1.6423,-1.6337,-1.6466,-1.638,-1.6337,-1.6466,-1.6139,-1.5576,-1.4903,-1.5274,0.0,0.0,0.0,0.0,0.0,0.0,0.0,0.0,0.0,0.0,0.0,0.0,0.0,0.0,0.0,0.0,0.0,0.0,0.0,0.0,0.0,-1.7825,-1.8973,0.0,-2.0583,0.0,-2.1118,-2.1354,-2.1718,-2.1306,-2.1744,-2.2888,-2.3786,-2.4421,-2.4776,-2.3948,-2.3595,-2.3551,-2.298,-2.1554,-1.9798,-1.9798,-1.9798,-2.0125,0.0,0.0,0.0,0.0,0.0,0.0,0.0,-1.6522,-1.6522,-1.6522,-1.6522,-1.6522,-1.6522,-1.6522,-1.6522,-1.6522,-1.6522,-1.6522,-1.6522,-1.6522,-1.6522,-1.6522,-1.6522,-1.6522,-1.6522,-1.6522,-1.6522,0.0,0.0,0.0,0.0,-0.5847,-0.6705,-0.9692,0.0,0.0,0.0,-1.8474,-1.9434,-1.9447,-1.8864,-1.8263,-1.7747,-1.7987,-1.7787,-1.7394,-1.7312,-1.6993,-1.6552,-1.6552,-1.6139,-1.5499,-1.4926,-1.4294,-1.3873,-1.4514,-1.4789,-1.5119,-1.6194,-1.6522,-1.6522,-1.6522,-1.6095,-1.582,-1.638,-1.6095,-1.582,-1.638,-1.6479,-1.6077,-1.4988,-1.5691,-1.574,0.0,0.0,0.0,0.0,0.0,0.0,0.0,0.0,0.0,0.0,0.0,0.0,0.0,0.0,0.0,0.0,0.0,0.0,-1.5302,0.0,-1.784,-1.9333,-1.9986,-2.0699,-2.1552,-2.1552,-2.1794,-2.2209,-2.1764,-2.173,-2.2039,-2.2802,-2.338,-2.3752,-2.3638,-2.3595,-2.3363,-2.1037,-1.9991,-1.9798,-1.9798,-1.9798,-2.0125,0.0,0.0,0.0,0.0,0.0,0.0,0.0,-1.8493,-1.8493,-1.8493,-1.7338,-1.6522,-1.6522,-1.6522,-1.6522,-1.6522,-1.5164,-1.434,-1.434,-1.434,-1.434,-1.434,-1.434,-1.434,-1.434,-1.434,-1.434,0.0,0.0,0.0,0.0,0.0,0.0,0.0,0.0,-1.6376,-1.8496,-1.9332,-1.9332,-1.865,-1.7706,-1.7394,-1.7394,-1.7188,-1.6993,-1.6837,-1.6837,-1.668,-1.6423,-1.6095,-1.5555,-1.5017,-1.4789,-1.4283,-1.3909,-1.4514,-1.4971,-1.541,-1.6281,-1.6238,-1.5952,-1.5952,-1.5511,-1.5231,-1.582,-1.5764,-1.5776,-1.638,-1.6522,-1.6262,-1.5425,-1.5929,-1.6207,0.0,0.0,0.0,0.0,0.0,0.0,0.0,0.0,0.0,0.0,0.0,0.0,0.0,0.0,-0.6589,-0.9059,0.0,0.0,-1.5458,0.0,-1.8167,-1.9688,-2.0639,-2.1259,-2.1582,-2.1368,-2.1354,-2.1493,-2.0797,-2.0961,-2.1843,-2.2906,-2.3436,-2.3595,-2.3595,-2.2696,-2.1232,-2.0181,-1.9798,-1.9798,-1.9798,-1.9798,-1.9924,-1.6173,0.0,-1.9798,0.0,-1.9798,-1.9798,-1.9798,-1.9798,-1.9475,-1.865,-1.717,-1.6173,-1.6173,-1.6173,-1.5986,-1.548,-1.3884,-1.2881,-1.2881,-1.2881,-1.32,-1.3931,-1.3296,0.0,-1.2881,-1.2881,-1.2881,-1.2881,-1.2881,0.0,0.0,-1.0541,0.0,0.0,-1.5777,-1.7706,-1.9698,-1.9724,-1.8918,-1.7585,-1.7268,-1.7231,-1.7372,-1.7093,-1.6866,-1.6675,-1.6675,-1.654,-1.6291,-1.5868,-1.5311,-1.4759,-1.4521,-1.4143,-1.3909,-1.4514,-1.5152,-1.572,-1.6337,-1.6051,-1.5588,-1.5588,-1.5141,-1.488,-1.5454,-1.5588,-1.572,-1.6139,-1.6238,-1.6095,-1.5676,-1.5942,-1.6279,-1.6473,0.0,0.0,0.0,0.0,0.0,0.0,0.0,-0.9667,-0.8008,0.0,0.0,0.0,0.0,-0.8297,-0.9879,0.0,0.0,0.0,0.0,0.0,0.0,-2.1117,-2.1658,-2.1794,-2.1385,-2.1055,-2.0893,-2.0462,-2.0797,-2.1769,-2.3041,-2.3595,-2.3551,-2.2786,-2.1411,-1.9798,-1.9798,-1.9798,-1.9798,-1.9798,-1.9798,-1.9798,-1.5439,-1.7752,-1.9798,-1.9798,-1.9798,-1.9798,-1.9798,-1.9798,-1.8756,-1.5853,-1.5449,-1.5439,-1.5439,-1.5439,-1.4763,-1.3077,-1.2929,-1.2881,-1.2881,-1.2881,-1.3978,0.0,0.0,-1.2881,-1.2881,-1.2881,-1.2881,-1.2881,0.0,0.0,-1.29,-1.5274,-1.6403,-1.6471,-1.6509,-1.7706,-1.9693,-1.9787,-1.8553,-1.6647,-1.8091,-1.8242,-1.7639,-1.8041,-1.7713,-1.7085,-1.7085,-1.6642,-1.5992,-1.5992,-1.5607,-1.4955,-1.4062,-1.3826,-1.3909,-1.4514,-1.5152,-1.572,-1.6337,-1.6051,-1.5588,-1.5588,-1.5141,-1.488,-1.5454,-1.5588,-1.5588,-1.5632,-1.5632,-1.5632,-1.5588,-1.5632,-1.5799,-1.6401,0.0,0.0,0.0,0.0,0.0,0.0,-1.0616,-1.0562,-1.1196,0.0,0.0,0.0,0.0,0.0,0.0,0.0,0.0,-1.6683,-1.8484,0.0,-2.057,-2.1266,-2.1823,-2.2282,-2.1823,-2.1244,-2.0644,-2.1356,-2.168,-2.1769,-2.3041,-2.3595,-2.3406,-2.089,-1.985,-1.9798,-1.9798,-1.9798,-1.9798,-1.9798,-1.9798,-1.9798,-1.541,-1.6187,-1.7446,-1.9475,-1.9798,-1.9798,-1.9798,-1.9798,-1.8756,-1.5796,-1.541,-1.541,-1.541,-1.541,-1.5195,0.0,-1.4609,-1.4609,0.0,-1.4609,-1.4974,-1.569,-1.5019,-1.4609,-1.4609,-1.3477,-1.2881,-1.2881,0.0,0.0,0.0,-1.6151,-1.6522,-1.6522,-1.6522,-1.7727,-1.9747,-1.9787,-1.9108,-1.7994,-1.7823,-1.7567,-1.7207,-1.6828,-1.6566,-1.6366,-1.6366,-1.6216,-1.5913,-1.5526,-1.5289,-1.5081,-1.4858,-1.4778,-1.4887,-1.5245,-1.5454,-1.5632,-1.582,-1.5141,-1.4365,-1.4365,-1.392,-1.361,-1.4226,-1.4687,-1.4971,-1.4971,-1.4971,-1.4971,-1.4971,-1.532,-1.5508,-1.5336,-1.5344,0.0,0.0,0.0,0.0,0.0,0.0,-1.038,0.0,-1.1614,0.0,0.0,0.0,0.0,0.0,0.0,0.0,0.0,-1.8783,0.0,-2.0982,-2.172,-2.2003,-2.1823,-2.1385,-2.0764,-1.9995,-2.0234,-2.0827,-2.1769,-2.3041,-2.3595,-2.3406,-2.0841,-1.9798,-1.9798,-1.9798,-1.9798,-1.9798,-1.9798,-1.9798,-1.9798,-1.541,-1.541,-1.5958,-1.7829,-1.9085,-1.9798,-1.9798,-1.8862,-1.7501,-1.5633,-1.541,-1.541,-1.541,-1.541,0.0,-1.541,-1.541,-1.541,-1.541,-1.541,-1.541,-1.541,-1.541,-1.541,-1.541,0.0,0.0,-1.3828,-1.4136,-1.5017,-1.6522,-1.6522,-1.6961,-1.7752,-1.7752,-1.8518,-1.9747,-1.9202,-1.8738,-1.8226,-1.767,-1.734,-1.7147,-1.6728,-1.6505,-1.6295,-1.619,-1.6031,-1.5721,-1.5311,-1.5375,-1.5614,-1.5468,-1.5609,-1.5841,-1.5626,-1.5737,-1.5792,-1.5367,-1.4549,-1.3815,-1.3815,-1.3695,-1.3742,-1.4318,-1.4778,-1.4971,-1.4744,-1.4514,-1.4422,-1.4663,-1.5017,-1.5141,-1.4744,-1.4756,-1.4463,-1.3318,0.0,0.0,0.0,0.0,0.0,0.0,-1.2485,0.0,0.0,0.0,0.0,0.0,0.0,0.0,-1.7801,-1.9322,0.0,-2.113,-2.1578,-2.1645,-2.1368,-2.0943,-2.0364,-1.969,-1.969,-2.0423,-2.1769,-2.3041,-2.3069,-2.2025,-2.0471,-1.9798,-1.9798,-1.9798,-1.9798,-1.9798,-1.9798,-1.9798,-1.9798,-1.541,-1.541,0.0,0.0,-1.7665,0.0,-1.9475,-1.7169,-1.541,-1.541,-1.541,-1.541,-1.541,-1.541,-1.541,-1.541,0.0,0.0,0.0,-1.541,-1.541,-1.541,-1.541,-1.541,-1.541,-1.4629,-1.472,-1.568,-1.6369,-1.6748,-1.6748,-1.6748,-1.784,-1.9798,-1.9798,-1.9798,-1.9695,-1.8112,-1.7468,-1.7523,-1.7523,-1.7382,-1.7243,-1.7409,-1.7191,-1.6754,-1.6482,-1.5979,-1.541,-1.541,-1.5864,-1.6363,-1.588,-1.6224,-1.6602,-1.5773,-1.5879,-1.6021,-1.497,-1.4222,-1.3732,-1.3732,-1.419,-1.4789,-1.5365,-1.5499,-1.532,-1.4698,-1.4143,-1.3956,-1.4514,-1.4698,-1.4744,-1.4652,-1.435,-1.3839,-1.3123,0.0,0.0,0.0,0.0,0.0,0.0,-1.3339,-1.3847,0.0,0.0,0.0,0.0,0.0,-1.6742,-1.9324,-1.9973,-2.0516,-2.1007,-2.0991,-2.0991,-2.0959,-2.0483,-2.0054,-1.969,-1.969,-2.0423,-2.1769,-2.3041,-2.2179,-1.9798,-1.9798,-1.9798,-1.9798,-1.9798,-1.9798,-1.9798,-1.9798,-1.9798,-1.9798,0.0,0.0,-1.541,-1.541,-1.5958,-1.6461,-1.6461,-1.5853,-1.541,-1.541,-1.541,-1.541,-1.541,-1.541,-1.541,-1.541,-1.541,-1.541,-1.541,-1.541,-1.541,-1.541,-1.541,-1.541,-1.541,-1.5215,-1.6297,-1.8756,-1.8956,-1.9032,-1.9032,-1.9032,-1.9309,-1.9798,-1.9798,-1.9798,-1.9631,-1.7002,-1.6358,-1.7034,-1.681,-1.6736,-1.6618,-1.6146,-1.5853,-1.5748,-1.569,-1.5526,-1.541,-1.541,-1.5526,-1.5728,-1.6198,-1.6437,-1.6469,-1.6034,-1.5422,-1.4801,-1.4548,-1.381,-1.3104,-1.3104,-1.3552,-1.405,-1.4179,-1.4226,-1.405,-1.343,-1.36,-1.3815,-1.4003,-1.4778,-1.5096,-1.4143,-1.4071,-1.3586,-1.2145,-1.1664,0.0,0.0,-1.203,-1.285,-1.317,-1.4728,-1.5827,0.0,0.0,0.0,0.0,-1.7702,-1.7963,-1.937,-1.9973,-2.0516,-2.1007,-2.0991,-2.0829,-2.0449,-2.0035,-1.9782,-1.969,-1.969,-2.0423,-2.1769,-2.3041,-2.2179,-1.9798,-1.9798,-1.9798,-1.9798,-1.9798,-1.9798,-1.9798,-1.9798,-1.9798,-1.9798,-1.541,-1.541,-1.5664,-1.6465,-1.5937,-1.5674,-1.6484,-1.6602,-1.6602,-1.6602,-1.6602,-1.6299,-1.5498,-1.541,-1.541,-1.541,-1.541,-1.541,-1.541,-1.541,-1.541,-1.541,-1.541,-1.6016,-1.739,-1.6073,-1.6845,-1.9798,-1.9798,-1.9798,-1.9798,-1.9798,-1.9798,-1.9747,-1.837,-1.7775,-1.7665,-1.6073,-1.569,-1.6197,-1.6036,-1.5979,-1.5921,-1.5526,-1.569,-1.6083,-1.5921,-1.5921,-1.5921,-1.5921,-1.5921,-1.5921,-1.5979,-1.6208,-1.6388,-1.5875,-1.5447,-1.4945,-1.4185,-1.3571,-1.3264,-1.3614,-1.419,-1.4641,-1.4641,-1.4641,-1.4457,-1.3836,-1.3967,-1.419,-1.419,-1.4949,-1.5194,-1.4034,-1.4226,-1.3919,-1.2156,-1.2191,0.0,-1.1958,-1.2913,-1.3784,-1.4235,-1.5282,-1.6089,-1.6454,0.0,0.0,-1.8092,-1.7899,-1.8215,-1.9126,-1.9732,-2.0019,-2.0043,-2.0296,-2.0277,-2.0035,-1.9803,-1.969,-1.969,-1.969,-2.0423,-2.1769,-2.3041,-2.2179,-1.9798,-1.9798,-1.9798,-1.9798,-1.9798,-1.9798,-1.9798,-1.9798,-1.9798,-1.9798,-1.5801,-1.5801,-1.6269,-1.7754,-1.6787,-1.6299,-1.7783,-1.8008,-1.8008,-1.8008,-1.8008,-1.7441,-1.5967,-1.5801,-1.5801,-1.5801,-1.5566,-1.541,-1.541,-1.541,-1.541,-1.541,-1.541,-1.6789,-1.9747,-1.7335,-1.728,-1.9798,-1.9798,-1.9798,-1.9798,-1.9798,-1.9579,-1.9032,-1.6507,-1.541,-1.541,-1.541,-1.541,-1.541,-1.541,-1.541,-1.541,-1.5526,-1.6083,-1.681,-1.6708,-1.6595,-1.6492,-1.6492,-1.6436,-1.6208,-1.5584,-1.5806,-1.6208,-1.5575,-1.5582,-1.5525,-1.3985,-1.3557,-1.375,-1.4532,-1.5141,-1.5588,-1.5588,-1.5588,-1.541,-1.4835,-1.4789,-1.4835,-1.4835,-1.532,-1.5377,-1.4223,-1.4572,-1.4385,-1.2658,0.0,-1.3415,-1.3245,-1.3905,-1.4647,-1.5508,-1.554,-1.576,-1.6466,-1.6477,-1.6798,0.0,-1.7531,-1.7875,-1.865,-1.9169,-1.9281,-1.8893,-1.9442,-1.969,-1.969,-1.969,-1.969,-1.969,-1.969,-2.0423,-2.1769,-2.3041,-2.2179,-1.9798,-1.9798,-1.9798,-1.9798,-1.9798,-1.9798,-1.9798,-1.9798,-1.9798,-1.9798,-1.7607,-1.7607,-1.7695,-1.7959,-1.7783,-1.7695,-1.7969,-1.8008,-1.8008,-1.8008,-1.8008,-1.791,-1.7637,-1.7607,-1.7607,-1.7607,-1.626,-1.541,-1.541,-1.541,-1.541,-1.541,-1.541,-1.6789,-1.9747,-1.9359,-1.9359,-1.9798,-1.9798,-1.9798,-1.9798,-1.9798,-1.8489,-1.6073,-1.5575,-1.541,-1.541,-1.541,-1.541,-1.541,-1.541,-1.541,-1.5468,-1.6093,-1.6425,-1.6652,-1.7202,-1.7034,-1.6492,-1.6492,-1.6093,-1.5526,-1.541,-1.5468,-1.5526,-1.541,-1.5419,-1.5288,-1.4268,-1.3892,-1.391,-1.4536,-1.5141,-1.5588,-1.5588,-1.5588,-1.541,-1.4835,-1.5096,-1.5454,-1.5454,-1.5964,-1.5979,-1.4849,-1.4839,-1.4553,-1.3245,0.0,-1.3989,-1.3926,-1.4771,-1.5404,-1.5576,-1.6039,-1.6367,-1.6466,-1.6527,-1.6769,-1.7325,-1.734,-1.7409,-1.7544,-1.8066,-1.8535,-1.8893,-1.9442,-1.969,-1.969,-1.969,-1.969,-1.969,-1.969,-2.0423,-2.1769,-2.3041,-2.2179,-1.9798,-1.9798,-1.9798,-1.9798,-1.9798,-1.9798,-1.9798,-1.9798,-1.9798,-1.9798,-1.8008,-1.8008,-1.8008,-1.8008,-1.8008,-1.8008,-1.8008,-1.8008,-1.8008,-1.8008,-1.8008,-1.8008,-1.8008,-1.8008,-1.8008,-1.8008,-1.7275,-1.6807,-1.6807,-1.5928,-1.541,-1.541,-1.689,-1.8424,-1.9747,-1.9798,-1.9798,-1.9798,-1.9798,-1.9798,-1.9798,-1.9798,-1.8209,-1.541,-1.541,-1.541,-1.541,-1.541,-1.541,-1.541,-1.541,-1.5748,-1.6255,-1.6425,-1.6978,-1.7688,-1.7633,-1.7357,-1.7034,-1.6652,-1.6036,-1.541,-1.541,-1.541,-1.541,-1.541,-1.5254,-1.4988,-1.4737,-1.462,-1.4693,-1.5074,-1.5644,-1.6095,-1.6095,-1.6095,-1.6008,-1.5744,-1.5876,-1.6095,-1.6095,-1.6293,-1.6248,-1.5409,-1.5598,0.0,0.0,-1.4537,-1.4806,-1.4462,-1.5136,-1.5588,-1.5588,-1.6151,-1.6522,-1.6522,-1.6194,-1.6126,-1.6361,-1.6403,-1.6403,-1.6403,-1.7518,-1.838,-1.8893,-1.9442,-1.9566,-1.9281,-1.9281,-1.9132,-1.8855,-1.9043,-1.9662,-2.0671,-2.1272,-2.089,-1.9798,-1.9798,-1.9798,-1.9798,-1.9798,-1.9798,-1.9798,-1.9798,-1.9798,-1.9798,-1.8008,-1.8008,-1.8008,-1.8008,-1.8008,-1.8008,-1.8008,-1.8008,-1.8008,-1.8008,-1.8008,-1.8008,-1.8008,-1.8008,-1.8008,-1.8008,-1.8008,-1.8008,-1.8008,-1.6758,-1.6357,-1.7158,-1.8856,-1.9798,-1.9798,-1.9798,-1.9798,-1.9798,-1.9798,-1.9475,-1.8756,-1.8756,-1.7556,-1.541,-1.541,-1.541,-1.541,-1.541,-1.541,-1.541,-1.541,-1.5853,-1.6585,-1.6698,-1.7523,-1.8566,-1.7961,-1.7688,-1.7468,-1.6765,-1.6036,-1.541,-1.541,-1.541,-1.541,-1.541,-1.5186,-1.4946,-1.4999,-1.5156,-1.5325,-1.5498,-1.6005,-1.6522,-1.6522,-1.6522,-1.6522,-1.6522,-1.638,-1.6324,-1.6466,-1.638,-1.615,-1.5781,0.0,0.0,0.0,-1.5278,-1.5365,-1.4789,-1.5231,-1.5588,-1.5588,-1.6151,-1.6522,-1.6522,-1.6051,-1.582,-1.582,-1.582,-1.5852,-1.5971,-1.7354,-1.838,-1.8893,-1.9332,-1.9332,-1.8893,-1.8765,-1.8496,-1.8106,-1.838,-1.8756,-1.9225,-1.946,-1.9636,-1.9798,-1.9798,-1.9798,-1.9798,-1.9798,-1.9798,-1.9798,-1.9798,-1.9798,-1.9798,-1.8008,-1.8008,-1.8008,-1.8008,-1.8008,-1.8008,-1.8008,-1.8008,-1.8008,-1.8008,-1.8008,-1.8008,-1.8008,-1.8008,-1.8008,-1.8008,-1.8008,-1.8008,-1.8008,-1.7891,-1.9219,-2.2383,-2.0794,-1.9798,-1.9798,-1.9798,-1.9798,-1.9798,-1.9798,-1.837,-1.5738,-1.5738,-1.5633,-1.541,-1.541,-1.541,-1.541,-1.541,-1.541,-1.541,-1.541,-1.5468,-1.5633,-1.7024,-1.7918,-1.8417,-1.8375,-1.8027,-1.7468,-1.6765,-1.6036,-1.541,-1.541,-1.541,-1.541,-1.541,-1.5391,-1.5273,-1.491,-1.5039,-1.5307,-1.5322,-1.5911,-1.6522,-1.6522,-1.6522,-1.6522,-1.6522,-1.6051,-1.582,-1.638,-1.6051,-1.5683,-1.5699,0.0,0.0,-1.4976,-1.5278,-1.5365,-1.4789,-1.5231,-1.5588,-1.5588,-1.6151,-1.6522,-1.6522,-1.6479,-1.6423,-1.6423,-1.6423,-1.6667,-1.7146,-1.7787,-1.838,-1.8893,-1.893,-1.893,-1.8893,-1.8419,-1.8145,-1.8106,-1.8145,-1.8014,-1.7801,-1.8462,-1.9149,-1.9798,-1.9798,-1.9798,-1.9798,-1.9798,-1.9798,-1.9798,-1.9798,-1.9798,-1.9798,-1.8008,-1.8008,-1.8008,-1.8008,-1.8008,-1.8008,-1.8008,-1.8008,-1.8008,-1.8008,-1.8008,-1.8008,-1.8008,-1.8008,-1.8008,-1.8008,-1.8008,-1.8008,-1.8008,-1.8008,-1.8586,-1.9868,-1.9113,-1.9041,-1.9772,-1.9798,-1.9798,-1.9798,-1.7993,-1.6518,-1.541,-1.541,-1.541,-1.541,-1.541,-1.541,-1.541,-1.541,-1.541,-1.541,-1.541,-1.541,-1.5468,-1.6026,-1.7512,-1.9174,-1.859,-1.7863,-1.7024,-1.614,-1.5633,-1.541,-1.541,-1.541,-1.541,-1.541,-1.541,-1.5381,-1.5215,-1.5389,-1.5599,-1.5836,-1.6161,-1.6402,-1.6467,-1.6522,-1.6522,-1.6522,-1.6008,-1.5676,-1.5908,-1.5764,-1.5616,-1.5641,0.0,-1.5804,-1.5381,-1.4834,-1.4411,-1.419,-1.4687,-1.505,-1.505,-1.5932,-1.6522,-1.6522,-1.6139,-1.5952,-1.5952,-1.6256,-1.6714,-1.7271,-1.7827,-1.8224,-1.8419,-1.8727,-1.8574,-1.7907,-1.7706,-1.7422,-1.7118,-1.7118,-1.7229,-1.7462,-1.7385,-1.7913,-1.8857,-1.9522,-1.9798,-1.9798,-1.9798,-1.9798,-1.9798,-1.9798,-1.9798,-1.9798,-1.8008,-1.8008,-1.8008,-1.8008,-1.8008,-1.8008,-1.8008,-1.8008,-1.8008,-1.8008,-1.8008,-1.8008,-1.8008,-1.8008,-1.8008,-1.8008,-1.8008,-1.8008,-1.8008,-1.8008,-1.8008,-1.8008,-1.8008,-1.8379,-1.9205,-1.8709,-1.8424,-1.8424,-1.6404,-1.5693,-1.6211,-1.5664,-1.541,-1.541,-1.541,-1.541,-1.541,-1.541,-1.541,-1.541,-1.541,-1.541,-1.541,-1.541,-1.6676,-1.8317,-1.7688,-1.7146,-1.6641,-1.569,-1.541,-1.541,-1.541,-1.541,-1.541,-1.541,-1.541,-1.541,-1.541,-1.5481,-1.5639,-1.588,-1.6112,-1.6289,-1.623,-1.6238,-1.6238,-1.6238,-1.5599,-1.5129,-1.5543,-1.5454,-1.5365,-1.5588,-1.5588,-1.5454,-1.5084,-1.4318,-1.3732,-1.3552,-1.4247,-1.4698,-1.4698,-1.5788,-1.6522,-1.6522,-1.6107,-1.5952,-1.6102,-1.6646,-1.7107,-1.7544,-1.8066,-1.8185,-1.7867,-1.8224,-1.8027,-1.7312,-1.7105,-1.6879,-1.6522,-1.6522,-1.6735,-1.7087,-1.6685,-1.6961,-1.7727,-1.8468,-1.9183,-1.9798,-1.9798,-1.9798,-1.9798,-1.9798,-1.9798,-1.9798,-1.8008,-1.8008,-1.8008,-1.8008,-1.8008,-1.8008,-1.8008,-1.8008,-1.8008,-1.8008,-1.8008,-1.8008,-1.8008,-1.8008,-1.8008,-1.8008,-1.8008,-1.8008,-1.8008,-1.8008,-1.8008,-1.8008,-1.8008,-1.8008,-1.8008,-1.6299,-1.541,-1.541,-1.541,-1.6299,-1.7949,-1.624,-1.542,-1.541,-1.541,-1.541,-1.541,-1.541,-1.541,-1.541,-1.541,-1.541,-1.541,-1.541,-1.541,-1.541,-1.541,-1.5864,-1.6379,-1.5642,-1.541,-1.541,-1.541,-1.541,-1.541,-1.541,-1.541,-1.541,-1.541,-1.541,-1.5377,-1.5151,-1.5681,-1.6184,-1.5718,-1.5588,-1.5576,-1.5588,-1.463,-1.419,-1.5365,-1.5096,-1.488,-1.5499,-1.5588,-1.5174,-1.3956,-1.3815,-1.3552,-1.2968,-1.3978,-1.4698,-1.4698,-1.5788,-1.6522,-1.6522,-1.6522,-1.671,-1.7271,-1.7787,-1.8106,-1.8106,-1.8612,-1.838,-1.7312,-1.7312,-1.7312,-1.7312,-1.6752,-1.6522,-1.6522,-1.6522,-1.6522,-1.6522,-1.6522,-1.6522,-1.6522,-1.6522,-1.7802,-1.9773,-1.9798,-1.9798,-1.9798,-1.9798,-1.9798,-1.9798,-1.8008,-1.8008,-1.8008,-1.8008,-1.8008,-1.8008,-1.8008,-1.8008,-1.8008,-1.8008,-1.8008,-1.8008,-1.8008,-1.8008,-1.8008,-1.8008,-1.8008,-1.8008,-1.8008,-1.8008,-1.8008,-1.8008,-1.8008,-1.8008,-1.8008,-1.6299,-1.541,-1.541,-1.541,-1.5674,-1.6201,-1.6904,-1.6582,-1.541,-1.541,-1.541,-1.541,-1.541,-1.541,-1.541,-1.541,-1.541,-1.541,-1.541,-1.541,-1.541,-1.541,-1.5526,-1.569,-1.5468,-1.541,-1.541,-1.541,-1.541,-1.541,-1.541,-1.541,-1.541,-1.541,-1.541,-1.5377,-1.5151,-1.5286,-1.5505,-1.5564,-1.5276,-1.5107,-1.5499,-1.463,-1.3909,-1.4272,-1.419,-1.4143,-1.4318,-1.4318,-1.4226,-1.3862,-1.342,-1.3104,-1.2929,-1.3978,-1.4698,-1.4698,-1.5788,-1.6522,-1.6522,-1.6522,-1.6552,-1.671,-1.7229,-1.7394,-1.6993,-1.7504,-1.7231,-1.6102,-1.6883,-1.7118,-1.6752,-1.6595,-1.6522,-1.6522,-1.6522,-1.6522,-1.6522,-1.6522,-1.6522,-1.6522,-1.6522,-1.6911,-1.7652,-1.9196,-1.9798,-1.9798,-1.9798,-1.9798,-1.9798,-1.8008,-1.8008,-1.8008,-1.8008,-1.8008,-1.8008,-1.8008,-1.8008,-1.8008,-1.8008,-1.8008,-1.8008,-1.8008,-1.8008,-1.8008,-1.8008,-1.8008,-1.8008,-1.8008,-1.8008,-1.8008,-1.8008,-1.8008,-1.8008,-1.8008,-1.6973,-1.6436,-1.6436,-1.6436,-1.6084,-1.5449,-1.7197,-1.7451,-1.6436,-1.6436,-1.6055,-1.541,-1.541,-1.541,-1.541,-1.541,-1.582,-1.6436,-1.6436,-1.6016,-1.541,-1.541,-1.541,-1.541,-1.541,-1.541,-1.541,-1.541,-1.541,-1.541,-1.541,-1.541,-1.541,-1.541,-1.541,-1.5302,-1.5053,-1.5058,-1.5078,-1.5099,-1.4729,-1.4468,-1.4812,-1.4143,-1.3505,-1.3779,-1.3815,-1.3815,-1.3815,-1.3815,-1.3732,-1.3457,-1.3152,-1.2881,-1.2881,-1.3978,-1.4698,-1.4698,-1.5788,-1.6522,-1.6522,-1.6522,-1.6595,-1.6795,-1.7105,-1.7063,-1.6484,-1.6756,-1.6403,-1.5276,-1.5928,-1.6114,-1.5788,-1.602,-1.6107,-1.6032,-1.6032,-1.6207,-1.6522,-1.6522,-1.5976,-1.5062,-1.5062,-1.5656,-1.6647,-1.7978,-1.9032,-1.9798,-1.9798,-1.9798,-1.9798,-1.8008,-1.8008,-1.8008,-1.8008,-1.8008,-1.8008,-1.8008,-1.8008,-1.8008,-1.8008,-1.8008,-1.8008,-1.8008,-1.8008,-1.8008,-1.8008,-1.8008,-1.8008,-1.8008,-1.8008,-1.8008,-1.8008,-1.8008,-1.8008,-1.8008,-1.8008,-1.793,-1.7783,-1.793,-1.7197,-1.5674,-1.7266,-1.8008,-1.8008,-1.8008,-1.7129,-1.5644,-1.5644,-1.5644,-1.5644,-1.5644,-1.6592,-1.8008,-1.8008,-1.7021,-1.5635,-1.5586,-1.5518,-1.5469,-1.542,-1.541,-1.541,-1.541,-1.541,-1.541,-1.541,-1.541,-1.541,-1.541,-1.541,-1.5322,-1.4941,-1.4948,-1.4946,-1.4516,-1.4077,-1.3773,-1.3779,-1.3324,-1.3065,-1.3637,-1.3732,-1.3732,-1.3732,-1.3732,-1.3552,-1.2968,-1.2978,-1.2968,-1.2968,-1.4071,-1.4789,-1.4789,-1.5832,-1.6522,-1.6522,-1.6522,-1.671,-1.7188,-1.7188,-1.6912,-1.6348,-1.6293,-1.5728,-1.4652,-1.4652,-1.4698,-1.4698,-1.5276,-1.5421,-1.5311,-1.5254,-1.5712,-1.6479,-1.6281,-1.4926,-1.2881,-1.2881,-1.434,-1.6522,-1.6522,-1.7739,-1.951,-1.951,-1.9635,-1.9798,-1.8008,-1.8008,-1.8008,-1.8008,-1.8008,-1.8008,-1.8008,-1.8008,-1.8008,-1.8008,-1.8008,-1.8008,-1.8008,-1.8008,-1.8008,-1.8008,-1.8008,-1.8008,-1.8008,-1.8008,-1.8008,-1.8008,-1.8008,-1.8008,-1.8008,-1.8008,-1.7344,-1.5977,-1.7344,-1.7822,-1.7451,-1.7832,-1.8008,-1.8008,-1.8008,-1.7803,-1.7441,-1.7441,-1.7441,-1.7441,-1.7441,-1.7676,-1.8008,-1.8008,-1.7773,-1.7383,-1.6924,-1.6396,-1.5869,-1.5527,-1.541,-1.541,-1.541,-1.541,-1.541,-1.541,-1.541,-1.541,-1.541,-1.541,-1.5391,-1.5293,-1.5074,-1.476,-1.4489,-1.3951,-1.3601,-1.3757,-1.3324,-1.2929,-1.3065,-1.3113,-1.3113,-1.3113,-1.3113,-1.3065,-1.2929,-1.3334,-1.3589,-1.3589,-1.4687,-1.541,-1.541,-1.6064,-1.6522,-1.6522,-1.6522,-1.6552,-1.668,-1.6213,-1.5928,-1.5796,-1.5309,-1.4732,-1.4003,-1.4468,-1.4698,-1.4698,-1.4835,-1.5028,-1.5311,-1.4983,-1.5433,-1.638,-1.4525,-1.3382,-1.2881,-1.2881,-1.434,-1.6522,-1.6522,-1.681,-1.7237,-1.7237,-1.8317,-1.9798,-1.8008,-1.8008,-1.8008,-1.8008,-1.8008,-1.8008,-1.8008,-1.8008,-1.8008,-1.8008,-1.8008,-1.8008,-1.8008,-1.8008,-1.8008,-1.8008,-1.8008,-1.8008,-1.8008,-1.8008,-1.8008,-1.8008,-1.8008,-1.8008,-1.8008,-1.8008,-1.7568,-1.665,-1.7568,-1.8008,-1.8008,-1.8008,-1.8008,-1.8008,-1.8008,-1.8008,-1.8008,-1.8008,-1.8008,-1.7862,-1.6009,-1.6367,-1.8008,-1.8008,-1.7832,-1.7519,-1.6943,-1.6309,-1.5723,-1.5488,-1.541,-1.541,-1.541,-1.541,-1.541,-1.541,-1.541,-1.541,-1.541,-1.541,-1.541,-1.541,-1.5244,-1.5025,-1.4666,-1.4039,-1.3539,-1.3639,-1.3243,-1.2881,-1.2881,-1.2881,-1.2968,-1.3286,-1.3334,-1.342,-1.3705,-1.4014,-1.4143,-1.3815,-1.4595,-1.5186,-1.5186,-1.5466,-1.5656,-1.5656,-1.5656,-1.5656,-1.5656,-1.5332,-1.505,-1.4767,-1.4422,-1.3967,-1.3372,-1.3705,-1.3836,-1.3836,-1.4154,-1.4247,-1.4165,-1.3941,-1.4201,-1.4698,-1.343,-1.2881,-1.2881,-1.2881,-1.434,-1.6522,-1.6522,-1.6522,-1.6522,-1.6522,-1.7903,-1.9798,-1.8008,-1.8008,-1.8008,-1.8008,-1.8008,-1.8008,-1.8008,-1.8008,-1.8008,-1.8008,-1.8008,-1.8008,-1.8008,-1.8008,-1.8008,-1.8008,-1.8008,-1.8008,-1.8008,-1.8008,-1.8008,-1.8008,-1.7794,-1.7657,-1.7657,-1.7579,-1.7657,-1.8008,-1.8008,-1.8008,-1.8008,-1.8008,-1.8008,-1.8008,-1.8008,-1.8008,-1.8008,-1.8008,-1.8008,-1.7725,-1.4585,-1.4799,-1.7079,-1.7725,-1.7513,-1.6747,-1.6568,-1.6084,-1.5547,-1.5449,-1.541,-1.541,-1.541,-1.541,-1.541,-1.541,-1.541,-1.541,-1.541,-1.541,-1.541,-1.541,-1.541,-1.5322,-1.4971,-1.4287,-1.3682,-1.3535,-1.3232,-1.2969,-1.2891,-1.2881,-1.3055,-1.3552,-1.3637,-1.3826,-1.434,-1.4468,-1.4376,-1.3862,-1.4329,-1.4698,-1.4698,-1.4698,-1.4698,-1.4698,-1.4698,-1.4698,-1.4698,-1.4606,-1.4329,-1.3815,-1.3684,-1.342,-1.2881,-1.2881,-1.2881,-1.2929,-1.342,-1.3467,-1.3113,-1.2968,-1.2881,-1.2881,-1.2881,-1.2881,-1.2881,-1.2881,-1.434,-1.6522,-1.6522,-1.6522,-1.6436,-1.6064,-1.7048,-1.8602,-1.8008,-1.8008,-1.8008,-1.8008,-1.8008,-1.8008,-1.8008,-1.8008,-1.8008,-1.8008,-1.8008,-1.8008,-1.8008,-1.8008,-1.8008,-1.8008,-1.8008,-1.8008,-1.8008,-1.8008,-1.8008,-1.8008,-1.6941,-1.6376,-1.6376,-1.5877,-1.6367,-1.8008,-1.8008,-1.8008,-1.8008,-1.8008,-1.8008,-1.8008,-1.8008,-1.8008,-1.8008,-1.8008,-1.8008,-1.794,-1.7442,-1.5579,-1.344,-1.6724,-1.6957,-1.5668,-1.6806,-1.6777,-1.6084,-1.5586,-1.541,-1.541,-1.541,-1.541,-1.541,-1.541,-1.541,-1.541,-1.541,-1.541,-1.541,-1.541,-1.541,-1.54,-1.5342,-1.4951,-1.4404,-1.3662,-1.3467,-1.3311,-1.2949,-1.2881,-1.2929,-1.3017,-1.3017,-1.3065,-1.3104,-1.36,-1.3909,-1.3815,-1.4329,-1.4698,-1.4698,-1.4698,-1.4698,-1.4698,-1.4698,-1.4698,-1.4698,-1.419,-1.3862,-1.3815,-1.3286,-1.2968,-1.2881,-1.2881,-1.2881,-1.2881,-1.2968,-1.3334,-1.392,-1.32,-1.2881,-1.2881,-1.2881,-1.2881,-1.2881,-1.2881,-1.434,-1.6522,-1.6522,-1.6522,-1.625,-1.4154,-1.3583,-1.3836,-1.8008,-1.8008,-1.8008,-1.8008,-1.8008,-1.8008,-1.8008,-1.8008,-1.8008,-1.8008,-1.8008,-1.8008,-1.8008,-1.8008,-1.8008,-1.8008,-1.8008,-1.7579,-1.6507,-1.6733,-1.6802,-1.6446,-1.6237,-1.5745,-1.5029,-1.4091,-1.4019,-1.4799,-1.4799,-1.4799,-1.4799,-1.4799,-1.4799,-1.4799,-1.4799,-1.6009,-1.8008,-1.8008,-1.6793,-1.4942,-1.6009,-1.5658,-1.4522,-1.5305,-1.5452,-1.5308,-1.5981,-1.6034,-1.5762,-1.5498,-1.541,-1.541,-1.541,-1.541,-1.541,-1.541,-1.541,-1.541,-1.541,-1.541,-1.541,-1.541,-1.541,-1.541,-1.541,-1.5264,-1.4961,-1.4346,-1.3838,-1.3447,-1.3262,-1.3037,-1.3017,-1.3324,-1.342,-1.3515,-1.3836,-1.4107,-1.419,-1.3815,-1.3742,-1.3705,-1.3705,-1.3705,-1.3705,-1.3705,-1.3705,-1.3705,-1.3705,-1.342,-1.3286,-1.3286,-1.3065,-1.2881,-1.2881,-1.2881,-1.2881,-1.2881,-1.2881,-1.3113,-1.342,-1.3515,-1.3334,-1.2881,-1.2881,-1.2881,-1.2881,-1.2881,-1.3525,-1.4479,-1.4479,-1.4479,-1.434,-1.3296,-1.2881,-1.2881]}]]